<?xml version="1.0" encoding="UTF-8" standalone="no" ?>
<gpx xmlns="http://www.topografix.com/GPX/1/1" xmlns:xsi="http://www.w3.org/2001/XMLSchema-instance" xsi:schemaLocation="http://www.topografix.com/GPX/1/1 http://www.topografix.com/GPX/1/1/gpx.xsd" version="1.1" creator="VisuGPX - https://www.visugpx.com">
  <metadata>
    <name>J7 Les hauts de Cavanello (Zonza) - L'Ospedale</name>
  </metadata>
  <trk>
    <name><![CDATA[01-MAI-22 04:17:51 PM]]></name>
    <extensions>
      <line xmlns="http://www.topografix.com/GPX/gpx_style/0/2">
        <color>0000FF</color>
        <width>4</width>
      </line>
    </extensions>
    <trkseg>
      <trkpt lat="41.75967" lon="9.19101">
        <ele>888.88</ele>
        <time>2022-05-01T06:49:47Z</time>
      </trkpt>
      <trkpt lat="41.75968" lon="9.19091">
        <ele>888.4</ele>
        <time>2022-05-01T06:50:06Z</time>
      </trkpt>
      <trkpt lat="41.75966" lon="9.19094">
        <ele>887.91</ele>
        <time>2022-05-01T06:50:21Z</time>
      </trkpt>
      <trkpt lat="41.75966" lon="9.19098">
        <ele>888.4</ele>
        <time>2022-05-01T06:50:43Z</time>
      </trkpt>
      <trkpt lat="41.75968" lon="9.19097">
        <ele>888.88</ele>
        <time>2022-05-01T06:51:15Z</time>
      </trkpt>
      <trkpt lat="41.75965" lon="9.19095">
        <ele>888.4</ele>
        <time>2022-05-01T06:51:45Z</time>
      </trkpt>
      <trkpt lat="41.75956" lon="9.19091">
        <ele>887.43</ele>
        <time>2022-05-01T06:52:01Z</time>
      </trkpt>
      <trkpt lat="41.75956" lon="9.19089">
        <ele>886.95</ele>
        <time>2022-05-01T06:52:16Z</time>
      </trkpt>
      <trkpt lat="41.75955" lon="9.19084">
        <ele>886.47</ele>
        <time>2022-05-01T06:52:46Z</time>
      </trkpt>
      <trkpt lat="41.75949" lon="9.19083">
        <ele>885.51</ele>
        <time>2022-05-01T06:52:50Z</time>
      </trkpt>
      <trkpt lat="41.75939" lon="9.1908">
        <ele>883.59</ele>
        <time>2022-05-01T06:53:05Z</time>
      </trkpt>
      <trkpt lat="41.75939" lon="9.19081">
        <ele>883.59</ele>
        <time>2022-05-01T06:53:06Z</time>
      </trkpt>
      <trkpt lat="41.75941" lon="9.19091">
        <ele>884.07</ele>
        <time>2022-05-01T06:53:15Z</time>
      </trkpt>
      <trkpt lat="41.75948" lon="9.19107">
        <ele>885.03</ele>
        <time>2022-05-01T06:53:27Z</time>
      </trkpt>
      <trkpt lat="41.7595" lon="9.19119">
        <ele>883.11</ele>
        <time>2022-05-01T06:53:37Z</time>
      </trkpt>
      <trkpt lat="41.75935" lon="9.19117">
        <ele>879.74</ele>
        <time>2022-05-01T06:53:52Z</time>
      </trkpt>
      <trkpt lat="41.75938" lon="9.19134">
        <ele>878.3</ele>
        <time>2022-05-01T06:54:06Z</time>
      </trkpt>
      <trkpt lat="41.75927" lon="9.19132">
        <ele>875.9</ele>
        <time>2022-05-01T06:54:21Z</time>
      </trkpt>
      <trkpt lat="41.75915" lon="9.19122">
        <ele>873.01</ele>
        <time>2022-05-01T06:54:33Z</time>
      </trkpt>
      <trkpt lat="41.75903" lon="9.1912">
        <ele>870.61</ele>
        <time>2022-05-01T06:54:43Z</time>
      </trkpt>
      <trkpt lat="41.75891" lon="9.19127">
        <ele>868.21</ele>
        <time>2022-05-01T06:55:05Z</time>
      </trkpt>
      <trkpt lat="41.75881" lon="9.19116">
        <ele>866.29</ele>
        <time>2022-05-01T06:55:23Z</time>
      </trkpt>
      <trkpt lat="41.75873" lon="9.19104">
        <ele>864.36</ele>
        <time>2022-05-01T06:55:39Z</time>
      </trkpt>
      <trkpt lat="41.75879" lon="9.19099">
        <ele>864.84</ele>
        <time>2022-05-01T06:56:06Z</time>
      </trkpt>
      <trkpt lat="41.75874" lon="9.19116">
        <ele>864.84</ele>
        <time>2022-05-01T06:56:27Z</time>
      </trkpt>
      <trkpt lat="41.75866" lon="9.19147">
        <ele>866.29</ele>
        <time>2022-05-01T06:56:49Z</time>
      </trkpt>
      <trkpt lat="41.75843" lon="9.19199">
        <ele>866.77</ele>
        <time>2022-05-01T06:57:10Z</time>
      </trkpt>
      <trkpt lat="41.7584" lon="9.19238">
        <ele>867.25</ele>
        <time>2022-05-01T06:57:31Z</time>
      </trkpt>
      <trkpt lat="41.7584" lon="9.19243">
        <ele>867.25</ele>
        <time>2022-05-01T06:57:34Z</time>
      </trkpt>
      <trkpt lat="41.7584" lon="9.19275">
        <ele>867.73</ele>
        <time>2022-05-01T06:57:53Z</time>
      </trkpt>
      <trkpt lat="41.7584" lon="9.19295">
        <ele>868.21</ele>
        <time>2022-05-01T06:58:05Z</time>
      </trkpt>
      <trkpt lat="41.75842" lon="9.1933">
        <ele>869.17</ele>
        <time>2022-05-01T06:58:27Z</time>
      </trkpt>
      <trkpt lat="41.75848" lon="9.19364">
        <ele>869.17</ele>
        <time>2022-05-01T06:58:48Z</time>
      </trkpt>
      <trkpt lat="41.75849" lon="9.19406">
        <ele>870.13</ele>
        <time>2022-05-01T06:59:11Z</time>
      </trkpt>
      <trkpt lat="41.75857" lon="9.19441">
        <ele>871.09</ele>
        <time>2022-05-01T06:59:32Z</time>
      </trkpt>
      <trkpt lat="41.75866" lon="9.19473">
        <ele>870.61</ele>
        <time>2022-05-01T06:59:53Z</time>
      </trkpt>
      <trkpt lat="41.75876" lon="9.19502">
        <ele>871.09</ele>
        <time>2022-05-01T07:00:12Z</time>
      </trkpt>
      <trkpt lat="41.75885" lon="9.19528">
        <ele>871.09</ele>
        <time>2022-05-01T07:00:31Z</time>
      </trkpt>
      <trkpt lat="41.75889" lon="9.19555">
        <ele>871.57</ele>
        <time>2022-05-01T07:00:47Z</time>
      </trkpt>
      <trkpt lat="41.75897" lon="9.19599">
        <ele>873.01</ele>
        <time>2022-05-01T07:01:06Z</time>
      </trkpt>
      <trkpt lat="41.75899" lon="9.19609">
        <ele>873.01</ele>
        <time>2022-05-01T07:01:12Z</time>
      </trkpt>
      <trkpt lat="41.75909" lon="9.19642">
        <ele>873.5</ele>
        <time>2022-05-01T07:01:31Z</time>
      </trkpt>
      <trkpt lat="41.75914" lon="9.19652">
        <ele>873.01</ele>
        <time>2022-05-01T07:01:38Z</time>
      </trkpt>
      <trkpt lat="41.75931" lon="9.19674">
        <ele>872.53</ele>
        <time>2022-05-01T07:01:56Z</time>
      </trkpt>
      <trkpt lat="41.75952" lon="9.19693">
        <ele>873.5</ele>
        <time>2022-05-01T07:02:16Z</time>
      </trkpt>
      <trkpt lat="41.75977" lon="9.19698">
        <ele>873.98</ele>
        <time>2022-05-01T07:02:36Z</time>
      </trkpt>
      <trkpt lat="41.76001" lon="9.19701">
        <ele>873.98</ele>
        <time>2022-05-01T07:02:55Z</time>
      </trkpt>
      <trkpt lat="41.76003" lon="9.19701">
        <ele>874.46</ele>
        <time>2022-05-01T07:02:57Z</time>
      </trkpt>
      <trkpt lat="41.76024" lon="9.19704">
        <ele>874.46</ele>
        <time>2022-05-01T07:03:15Z</time>
      </trkpt>
      <trkpt lat="41.76049" lon="9.1971">
        <ele>874.46</ele>
        <time>2022-05-01T07:03:33Z</time>
      </trkpt>
      <trkpt lat="41.76064" lon="9.19711">
        <ele>875.9</ele>
        <time>2022-05-01T07:03:49Z</time>
      </trkpt>
      <trkpt lat="41.76083" lon="9.19706">
        <ele>875.42</ele>
        <time>2022-05-01T07:04:08Z</time>
      </trkpt>
      <trkpt lat="41.76114" lon="9.19709">
        <ele>875.9</ele>
        <time>2022-05-01T07:04:26Z</time>
      </trkpt>
      <trkpt lat="41.76139" lon="9.19726">
        <ele>875.9</ele>
        <time>2022-05-01T07:04:44Z</time>
      </trkpt>
      <trkpt lat="41.76142" lon="9.19728">
        <ele>876.38</ele>
        <time>2022-05-01T07:04:46Z</time>
      </trkpt>
      <trkpt lat="41.76144" lon="9.1973">
        <ele>876.38</ele>
        <time>2022-05-01T07:04:48Z</time>
      </trkpt>
      <trkpt lat="41.76167" lon="9.19751">
        <ele>877.34</ele>
        <time>2022-05-01T07:05:08Z</time>
      </trkpt>
      <trkpt lat="41.76179" lon="9.19782">
        <ele>877.34</ele>
        <time>2022-05-01T07:05:27Z</time>
      </trkpt>
      <trkpt lat="41.76187" lon="9.19804">
        <ele>877.82</ele>
        <time>2022-05-01T07:05:46Z</time>
      </trkpt>
      <trkpt lat="41.76185" lon="9.19837">
        <ele>878.3</ele>
        <time>2022-05-01T07:06:04Z</time>
      </trkpt>
      <trkpt lat="41.76178" lon="9.19868">
        <ele>877.82</ele>
        <time>2022-05-01T07:06:21Z</time>
      </trkpt>
      <trkpt lat="41.76162" lon="9.19892">
        <ele>878.78</ele>
        <time>2022-05-01T07:06:40Z</time>
      </trkpt>
      <trkpt lat="41.76151" lon="9.19921">
        <ele>878.3</ele>
        <time>2022-05-01T07:06:57Z</time>
      </trkpt>
      <trkpt lat="41.76143" lon="9.19943">
        <ele>878.78</ele>
        <time>2022-05-01T07:07:13Z</time>
      </trkpt>
      <trkpt lat="41.76119" lon="9.19959">
        <ele>878.78</ele>
        <time>2022-05-01T07:07:34Z</time>
      </trkpt>
      <trkpt lat="41.761" lon="9.19972">
        <ele>879.26</ele>
        <time>2022-05-01T07:07:54Z</time>
      </trkpt>
      <trkpt lat="41.76077" lon="9.19991">
        <ele>879.74</ele>
        <time>2022-05-01T07:08:12Z</time>
      </trkpt>
      <trkpt lat="41.76046" lon="9.2">
        <ele>880.71</ele>
        <time>2022-05-01T07:08:30Z</time>
      </trkpt>
      <trkpt lat="41.76028" lon="9.20011">
        <ele>881.67</ele>
        <time>2022-05-01T07:08:48Z</time>
      </trkpt>
      <trkpt lat="41.76027" lon="9.2001">
        <ele>881.67</ele>
        <time>2022-05-01T07:08:50Z</time>
      </trkpt>
      <trkpt lat="41.76022" lon="9.2001">
        <ele>881.67</ele>
        <time>2022-05-01T07:08:55Z</time>
      </trkpt>
      <trkpt lat="41.76003" lon="9.20009">
        <ele>881.67</ele>
        <time>2022-05-01T07:09:09Z</time>
      </trkpt>
      <trkpt lat="41.75974" lon="9.20013">
        <ele>882.63</ele>
        <time>2022-05-01T07:09:29Z</time>
      </trkpt>
      <trkpt lat="41.75957" lon="9.2001">
        <ele>883.11</ele>
        <time>2022-05-01T07:09:41Z</time>
      </trkpt>
      <trkpt lat="41.75934" lon="9.19982">
        <ele>883.59</ele>
        <time>2022-05-01T07:10:01Z</time>
      </trkpt>
      <trkpt lat="41.75927" lon="9.19976">
        <ele>885.03</ele>
        <time>2022-05-01T07:10:06Z</time>
      </trkpt>
      <trkpt lat="41.75924" lon="9.19975">
        <ele>883.59</ele>
        <time>2022-05-01T07:10:09Z</time>
      </trkpt>
      <trkpt lat="41.75907" lon="9.19982">
        <ele>882.15</ele>
        <time>2022-05-01T07:10:26Z</time>
      </trkpt>
      <trkpt lat="41.75906" lon="9.19982">
        <ele>885.03</ele>
        <time>2022-05-01T07:10:27Z</time>
      </trkpt>
      <trkpt lat="41.75899" lon="9.19984">
        <ele>881.67</ele>
        <time>2022-05-01T07:10:32Z</time>
      </trkpt>
      <trkpt lat="41.75898" lon="9.19985">
        <ele>886.47</ele>
        <time>2022-05-01T07:10:33Z</time>
      </trkpt>
      <trkpt lat="41.75882" lon="9.20006">
        <ele>883.11</ele>
        <time>2022-05-01T07:10:50Z</time>
      </trkpt>
      <trkpt lat="41.7588" lon="9.20016">
        <ele>883.59</ele>
        <time>2022-05-01T07:10:56Z</time>
      </trkpt>
      <trkpt lat="41.75879" lon="9.2002">
        <ele>883.59</ele>
        <time>2022-05-01T07:10:59Z</time>
      </trkpt>
      <trkpt lat="41.7588" lon="9.20036">
        <ele>883.59</ele>
        <time>2022-05-01T07:11:09Z</time>
      </trkpt>
      <trkpt lat="41.75885" lon="9.20075">
        <ele>882.63</ele>
        <time>2022-05-01T07:11:31Z</time>
      </trkpt>
      <trkpt lat="41.75888" lon="9.20115">
        <ele>881.67</ele>
        <time>2022-05-01T07:11:50Z</time>
      </trkpt>
      <trkpt lat="41.75894" lon="9.20149">
        <ele>880.71</ele>
        <time>2022-05-01T07:12:10Z</time>
      </trkpt>
      <trkpt lat="41.75905" lon="9.20177">
        <ele>880.22</ele>
        <time>2022-05-01T07:12:30Z</time>
      </trkpt>
      <trkpt lat="41.75918" lon="9.20195">
        <ele>879.74</ele>
        <time>2022-05-01T07:12:45Z</time>
      </trkpt>
      <trkpt lat="41.75927" lon="9.20226">
        <ele>879.26</ele>
        <time>2022-05-01T07:13:03Z</time>
      </trkpt>
      <trkpt lat="41.75942" lon="9.20252">
        <ele>879.26</ele>
        <time>2022-05-01T07:13:19Z</time>
      </trkpt>
      <trkpt lat="41.75963" lon="9.2028">
        <ele>878.78</ele>
        <time>2022-05-01T07:13:40Z</time>
      </trkpt>
      <trkpt lat="41.75979" lon="9.203">
        <ele>878.78</ele>
        <time>2022-05-01T07:13:59Z</time>
      </trkpt>
      <trkpt lat="41.7597" lon="9.20326">
        <ele>877.82</ele>
        <time>2022-05-01T07:14:15Z</time>
      </trkpt>
      <trkpt lat="41.75943" lon="9.20326">
        <ele>877.34</ele>
        <time>2022-05-01T07:14:33Z</time>
      </trkpt>
      <trkpt lat="41.75929" lon="9.20331">
        <ele>876.86</ele>
        <time>2022-05-01T07:14:44Z</time>
      </trkpt>
      <trkpt lat="41.7592" lon="9.20367">
        <ele>876.38</ele>
        <time>2022-05-01T07:15:03Z</time>
      </trkpt>
      <trkpt lat="41.75912" lon="9.204">
        <ele>875.9</ele>
        <time>2022-05-01T07:15:24Z</time>
      </trkpt>
      <trkpt lat="41.75905" lon="9.20425">
        <ele>875.9</ele>
        <time>2022-05-01T07:15:40Z</time>
      </trkpt>
      <trkpt lat="41.75898" lon="9.20453">
        <ele>875.9</ele>
        <time>2022-05-01T07:15:57Z</time>
      </trkpt>
      <trkpt lat="41.75898" lon="9.20458">
        <ele>875.9</ele>
        <time>2022-05-01T07:16:00Z</time>
      </trkpt>
      <trkpt lat="41.75894" lon="9.20488">
        <ele>874.46</ele>
        <time>2022-05-01T07:16:19Z</time>
      </trkpt>
      <trkpt lat="41.75899" lon="9.20519">
        <ele>873.01</ele>
        <time>2022-05-01T07:16:38Z</time>
      </trkpt>
      <trkpt lat="41.75903" lon="9.20529">
        <ele>872.05</ele>
        <time>2022-05-01T07:16:44Z</time>
      </trkpt>
      <trkpt lat="41.75921" lon="9.20548">
        <ele>871.09</ele>
        <time>2022-05-01T07:17:02Z</time>
      </trkpt>
      <trkpt lat="41.75942" lon="9.20563">
        <ele>869.65</ele>
        <time>2022-05-01T07:17:24Z</time>
      </trkpt>
      <trkpt lat="41.75952" lon="9.20562">
        <ele>869.17</ele>
        <time>2022-05-01T07:17:41Z</time>
      </trkpt>
      <trkpt lat="41.75982" lon="9.20571">
        <ele>868.21</ele>
        <time>2022-05-01T07:17:56Z</time>
      </trkpt>
      <trkpt lat="41.7601" lon="9.20585">
        <ele>867.73</ele>
        <time>2022-05-01T07:18:16Z</time>
      </trkpt>
      <trkpt lat="41.76028" lon="9.20602">
        <ele>867.25</ele>
        <time>2022-05-01T07:18:35Z</time>
      </trkpt>
      <trkpt lat="41.76032" lon="9.20637">
        <ele>866.29</ele>
        <time>2022-05-01T07:18:52Z</time>
      </trkpt>
      <trkpt lat="41.76039" lon="9.20668">
        <ele>865.8</ele>
        <time>2022-05-01T07:19:05Z</time>
      </trkpt>
      <trkpt lat="41.76046" lon="9.20698">
        <ele>865.8</ele>
        <time>2022-05-01T07:19:22Z</time>
      </trkpt>
      <trkpt lat="41.76043" lon="9.20728">
        <ele>865.32</ele>
        <time>2022-05-01T07:19:39Z</time>
      </trkpt>
      <trkpt lat="41.76042" lon="9.20743">
        <ele>865.32</ele>
        <time>2022-05-01T07:19:56Z</time>
      </trkpt>
      <trkpt lat="41.7603" lon="9.20759">
        <ele>864.84</ele>
        <time>2022-05-01T07:20:22Z</time>
      </trkpt>
      <trkpt lat="41.76013" lon="9.20764">
        <ele>864.84</ele>
        <time>2022-05-01T07:20:31Z</time>
      </trkpt>
      <trkpt lat="41.75991" lon="9.20759">
        <ele>864.36</ele>
        <time>2022-05-01T07:20:47Z</time>
      </trkpt>
      <trkpt lat="41.75957" lon="9.20756">
        <ele>864.36</ele>
        <time>2022-05-01T07:21:08Z</time>
      </trkpt>
      <trkpt lat="41.75939" lon="9.20766">
        <ele>865.32</ele>
        <time>2022-05-01T07:21:25Z</time>
      </trkpt>
      <trkpt lat="41.75919" lon="9.20778">
        <ele>865.32</ele>
        <time>2022-05-01T07:21:42Z</time>
      </trkpt>
      <trkpt lat="41.75898" lon="9.20787">
        <ele>865.8</ele>
        <time>2022-05-01T07:22:00Z</time>
      </trkpt>
      <trkpt lat="41.75897" lon="9.20788">
        <ele>866.29</ele>
        <time>2022-05-01T07:22:01Z</time>
      </trkpt>
      <trkpt lat="41.75895" lon="9.20789">
        <ele>867.25</ele>
        <time>2022-05-01T07:22:03Z</time>
      </trkpt>
      <trkpt lat="41.75881" lon="9.2081">
        <ele>867.73</ele>
        <time>2022-05-01T07:22:18Z</time>
      </trkpt>
      <trkpt lat="41.7588" lon="9.20813">
        <ele>868.69</ele>
        <time>2022-05-01T07:22:20Z</time>
      </trkpt>
      <trkpt lat="41.75877" lon="9.20838">
        <ele>868.69</ele>
        <time>2022-05-01T07:22:37Z</time>
      </trkpt>
      <trkpt lat="41.75869" lon="9.20865">
        <ele>870.13</ele>
        <time>2022-05-01T07:22:58Z</time>
      </trkpt>
      <trkpt lat="41.7586" lon="9.20895">
        <ele>871.09</ele>
        <time>2022-05-01T07:23:16Z</time>
      </trkpt>
      <trkpt lat="41.75845" lon="9.20934">
        <ele>871.57</ele>
        <time>2022-05-01T07:23:35Z</time>
      </trkpt>
      <trkpt lat="41.75827" lon="9.20955">
        <ele>872.53</ele>
        <time>2022-05-01T07:23:54Z</time>
      </trkpt>
      <trkpt lat="41.75806" lon="9.20982">
        <ele>874.46</ele>
        <time>2022-05-01T07:24:17Z</time>
      </trkpt>
      <trkpt lat="41.75789" lon="9.21016">
        <ele>874.94</ele>
        <time>2022-05-01T07:24:38Z</time>
      </trkpt>
      <trkpt lat="41.75768" lon="9.21036">
        <ele>876.38</ele>
        <time>2022-05-01T07:24:56Z</time>
      </trkpt>
      <trkpt lat="41.75738" lon="9.21046">
        <ele>877.34</ele>
        <time>2022-05-01T07:25:14Z</time>
      </trkpt>
      <trkpt lat="41.75723" lon="9.2107">
        <ele>879.26</ele>
        <time>2022-05-01T07:25:32Z</time>
      </trkpt>
      <trkpt lat="41.75709" lon="9.21094">
        <ele>879.26</ele>
        <time>2022-05-01T07:25:48Z</time>
      </trkpt>
      <trkpt lat="41.7568" lon="9.21063">
        <ele>879.74</ele>
        <time>2022-05-01T07:26:04Z</time>
      </trkpt>
      <trkpt lat="41.75676" lon="9.21032">
        <ele>878.78</ele>
        <time>2022-05-01T07:26:21Z</time>
      </trkpt>
      <trkpt lat="41.75676" lon="9.21022">
        <ele>878.3</ele>
        <time>2022-05-01T07:26:27Z</time>
      </trkpt>
      <trkpt lat="41.7568" lon="9.20997">
        <ele>878.78</ele>
        <time>2022-05-01T07:26:46Z</time>
      </trkpt>
      <trkpt lat="41.7569" lon="9.20968">
        <ele>879.26</ele>
        <time>2022-05-01T07:27:03Z</time>
      </trkpt>
      <trkpt lat="41.75692" lon="9.20936">
        <ele>880.71</ele>
        <time>2022-05-01T07:27:19Z</time>
      </trkpt>
      <trkpt lat="41.75707" lon="9.20896">
        <ele>881.19</ele>
        <time>2022-05-01T07:27:38Z</time>
      </trkpt>
      <trkpt lat="41.75699" lon="9.20883">
        <ele>882.63</ele>
        <time>2022-05-01T07:27:56Z</time>
      </trkpt>
      <trkpt lat="41.75677" lon="9.20887">
        <ele>883.11</ele>
        <time>2022-05-01T07:28:14Z</time>
      </trkpt>
      <trkpt lat="41.75661" lon="9.20893">
        <ele>883.59</ele>
        <time>2022-05-01T07:28:33Z</time>
      </trkpt>
      <trkpt lat="41.75643" lon="9.20905">
        <ele>885.03</ele>
        <time>2022-05-01T07:28:50Z</time>
      </trkpt>
      <trkpt lat="41.75618" lon="9.20921">
        <ele>886.47</ele>
        <time>2022-05-01T07:29:10Z</time>
      </trkpt>
      <trkpt lat="41.75592" lon="9.20932">
        <ele>886.95</ele>
        <time>2022-05-01T07:29:31Z</time>
      </trkpt>
      <trkpt lat="41.75565" lon="9.20936">
        <ele>888.88</ele>
        <time>2022-05-01T07:29:53Z</time>
      </trkpt>
      <trkpt lat="41.75549" lon="9.20941">
        <ele>891.76</ele>
        <time>2022-05-01T07:30:07Z</time>
      </trkpt>
      <trkpt lat="41.75546" lon="9.20943">
        <ele>889.36</ele>
        <time>2022-05-01T07:30:09Z</time>
      </trkpt>
      <trkpt lat="41.75538" lon="9.20945">
        <ele>889.84</ele>
        <time>2022-05-01T07:30:13Z</time>
      </trkpt>
      <trkpt lat="41.75517" lon="9.20958">
        <ele>891.28</ele>
        <time>2022-05-01T07:30:32Z</time>
      </trkpt>
      <trkpt lat="41.75498" lon="9.20976">
        <ele>892.72</ele>
        <time>2022-05-01T07:30:48Z</time>
      </trkpt>
      <trkpt lat="41.75477" lon="9.20982">
        <ele>893.2</ele>
        <time>2022-05-01T07:31:05Z</time>
      </trkpt>
      <trkpt lat="41.75449" lon="9.20979">
        <ele>894.16</ele>
        <time>2022-05-01T07:31:24Z</time>
      </trkpt>
      <trkpt lat="41.75426" lon="9.20975">
        <ele>895.12</ele>
        <time>2022-05-01T07:31:41Z</time>
      </trkpt>
      <trkpt lat="41.75394" lon="9.20968">
        <ele>896.09</ele>
        <time>2022-05-01T07:32:02Z</time>
      </trkpt>
      <trkpt lat="41.75376" lon="9.20951">
        <ele>896.57</ele>
        <time>2022-05-01T07:32:19Z</time>
      </trkpt>
      <trkpt lat="41.75361" lon="9.20935">
        <ele>898.01</ele>
        <time>2022-05-01T07:32:36Z</time>
      </trkpt>
      <trkpt lat="41.75343" lon="9.20918">
        <ele>898.97</ele>
        <time>2022-05-01T07:32:54Z</time>
      </trkpt>
      <trkpt lat="41.75321" lon="9.20923">
        <ele>899.93</ele>
        <time>2022-05-01T07:33:13Z</time>
      </trkpt>
      <trkpt lat="41.75308" lon="9.20947">
        <ele>901.37</ele>
        <time>2022-05-01T07:33:28Z</time>
      </trkpt>
      <trkpt lat="41.75307" lon="9.20966">
        <ele>902.33</ele>
        <time>2022-05-01T07:33:42Z</time>
      </trkpt>
      <trkpt lat="41.75306" lon="9.20969">
        <ele>902.33</ele>
        <time>2022-05-01T07:33:45Z</time>
      </trkpt>
      <trkpt lat="41.75299" lon="9.20993">
        <ele>903.78</ele>
        <time>2022-05-01T07:34:02Z</time>
      </trkpt>
      <trkpt lat="41.75295" lon="9.21017">
        <ele>904.26</ele>
        <time>2022-05-01T07:34:17Z</time>
      </trkpt>
      <trkpt lat="41.75293" lon="9.21021">
        <ele>904.74</ele>
        <time>2022-05-01T07:34:20Z</time>
      </trkpt>
      <trkpt lat="41.75288" lon="9.21039">
        <ele>903.78</ele>
        <time>2022-05-01T07:34:35Z</time>
      </trkpt>
      <trkpt lat="41.75271" lon="9.21051">
        <ele>903.3</ele>
        <time>2022-05-01T07:34:50Z</time>
      </trkpt>
      <trkpt lat="41.75253" lon="9.21029">
        <ele>906.18</ele>
        <time>2022-05-01T07:35:07Z</time>
      </trkpt>
      <trkpt lat="41.75251" lon="9.21012">
        <ele>907.62</ele>
        <time>2022-05-01T07:35:20Z</time>
      </trkpt>
      <trkpt lat="41.75246" lon="9.21003">
        <ele>906.18</ele>
        <time>2022-05-01T07:35:33Z</time>
      </trkpt>
      <trkpt lat="41.75238" lon="9.20985">
        <ele>907.62</ele>
        <time>2022-05-01T07:35:49Z</time>
      </trkpt>
      <trkpt lat="41.75232" lon="9.20958">
        <ele>907.62</ele>
        <time>2022-05-01T07:36:08Z</time>
      </trkpt>
      <trkpt lat="41.75226" lon="9.20932">
        <ele>908.58</ele>
        <time>2022-05-01T07:36:24Z</time>
      </trkpt>
      <trkpt lat="41.75227" lon="9.20912">
        <ele>909.54</ele>
        <time>2022-05-01T07:36:39Z</time>
      </trkpt>
      <trkpt lat="41.75227" lon="9.20893">
        <ele>910.99</ele>
        <time>2022-05-01T07:36:53Z</time>
      </trkpt>
      <trkpt lat="41.7523" lon="9.20872">
        <ele>911.47</ele>
        <time>2022-05-01T07:37:08Z</time>
      </trkpt>
      <trkpt lat="41.75231" lon="9.20847">
        <ele>911.95</ele>
        <time>2022-05-01T07:37:24Z</time>
      </trkpt>
      <trkpt lat="41.75233" lon="9.20822">
        <ele>912.43</ele>
        <time>2022-05-01T07:37:41Z</time>
      </trkpt>
      <trkpt lat="41.75233" lon="9.20808">
        <ele>913.39</ele>
        <time>2022-05-01T07:37:58Z</time>
      </trkpt>
      <trkpt lat="41.75234" lon="9.20812">
        <ele>912.91</ele>
        <time>2022-05-01T07:38:19Z</time>
      </trkpt>
      <trkpt lat="41.75233" lon="9.20808">
        <ele>913.87</ele>
        <time>2022-05-01T07:38:53Z</time>
      </trkpt>
      <trkpt lat="41.75233" lon="9.20805">
        <ele>913.87</ele>
        <time>2022-05-01T07:39:27Z</time>
      </trkpt>
      <trkpt lat="41.7522" lon="9.20789">
        <ele>914.35</ele>
        <time>2022-05-01T07:39:45Z</time>
      </trkpt>
      <trkpt lat="41.75202" lon="9.20782">
        <ele>915.79</ele>
        <time>2022-05-01T07:40:04Z</time>
      </trkpt>
      <trkpt lat="41.7518" lon="9.20776">
        <ele>917.24</ele>
        <time>2022-05-01T07:40:27Z</time>
      </trkpt>
      <trkpt lat="41.75154" lon="9.20776">
        <ele>917.72</ele>
        <time>2022-05-01T07:40:52Z</time>
      </trkpt>
      <trkpt lat="41.75132" lon="9.20782">
        <ele>920.12</ele>
        <time>2022-05-01T07:41:14Z</time>
      </trkpt>
      <trkpt lat="41.75121" lon="9.20796">
        <ele>920.12</ele>
        <time>2022-05-01T07:41:32Z</time>
      </trkpt>
      <trkpt lat="41.75109" lon="9.20811">
        <ele>920.6</ele>
        <time>2022-05-01T07:41:48Z</time>
      </trkpt>
      <trkpt lat="41.75084" lon="9.20823">
        <ele>921.08</ele>
        <time>2022-05-01T07:42:08Z</time>
      </trkpt>
      <trkpt lat="41.7507" lon="9.20829">
        <ele>923</ele>
        <time>2022-05-01T07:42:28Z</time>
      </trkpt>
      <trkpt lat="41.75049" lon="9.20838">
        <ele>923.48</ele>
        <time>2022-05-01T07:42:44Z</time>
      </trkpt>
      <trkpt lat="41.7503" lon="9.20851">
        <ele>923.96</ele>
        <time>2022-05-01T07:43:00Z</time>
      </trkpt>
      <trkpt lat="41.75017" lon="9.20864">
        <ele>924.93</ele>
        <time>2022-05-01T07:43:18Z</time>
      </trkpt>
      <trkpt lat="41.75006" lon="9.20881">
        <ele>925.89</ele>
        <time>2022-05-01T07:43:34Z</time>
      </trkpt>
      <trkpt lat="41.75002" lon="9.20905">
        <ele>926.37</ele>
        <time>2022-05-01T07:43:51Z</time>
      </trkpt>
      <trkpt lat="41.74988" lon="9.20921">
        <ele>926.85</ele>
        <time>2022-05-01T07:44:08Z</time>
      </trkpt>
      <trkpt lat="41.74978" lon="9.20931">
        <ele>928.29</ele>
        <time>2022-05-01T07:44:23Z</time>
      </trkpt>
      <trkpt lat="41.7497" lon="9.20939">
        <ele>928.29</ele>
        <time>2022-05-01T07:44:52Z</time>
      </trkpt>
      <trkpt lat="41.74959" lon="9.20953">
        <ele>928.29</ele>
        <time>2022-05-01T07:45:10Z</time>
      </trkpt>
      <trkpt lat="41.74945" lon="9.20975">
        <ele>929.73</ele>
        <time>2022-05-01T07:45:27Z</time>
      </trkpt>
      <trkpt lat="41.74933" lon="9.20991">
        <ele>930.69</ele>
        <time>2022-05-01T07:45:43Z</time>
      </trkpt>
      <trkpt lat="41.74922" lon="9.21002">
        <ele>932.62</ele>
        <time>2022-05-01T07:45:59Z</time>
      </trkpt>
      <trkpt lat="41.74919" lon="9.21015">
        <ele>932.14</ele>
        <time>2022-05-01T07:46:08Z</time>
      </trkpt>
      <trkpt lat="41.74917" lon="9.21027">
        <ele>932.62</ele>
        <time>2022-05-01T07:46:24Z</time>
      </trkpt>
      <trkpt lat="41.7492" lon="9.21033">
        <ele>932.14</ele>
        <time>2022-05-01T07:46:30Z</time>
      </trkpt>
      <trkpt lat="41.74926" lon="9.21046">
        <ele>932.62</ele>
        <time>2022-05-01T07:46:41Z</time>
      </trkpt>
      <trkpt lat="41.74936" lon="9.21065">
        <ele>933.1</ele>
        <time>2022-05-01T07:46:56Z</time>
      </trkpt>
      <trkpt lat="41.74957" lon="9.21101">
        <ele>933.58</ele>
        <time>2022-05-01T07:47:16Z</time>
      </trkpt>
      <trkpt lat="41.74964" lon="9.21125">
        <ele>934.06</ele>
        <time>2022-05-01T07:47:37Z</time>
      </trkpt>
      <trkpt lat="41.74966" lon="9.21147">
        <ele>935.02</ele>
        <time>2022-05-01T07:47:54Z</time>
      </trkpt>
      <trkpt lat="41.74954" lon="9.21169">
        <ele>935.02</ele>
        <time>2022-05-01T07:48:10Z</time>
      </trkpt>
      <trkpt lat="41.74947" lon="9.21175">
        <ele>935.98</ele>
        <time>2022-05-01T07:48:17Z</time>
      </trkpt>
      <trkpt lat="41.74927" lon="9.21174">
        <ele>935.5</ele>
        <time>2022-05-01T07:48:34Z</time>
      </trkpt>
      <trkpt lat="41.74907" lon="9.21175">
        <ele>935.98</ele>
        <time>2022-05-01T07:48:54Z</time>
      </trkpt>
      <trkpt lat="41.74883" lon="9.21195">
        <ele>935.98</ele>
        <time>2022-05-01T07:49:13Z</time>
      </trkpt>
      <trkpt lat="41.7488" lon="9.212">
        <ele>936.46</ele>
        <time>2022-05-01T07:49:15Z</time>
      </trkpt>
      <trkpt lat="41.74877" lon="9.21227">
        <ele>936.94</ele>
        <time>2022-05-01T07:49:37Z</time>
      </trkpt>
      <trkpt lat="41.74863" lon="9.21243">
        <ele>937.9</ele>
        <time>2022-05-01T07:49:53Z</time>
      </trkpt>
      <trkpt lat="41.74848" lon="9.2125">
        <ele>938.86</ele>
        <time>2022-05-01T07:50:04Z</time>
      </trkpt>
      <trkpt lat="41.74846" lon="9.2125">
        <ele>937.9</ele>
        <time>2022-05-01T07:50:06Z</time>
      </trkpt>
      <trkpt lat="41.74821" lon="9.2125">
        <ele>938.38</ele>
        <time>2022-05-01T07:50:23Z</time>
      </trkpt>
      <trkpt lat="41.74801" lon="9.21242">
        <ele>938.86</ele>
        <time>2022-05-01T07:50:42Z</time>
      </trkpt>
      <trkpt lat="41.74786" lon="9.21239">
        <ele>939.35</ele>
        <time>2022-05-01T07:50:58Z</time>
      </trkpt>
      <trkpt lat="41.7476" lon="9.21226">
        <ele>940.31</ele>
        <time>2022-05-01T07:51:15Z</time>
      </trkpt>
      <trkpt lat="41.74736" lon="9.2122">
        <ele>940.79</ele>
        <time>2022-05-01T07:51:34Z</time>
      </trkpt>
      <trkpt lat="41.74709" lon="9.21208">
        <ele>941.27</ele>
        <time>2022-05-01T07:51:53Z</time>
      </trkpt>
      <trkpt lat="41.74693" lon="9.21204">
        <ele>941.75</ele>
        <time>2022-05-01T07:52:10Z</time>
      </trkpt>
      <trkpt lat="41.74664" lon="9.2119">
        <ele>942.23</ele>
        <time>2022-05-01T07:52:28Z</time>
      </trkpt>
      <trkpt lat="41.74646" lon="9.2119">
        <ele>942.71</ele>
        <time>2022-05-01T07:52:43Z</time>
      </trkpt>
      <trkpt lat="41.74625" lon="9.21213">
        <ele>943.19</ele>
        <time>2022-05-01T07:53:02Z</time>
      </trkpt>
      <trkpt lat="41.74603" lon="9.21238">
        <ele>943.67</ele>
        <time>2022-05-01T07:53:21Z</time>
      </trkpt>
      <trkpt lat="41.74586" lon="9.21252">
        <ele>944.63</ele>
        <time>2022-05-01T07:53:37Z</time>
      </trkpt>
      <trkpt lat="41.7457" lon="9.2127">
        <ele>945.11</ele>
        <time>2022-05-01T07:53:54Z</time>
      </trkpt>
      <trkpt lat="41.7455" lon="9.21281">
        <ele>947.04</ele>
        <time>2022-05-01T07:54:12Z</time>
      </trkpt>
      <trkpt lat="41.74529" lon="9.2127">
        <ele>947.52</ele>
        <time>2022-05-01T07:54:28Z</time>
      </trkpt>
      <trkpt lat="41.74508" lon="9.21251">
        <ele>948.48</ele>
        <time>2022-05-01T07:54:47Z</time>
      </trkpt>
      <trkpt lat="41.74479" lon="9.21224">
        <ele>948.96</ele>
        <time>2022-05-01T07:55:11Z</time>
      </trkpt>
      <trkpt lat="41.74469" lon="9.21213">
        <ele>949.44</ele>
        <time>2022-05-01T07:55:19Z</time>
      </trkpt>
      <trkpt lat="41.7445" lon="9.21201">
        <ele>949.92</ele>
        <time>2022-05-01T07:55:36Z</time>
      </trkpt>
      <trkpt lat="41.7443" lon="9.21194">
        <ele>949.92</ele>
        <time>2022-05-01T07:55:53Z</time>
      </trkpt>
      <trkpt lat="41.74408" lon="9.21204">
        <ele>949.92</ele>
        <time>2022-05-01T07:56:12Z</time>
      </trkpt>
      <trkpt lat="41.74381" lon="9.21207">
        <ele>950.88</ele>
        <time>2022-05-01T07:56:29Z</time>
      </trkpt>
      <trkpt lat="41.74369" lon="9.21222">
        <ele>949.92</ele>
        <time>2022-05-01T07:56:42Z</time>
      </trkpt>
      <trkpt lat="41.74367" lon="9.21247">
        <ele>950.4</ele>
        <time>2022-05-01T07:56:58Z</time>
      </trkpt>
      <trkpt lat="41.74367" lon="9.21274">
        <ele>950.4</ele>
        <time>2022-05-01T07:57:13Z</time>
      </trkpt>
      <trkpt lat="41.74367" lon="9.21283">
        <ele>950.88</ele>
        <time>2022-05-01T07:57:19Z</time>
      </trkpt>
      <trkpt lat="41.74357" lon="9.21307">
        <ele>951.84</ele>
        <time>2022-05-01T07:57:36Z</time>
      </trkpt>
      <trkpt lat="41.74336" lon="9.21322">
        <ele>952.32</ele>
        <time>2022-05-01T07:57:52Z</time>
      </trkpt>
      <trkpt lat="41.74317" lon="9.21331">
        <ele>953.28</ele>
        <time>2022-05-01T07:58:11Z</time>
      </trkpt>
      <trkpt lat="41.74305" lon="9.21342">
        <ele>953.77</ele>
        <time>2022-05-01T07:58:27Z</time>
      </trkpt>
      <trkpt lat="41.74276" lon="9.21346">
        <ele>954.73</ele>
        <time>2022-05-01T07:58:45Z</time>
      </trkpt>
      <trkpt lat="41.74256" lon="9.21359">
        <ele>953.77</ele>
        <time>2022-05-01T07:59:03Z</time>
      </trkpt>
      <trkpt lat="41.74244" lon="9.21361">
        <ele>954.73</ele>
        <time>2022-05-01T07:59:22Z</time>
      </trkpt>
      <trkpt lat="41.74224" lon="9.21373">
        <ele>955.69</ele>
        <time>2022-05-01T07:59:38Z</time>
      </trkpt>
      <trkpt lat="41.7421" lon="9.21379">
        <ele>955.69</ele>
        <time>2022-05-01T07:59:53Z</time>
      </trkpt>
      <trkpt lat="41.7419" lon="9.21387">
        <ele>956.65</ele>
        <time>2022-05-01T08:00:11Z</time>
      </trkpt>
      <trkpt lat="41.74182" lon="9.21385">
        <ele>957.13</ele>
        <time>2022-05-01T08:00:16Z</time>
      </trkpt>
      <trkpt lat="41.74161" lon="9.21379">
        <ele>957.61</ele>
        <time>2022-05-01T08:00:33Z</time>
      </trkpt>
      <trkpt lat="41.74143" lon="9.21364">
        <ele>957.13</ele>
        <time>2022-05-01T08:00:51Z</time>
      </trkpt>
      <trkpt lat="41.74122" lon="9.21345">
        <ele>957.61</ele>
        <time>2022-05-01T08:01:11Z</time>
      </trkpt>
      <trkpt lat="41.74101" lon="9.21333">
        <ele>957.13</ele>
        <time>2022-05-01T08:01:28Z</time>
      </trkpt>
      <trkpt lat="41.74098" lon="9.21332">
        <ele>957.13</ele>
        <time>2022-05-01T08:01:31Z</time>
      </trkpt>
      <trkpt lat="41.74077" lon="9.21323">
        <ele>958.09</ele>
        <time>2022-05-01T08:01:48Z</time>
      </trkpt>
      <trkpt lat="41.74057" lon="9.21315">
        <ele>959.05</ele>
        <time>2022-05-01T08:02:06Z</time>
      </trkpt>
      <trkpt lat="41.74038" lon="9.21307">
        <ele>958.57</ele>
        <time>2022-05-01T08:02:22Z</time>
      </trkpt>
      <trkpt lat="41.74018" lon="9.21292">
        <ele>959.05</ele>
        <time>2022-05-01T08:02:40Z</time>
      </trkpt>
      <trkpt lat="41.73997" lon="9.21265">
        <ele>959.53</ele>
        <time>2022-05-01T08:02:58Z</time>
      </trkpt>
      <trkpt lat="41.73979" lon="9.21255">
        <ele>960.01</ele>
        <time>2022-05-01T08:03:18Z</time>
      </trkpt>
      <trkpt lat="41.73965" lon="9.21255">
        <ele>961.46</ele>
        <time>2022-05-01T08:03:33Z</time>
      </trkpt>
      <trkpt lat="41.73932" lon="9.21261">
        <ele>961.46</ele>
        <time>2022-05-01T08:03:52Z</time>
      </trkpt>
      <trkpt lat="41.7391" lon="9.21261">
        <ele>961.46</ele>
        <time>2022-05-01T08:04:08Z</time>
      </trkpt>
      <trkpt lat="41.73903" lon="9.21258">
        <ele>960.49</ele>
        <time>2022-05-01T08:04:15Z</time>
      </trkpt>
      <trkpt lat="41.739" lon="9.21256">
        <ele>961.46</ele>
        <time>2022-05-01T08:04:17Z</time>
      </trkpt>
      <trkpt lat="41.73872" lon="9.21261">
        <ele>961.46</ele>
        <time>2022-05-01T08:04:37Z</time>
      </trkpt>
      <trkpt lat="41.73861" lon="9.21261">
        <ele>961.46</ele>
        <time>2022-05-01T08:04:45Z</time>
      </trkpt>
      <trkpt lat="41.73837" lon="9.21258">
        <ele>961.94</ele>
        <time>2022-05-01T08:05:03Z</time>
      </trkpt>
      <trkpt lat="41.73822" lon="9.21258">
        <ele>962.42</ele>
        <time>2022-05-01T08:05:15Z</time>
      </trkpt>
      <trkpt lat="41.738" lon="9.21256">
        <ele>962.42</ele>
        <time>2022-05-01T08:05:32Z</time>
      </trkpt>
      <trkpt lat="41.738" lon="9.21252">
        <ele>962.42</ele>
        <time>2022-05-01T08:05:49Z</time>
      </trkpt>
      <trkpt lat="41.73799" lon="9.21251">
        <ele>961.94</ele>
        <time>2022-05-01T08:06:06Z</time>
      </trkpt>
      <trkpt lat="41.73787" lon="9.21253">
        <ele>962.42</ele>
        <time>2022-05-01T08:06:14Z</time>
      </trkpt>
      <trkpt lat="41.73759" lon="9.21252">
        <ele>962.9</ele>
        <time>2022-05-01T08:06:33Z</time>
      </trkpt>
      <trkpt lat="41.73751" lon="9.21248">
        <ele>962.9</ele>
        <time>2022-05-01T08:06:39Z</time>
      </trkpt>
      <trkpt lat="41.73747" lon="9.21243">
        <ele>963.38</ele>
        <time>2022-05-01T08:06:56Z</time>
      </trkpt>
      <trkpt lat="41.73729" lon="9.21244">
        <ele>963.38</ele>
        <time>2022-05-01T08:07:11Z</time>
      </trkpt>
      <trkpt lat="41.73731" lon="9.2124">
        <ele>962.9</ele>
        <time>2022-05-01T08:07:27Z</time>
      </trkpt>
      <trkpt lat="41.73722" lon="9.21239">
        <ele>963.38</ele>
        <time>2022-05-01T08:07:45Z</time>
      </trkpt>
      <trkpt lat="41.73705" lon="9.21241">
        <ele>964.34</ele>
        <time>2022-05-01T08:08:01Z</time>
      </trkpt>
      <trkpt lat="41.73694" lon="9.21234">
        <ele>963.86</ele>
        <time>2022-05-01T08:08:18Z</time>
      </trkpt>
      <trkpt lat="41.73692" lon="9.21233">
        <ele>964.34</ele>
        <time>2022-05-01T08:08:20Z</time>
      </trkpt>
      <trkpt lat="41.73681" lon="9.21226">
        <ele>964.34</ele>
        <time>2022-05-01T08:08:30Z</time>
      </trkpt>
      <trkpt lat="41.73677" lon="9.21225">
        <ele>964.82</ele>
        <time>2022-05-01T08:08:48Z</time>
      </trkpt>
      <trkpt lat="41.73664" lon="9.21219">
        <ele>964.34</ele>
        <time>2022-05-01T08:09:10Z</time>
      </trkpt>
      <trkpt lat="41.73645" lon="9.21206">
        <ele>964.82</ele>
        <time>2022-05-01T08:09:27Z</time>
      </trkpt>
      <trkpt lat="41.7364" lon="9.21203">
        <ele>964.82</ele>
        <time>2022-05-01T08:09:31Z</time>
      </trkpt>
      <trkpt lat="41.73616" lon="9.21187">
        <ele>965.3</ele>
        <time>2022-05-01T08:09:52Z</time>
      </trkpt>
      <trkpt lat="41.73598" lon="9.21177">
        <ele>966.26</ele>
        <time>2022-05-01T08:10:08Z</time>
      </trkpt>
      <trkpt lat="41.73596" lon="9.21179">
        <ele>966.26</ele>
        <time>2022-05-01T08:10:25Z</time>
      </trkpt>
      <trkpt lat="41.7359" lon="9.21182">
        <ele>965.78</ele>
        <time>2022-05-01T08:10:45Z</time>
      </trkpt>
      <trkpt lat="41.73565" lon="9.21188">
        <ele>966.26</ele>
        <time>2022-05-01T08:11:05Z</time>
      </trkpt>
      <trkpt lat="41.73553" lon="9.21189">
        <ele>965.78</ele>
        <time>2022-05-01T08:11:19Z</time>
      </trkpt>
      <trkpt lat="41.73535" lon="9.21193">
        <ele>966.26</ele>
        <time>2022-05-01T08:11:35Z</time>
      </trkpt>
      <trkpt lat="41.73511" lon="9.21192">
        <ele>966.26</ele>
        <time>2022-05-01T08:11:57Z</time>
      </trkpt>
      <trkpt lat="41.73489" lon="9.21185">
        <ele>967.7</ele>
        <time>2022-05-01T08:12:16Z</time>
      </trkpt>
      <trkpt lat="41.73474" lon="9.21185">
        <ele>968.67</ele>
        <time>2022-05-01T08:12:32Z</time>
      </trkpt>
      <trkpt lat="41.73458" lon="9.21203">
        <ele>969.15</ele>
        <time>2022-05-01T08:12:49Z</time>
      </trkpt>
      <trkpt lat="41.73457" lon="9.21203">
        <ele>969.15</ele>
        <time>2022-05-01T08:12:50Z</time>
      </trkpt>
      <trkpt lat="41.73441" lon="9.21215">
        <ele>970.11</ele>
        <time>2022-05-01T08:13:07Z</time>
      </trkpt>
      <trkpt lat="41.73439" lon="9.21219">
        <ele>970.59</ele>
        <time>2022-05-01T08:13:25Z</time>
      </trkpt>
      <trkpt lat="41.73424" lon="9.21216">
        <ele>970.59</ele>
        <time>2022-05-01T08:13:41Z</time>
      </trkpt>
      <trkpt lat="41.73415" lon="9.21206">
        <ele>971.07</ele>
        <time>2022-05-01T08:13:59Z</time>
      </trkpt>
      <trkpt lat="41.73409" lon="9.212">
        <ele>971.55</ele>
        <time>2022-05-01T08:14:07Z</time>
      </trkpt>
      <trkpt lat="41.73395" lon="9.21189">
        <ele>972.51</ele>
        <time>2022-05-01T08:14:22Z</time>
      </trkpt>
      <trkpt lat="41.73382" lon="9.21186">
        <ele>974.43</ele>
        <time>2022-05-01T08:14:38Z</time>
      </trkpt>
      <trkpt lat="41.73364" lon="9.21189">
        <ele>975.39</ele>
        <time>2022-05-01T08:14:54Z</time>
      </trkpt>
      <trkpt lat="41.73345" lon="9.21191">
        <ele>975.88</ele>
        <time>2022-05-01T08:15:11Z</time>
      </trkpt>
      <trkpt lat="41.73328" lon="9.21193">
        <ele>975.39</ele>
        <time>2022-05-01T08:15:28Z</time>
      </trkpt>
      <trkpt lat="41.73329" lon="9.21194">
        <ele>975.39</ele>
        <time>2022-05-01T08:15:42Z</time>
      </trkpt>
      <trkpt lat="41.73329" lon="9.21196">
        <ele>975.39</ele>
        <time>2022-05-01T08:16:08Z</time>
      </trkpt>
      <trkpt lat="41.73318" lon="9.21213">
        <ele>975.39</ele>
        <time>2022-05-01T08:16:22Z</time>
      </trkpt>
      <trkpt lat="41.73318" lon="9.21216">
        <ele>975.39</ele>
        <time>2022-05-01T08:16:24Z</time>
      </trkpt>
      <trkpt lat="41.73318" lon="9.21231">
        <ele>974.43</ele>
        <time>2022-05-01T08:16:33Z</time>
      </trkpt>
      <trkpt lat="41.73308" lon="9.21257">
        <ele>971.55</ele>
        <time>2022-05-01T08:16:50Z</time>
      </trkpt>
      <trkpt lat="41.73292" lon="9.2127">
        <ele>969.63</ele>
        <time>2022-05-01T08:17:06Z</time>
      </trkpt>
      <trkpt lat="41.73278" lon="9.21271">
        <ele>967.7</ele>
        <time>2022-05-01T08:17:17Z</time>
      </trkpt>
      <trkpt lat="41.7326" lon="9.21265">
        <ele>966.26</ele>
        <time>2022-05-01T08:17:29Z</time>
      </trkpt>
      <trkpt lat="41.73253" lon="9.21264">
        <ele>965.78</ele>
        <time>2022-05-01T08:17:33Z</time>
      </trkpt>
      <trkpt lat="41.73241" lon="9.21234">
        <ele>965.3</ele>
        <time>2022-05-01T08:17:52Z</time>
      </trkpt>
      <trkpt lat="41.73241" lon="9.21205">
        <ele>963.86</ele>
        <time>2022-05-01T08:18:10Z</time>
      </trkpt>
      <trkpt lat="41.73225" lon="9.21178">
        <ele>963.38</ele>
        <time>2022-05-01T08:18:28Z</time>
      </trkpt>
      <trkpt lat="41.73208" lon="9.21156">
        <ele>963.38</ele>
        <time>2022-05-01T08:18:47Z</time>
      </trkpt>
      <trkpt lat="41.7319" lon="9.21127">
        <ele>963.38</ele>
        <time>2022-05-01T08:19:08Z</time>
      </trkpt>
      <trkpt lat="41.73172" lon="9.21107">
        <ele>963.86</ele>
        <time>2022-05-01T08:19:27Z</time>
      </trkpt>
      <trkpt lat="41.73158" lon="9.21086">
        <ele>963.86</ele>
        <time>2022-05-01T08:19:45Z</time>
      </trkpt>
      <trkpt lat="41.73137" lon="9.21076">
        <ele>962.9</ele>
        <time>2022-05-01T08:20:02Z</time>
      </trkpt>
      <trkpt lat="41.73116" lon="9.21078">
        <ele>962.9</ele>
        <time>2022-05-01T08:20:19Z</time>
      </trkpt>
      <trkpt lat="41.73096" lon="9.21078">
        <ele>962.9</ele>
        <time>2022-05-01T08:20:36Z</time>
      </trkpt>
      <trkpt lat="41.73075" lon="9.21081">
        <ele>962.42</ele>
        <time>2022-05-01T08:20:52Z</time>
      </trkpt>
      <trkpt lat="41.73051" lon="9.21078">
        <ele>959.53</ele>
        <time>2022-05-01T08:21:09Z</time>
      </trkpt>
      <trkpt lat="41.73047" lon="9.21077">
        <ele>959.53</ele>
        <time>2022-05-01T08:21:12Z</time>
      </trkpt>
      <trkpt lat="41.73037" lon="9.21061">
        <ele>957.61</ele>
        <time>2022-05-01T08:21:25Z</time>
      </trkpt>
      <trkpt lat="41.73044" lon="9.21032">
        <ele>957.61</ele>
        <time>2022-05-01T08:21:40Z</time>
      </trkpt>
      <trkpt lat="41.73056" lon="9.21011">
        <ele>958.09</ele>
        <time>2022-05-01T08:21:55Z</time>
      </trkpt>
      <trkpt lat="41.73064" lon="9.20996">
        <ele>958.57</ele>
        <time>2022-05-01T08:22:09Z</time>
      </trkpt>
      <trkpt lat="41.73074" lon="9.20982">
        <ele>959.05</ele>
        <time>2022-05-01T08:22:23Z</time>
      </trkpt>
      <trkpt lat="41.73079" lon="9.2097">
        <ele>959.53</ele>
        <time>2022-05-01T08:22:32Z</time>
      </trkpt>
      <trkpt lat="41.73094" lon="9.20948">
        <ele>960.01</ele>
        <time>2022-05-01T08:22:49Z</time>
      </trkpt>
      <trkpt lat="41.73097" lon="9.2094">
        <ele>960.49</ele>
        <time>2022-05-01T08:22:54Z</time>
      </trkpt>
      <trkpt lat="41.73106" lon="9.20917">
        <ele>961.46</ele>
        <time>2022-05-01T08:23:08Z</time>
      </trkpt>
      <trkpt lat="41.73105" lon="9.20892">
        <ele>960.98</ele>
        <time>2022-05-01T08:23:23Z</time>
      </trkpt>
      <trkpt lat="41.73108" lon="9.20866">
        <ele>960.98</ele>
        <time>2022-05-01T08:23:38Z</time>
      </trkpt>
      <trkpt lat="41.73122" lon="9.20854">
        <ele>961.46</ele>
        <time>2022-05-01T08:23:55Z</time>
      </trkpt>
      <trkpt lat="41.73138" lon="9.20839">
        <ele>962.42</ele>
        <time>2022-05-01T08:24:10Z</time>
      </trkpt>
      <trkpt lat="41.73143" lon="9.20838">
        <ele>961.46</ele>
        <time>2022-05-01T08:24:23Z</time>
      </trkpt>
      <trkpt lat="41.73146" lon="9.20828">
        <ele>961.94</ele>
        <time>2022-05-01T08:24:41Z</time>
      </trkpt>
      <trkpt lat="41.73144" lon="9.20808">
        <ele>961.94</ele>
        <time>2022-05-01T08:24:58Z</time>
      </trkpt>
      <trkpt lat="41.73147" lon="9.20814">
        <ele>961.94</ele>
        <time>2022-05-01T08:25:17Z</time>
      </trkpt>
      <trkpt lat="41.73142" lon="9.20791">
        <ele>962.9</ele>
        <time>2022-05-01T08:25:35Z</time>
      </trkpt>
      <trkpt lat="41.73142" lon="9.2079">
        <ele>962.42</ele>
        <time>2022-05-01T08:25:36Z</time>
      </trkpt>
      <trkpt lat="41.73141" lon="9.20788">
        <ele>961.46</ele>
        <time>2022-05-01T08:25:38Z</time>
      </trkpt>
      <trkpt lat="41.73141" lon="9.20774">
        <ele>961.46</ele>
        <time>2022-05-01T08:25:47Z</time>
      </trkpt>
      <trkpt lat="41.73137" lon="9.20756">
        <ele>960.49</ele>
        <time>2022-05-01T08:25:58Z</time>
      </trkpt>
      <trkpt lat="41.73128" lon="9.20739">
        <ele>961.94</ele>
        <time>2022-05-01T08:26:12Z</time>
      </trkpt>
      <trkpt lat="41.7311" lon="9.20728">
        <ele>964.82</ele>
        <time>2022-05-01T08:26:31Z</time>
      </trkpt>
      <trkpt lat="41.73089" lon="9.20715">
        <ele>965.78</ele>
        <time>2022-05-01T08:26:50Z</time>
      </trkpt>
      <trkpt lat="41.73072" lon="9.20705">
        <ele>967.7</ele>
        <time>2022-05-01T08:27:07Z</time>
      </trkpt>
      <trkpt lat="41.73067" lon="9.20703">
        <ele>967.7</ele>
        <time>2022-05-01T08:27:11Z</time>
      </trkpt>
      <trkpt lat="41.73049" lon="9.20697">
        <ele>969.15</ele>
        <time>2022-05-01T08:27:28Z</time>
      </trkpt>
      <trkpt lat="41.73033" lon="9.20696">
        <ele>969.63</ele>
        <time>2022-05-01T08:27:44Z</time>
      </trkpt>
      <trkpt lat="41.73012" lon="9.20698">
        <ele>971.55</ele>
        <time>2022-05-01T08:28:04Z</time>
      </trkpt>
      <trkpt lat="41.72983" lon="9.20686">
        <ele>973.47</ele>
        <time>2022-05-01T08:28:26Z</time>
      </trkpt>
      <trkpt lat="41.72962" lon="9.20682">
        <ele>974.43</ele>
        <time>2022-05-01T08:28:43Z</time>
      </trkpt>
      <trkpt lat="41.72941" lon="9.20682">
        <ele>976.36</ele>
        <time>2022-05-01T08:29:02Z</time>
      </trkpt>
      <trkpt lat="41.72919" lon="9.20698">
        <ele>977.8</ele>
        <time>2022-05-01T08:29:19Z</time>
      </trkpt>
      <trkpt lat="41.72905" lon="9.2072">
        <ele>980.2</ele>
        <time>2022-05-01T08:29:38Z</time>
      </trkpt>
      <trkpt lat="41.72897" lon="9.20748">
        <ele>981.64</ele>
        <time>2022-05-01T08:29:57Z</time>
      </trkpt>
      <trkpt lat="41.72892" lon="9.20766">
        <ele>983.57</ele>
        <time>2022-05-01T08:30:12Z</time>
      </trkpt>
      <trkpt lat="41.72891" lon="9.20785">
        <ele>984.05</ele>
        <time>2022-05-01T08:30:24Z</time>
      </trkpt>
      <trkpt lat="41.72892" lon="9.20805">
        <ele>985.49</ele>
        <time>2022-05-01T08:30:38Z</time>
      </trkpt>
      <trkpt lat="41.72897" lon="9.20823">
        <ele>987.41</ele>
        <time>2022-05-01T08:30:52Z</time>
      </trkpt>
      <trkpt lat="41.72885" lon="9.20841">
        <ele>987.89</ele>
        <time>2022-05-01T08:31:09Z</time>
      </trkpt>
      <trkpt lat="41.72882" lon="9.20841">
        <ele>988.85</ele>
        <time>2022-05-01T08:31:12Z</time>
      </trkpt>
      <trkpt lat="41.72862" lon="9.20838">
        <ele>989.33</ele>
        <time>2022-05-01T08:31:28Z</time>
      </trkpt>
      <trkpt lat="41.72838" lon="9.20828">
        <ele>990.3</ele>
        <time>2022-05-01T08:31:46Z</time>
      </trkpt>
      <trkpt lat="41.72818" lon="9.20822">
        <ele>992.22</ele>
        <time>2022-05-01T08:32:05Z</time>
      </trkpt>
      <trkpt lat="41.72803" lon="9.20823">
        <ele>993.66</ele>
        <time>2022-05-01T08:32:23Z</time>
      </trkpt>
      <trkpt lat="41.72782" lon="9.20831">
        <ele>995.1</ele>
        <time>2022-05-01T08:32:42Z</time>
      </trkpt>
      <trkpt lat="41.72767" lon="9.20837">
        <ele>997.02</ele>
        <time>2022-05-01T08:33:00Z</time>
      </trkpt>
      <trkpt lat="41.72749" lon="9.20835">
        <ele>998.95</ele>
        <time>2022-05-01T08:33:18Z</time>
      </trkpt>
      <trkpt lat="41.72727" lon="9.20831">
        <ele>1000.39</ele>
        <time>2022-05-01T08:33:37Z</time>
      </trkpt>
      <trkpt lat="41.72709" lon="9.20821">
        <ele>1001.83</ele>
        <time>2022-05-01T08:33:54Z</time>
      </trkpt>
      <trkpt lat="41.72692" lon="9.20816">
        <ele>1004.23</ele>
        <time>2022-05-01T08:34:14Z</time>
      </trkpt>
      <trkpt lat="41.72677" lon="9.2081">
        <ele>1005.2</ele>
        <time>2022-05-01T08:34:30Z</time>
      </trkpt>
      <trkpt lat="41.72663" lon="9.20798">
        <ele>1006.16</ele>
        <time>2022-05-01T08:34:46Z</time>
      </trkpt>
      <trkpt lat="41.72652" lon="9.2079">
        <ele>1006.64</ele>
        <time>2022-05-01T08:35:01Z</time>
      </trkpt>
      <trkpt lat="41.72632" lon="9.20782">
        <ele>1009.04</ele>
        <time>2022-05-01T08:35:20Z</time>
      </trkpt>
      <trkpt lat="41.72617" lon="9.20765">
        <ele>1010.48</ele>
        <time>2022-05-01T08:35:38Z</time>
      </trkpt>
      <trkpt lat="41.72603" lon="9.20746">
        <ele>1011.93</ele>
        <time>2022-05-01T08:35:57Z</time>
      </trkpt>
      <trkpt lat="41.7259" lon="9.20725">
        <ele>1013.85</ele>
        <time>2022-05-01T08:36:17Z</time>
      </trkpt>
      <trkpt lat="41.72576" lon="9.2071">
        <ele>1014.81</ele>
        <time>2022-05-01T08:36:35Z</time>
      </trkpt>
      <trkpt lat="41.72578" lon="9.20711">
        <ele>1015.29</ele>
        <time>2022-05-01T08:36:51Z</time>
      </trkpt>
      <trkpt lat="41.72559" lon="9.20703">
        <ele>1016.25</ele>
        <time>2022-05-01T08:37:16Z</time>
      </trkpt>
      <trkpt lat="41.72543" lon="9.20693">
        <ele>1016.73</ele>
        <time>2022-05-01T08:37:31Z</time>
      </trkpt>
      <trkpt lat="41.72537" lon="9.20694">
        <ele>1017.21</ele>
        <time>2022-05-01T08:37:36Z</time>
      </trkpt>
      <trkpt lat="41.72527" lon="9.20703">
        <ele>1018.17</ele>
        <time>2022-05-01T08:37:50Z</time>
      </trkpt>
      <trkpt lat="41.72541" lon="9.20725">
        <ele>1019.13</ele>
        <time>2022-05-01T08:38:08Z</time>
      </trkpt>
      <trkpt lat="41.72561" lon="9.20733">
        <ele>1020.58</ele>
        <time>2022-05-01T08:38:24Z</time>
      </trkpt>
      <trkpt lat="41.72579" lon="9.20744">
        <ele>1021.06</ele>
        <time>2022-05-01T08:38:43Z</time>
      </trkpt>
      <trkpt lat="41.7259" lon="9.20762">
        <ele>1022.02</ele>
        <time>2022-05-01T08:38:59Z</time>
      </trkpt>
      <trkpt lat="41.72604" lon="9.20782">
        <ele>1022.5</ele>
        <time>2022-05-01T08:39:17Z</time>
      </trkpt>
      <trkpt lat="41.72607" lon="9.20791">
        <ele>1022.98</ele>
        <time>2022-05-01T08:39:48Z</time>
      </trkpt>
      <trkpt lat="41.72618" lon="9.20815">
        <ele>1023.46</ele>
        <time>2022-05-01T08:40:05Z</time>
      </trkpt>
      <trkpt lat="41.72628" lon="9.20829">
        <ele>1024.42</ele>
        <time>2022-05-01T08:40:18Z</time>
      </trkpt>
      <trkpt lat="41.72645" lon="9.20847">
        <ele>1026.83</ele>
        <time>2022-05-01T08:40:37Z</time>
      </trkpt>
      <trkpt lat="41.72661" lon="9.20864">
        <ele>1028.75</ele>
        <time>2022-05-01T08:40:55Z</time>
      </trkpt>
      <trkpt lat="41.72675" lon="9.2088">
        <ele>1030.19</ele>
        <time>2022-05-01T08:41:12Z</time>
      </trkpt>
      <trkpt lat="41.72691" lon="9.20896">
        <ele>1031.63</ele>
        <time>2022-05-01T08:41:29Z</time>
      </trkpt>
      <trkpt lat="41.72712" lon="9.2091">
        <ele>1032.59</ele>
        <time>2022-05-01T08:41:46Z</time>
      </trkpt>
      <trkpt lat="41.72729" lon="9.20922">
        <ele>1034.52</ele>
        <time>2022-05-01T08:42:03Z</time>
      </trkpt>
      <trkpt lat="41.7275" lon="9.20933">
        <ele>1035.48</ele>
        <time>2022-05-01T08:42:23Z</time>
      </trkpt>
      <trkpt lat="41.72776" lon="9.20942">
        <ele>1036.92</ele>
        <time>2022-05-01T08:42:43Z</time>
      </trkpt>
      <trkpt lat="41.72796" lon="9.20949">
        <ele>1038.84</ele>
        <time>2022-05-01T08:42:59Z</time>
      </trkpt>
      <trkpt lat="41.72817" lon="9.20962">
        <ele>1041.25</ele>
        <time>2022-05-01T08:43:18Z</time>
      </trkpt>
      <trkpt lat="41.72831" lon="9.20978">
        <ele>1042.69</ele>
        <time>2022-05-01T08:43:36Z</time>
      </trkpt>
      <trkpt lat="41.72831" lon="9.20976">
        <ele>1042.21</ele>
        <time>2022-05-01T08:43:49Z</time>
      </trkpt>
      <trkpt lat="41.72833" lon="9.20977">
        <ele>1042.21</ele>
        <time>2022-05-01T08:44:10Z</time>
      </trkpt>
      <trkpt lat="41.72831" lon="9.20977">
        <ele>1042.21</ele>
        <time>2022-05-01T08:44:32Z</time>
      </trkpt>
      <trkpt lat="41.72828" lon="9.20977">
        <ele>1041.73</ele>
        <time>2022-05-01T08:44:50Z</time>
      </trkpt>
      <trkpt lat="41.72822" lon="9.20997">
        <ele>1042.69</ele>
        <time>2022-05-01T08:45:11Z</time>
      </trkpt>
      <trkpt lat="41.72817" lon="9.21002">
        <ele>1043.17</ele>
        <time>2022-05-01T08:45:17Z</time>
      </trkpt>
      <trkpt lat="41.72805" lon="9.21013">
        <ele>1044.13</ele>
        <time>2022-05-01T08:45:31Z</time>
      </trkpt>
      <trkpt lat="41.72802" lon="9.21015">
        <ele>1044.13</ele>
        <time>2022-05-01T08:45:34Z</time>
      </trkpt>
      <trkpt lat="41.7279" lon="9.21026">
        <ele>1046.05</ele>
        <time>2022-05-01T08:45:49Z</time>
      </trkpt>
      <trkpt lat="41.72778" lon="9.21038">
        <ele>1047.01</ele>
        <time>2022-05-01T08:46:04Z</time>
      </trkpt>
      <trkpt lat="41.72775" lon="9.21038">
        <ele>1047.01</ele>
        <time>2022-05-01T08:46:27Z</time>
      </trkpt>
      <trkpt lat="41.72759" lon="9.21054">
        <ele>1047.49</ele>
        <time>2022-05-01T08:46:42Z</time>
      </trkpt>
      <trkpt lat="41.7274" lon="9.21073">
        <ele>1047.97</ele>
        <time>2022-05-01T08:47:01Z</time>
      </trkpt>
      <trkpt lat="41.72724" lon="9.21092">
        <ele>1048.94</ele>
        <time>2022-05-01T08:47:21Z</time>
      </trkpt>
      <trkpt lat="41.72714" lon="9.21118">
        <ele>1051.82</ele>
        <time>2022-05-01T08:47:40Z</time>
      </trkpt>
      <trkpt lat="41.72705" lon="9.21131">
        <ele>1050.86</ele>
        <time>2022-05-01T08:47:55Z</time>
      </trkpt>
      <trkpt lat="41.72688" lon="9.21134">
        <ele>1052.3</ele>
        <time>2022-05-01T08:48:08Z</time>
      </trkpt>
      <trkpt lat="41.72676" lon="9.21142">
        <ele>1054.22</ele>
        <time>2022-05-01T08:48:25Z</time>
      </trkpt>
      <trkpt lat="41.72658" lon="9.21171">
        <ele>1055.18</ele>
        <time>2022-05-01T08:48:46Z</time>
      </trkpt>
      <trkpt lat="41.72652" lon="9.21188">
        <ele>1055.18</ele>
        <time>2022-05-01T08:48:58Z</time>
      </trkpt>
      <trkpt lat="41.7265" lon="9.21214">
        <ele>1056.15</ele>
        <time>2022-05-01T08:49:14Z</time>
      </trkpt>
      <trkpt lat="41.72665" lon="9.21228">
        <ele>1057.59</ele>
        <time>2022-05-01T08:49:30Z</time>
      </trkpt>
      <trkpt lat="41.72683" lon="9.21237">
        <ele>1058.07</ele>
        <time>2022-05-01T08:49:46Z</time>
      </trkpt>
      <trkpt lat="41.72704" lon="9.21249">
        <ele>1058.55</ele>
        <time>2022-05-01T08:50:05Z</time>
      </trkpt>
      <trkpt lat="41.72718" lon="9.21252">
        <ele>1059.51</ele>
        <time>2022-05-01T08:50:18Z</time>
      </trkpt>
      <trkpt lat="41.7274" lon="9.21258">
        <ele>1059.99</ele>
        <time>2022-05-01T08:50:36Z</time>
      </trkpt>
      <trkpt lat="41.72751" lon="9.21263">
        <ele>1060.47</ele>
        <time>2022-05-01T08:50:44Z</time>
      </trkpt>
      <trkpt lat="41.72771" lon="9.2129">
        <ele>1059.99</ele>
        <time>2022-05-01T08:51:05Z</time>
      </trkpt>
      <trkpt lat="41.72784" lon="9.21309">
        <ele>1060.47</ele>
        <time>2022-05-01T08:51:21Z</time>
      </trkpt>
      <trkpt lat="41.72801" lon="9.21315">
        <ele>1061.43</ele>
        <time>2022-05-01T08:51:36Z</time>
      </trkpt>
      <trkpt lat="41.72815" lon="9.21319">
        <ele>1062.87</ele>
        <time>2022-05-01T08:51:50Z</time>
      </trkpt>
      <trkpt lat="41.72834" lon="9.21325">
        <ele>1064.32</ele>
        <time>2022-05-01T08:52:08Z</time>
      </trkpt>
      <trkpt lat="41.72859" lon="9.21333">
        <ele>1066.24</ele>
        <time>2022-05-01T08:52:27Z</time>
      </trkpt>
      <trkpt lat="41.72881" lon="9.21341">
        <ele>1068.64</ele>
        <time>2022-05-01T08:52:47Z</time>
      </trkpt>
      <trkpt lat="41.72904" lon="9.21352">
        <ele>1070.08</ele>
        <time>2022-05-01T08:53:08Z</time>
      </trkpt>
      <trkpt lat="41.72927" lon="9.21363">
        <ele>1072.97</ele>
        <time>2022-05-01T08:53:28Z</time>
      </trkpt>
      <trkpt lat="41.72939" lon="9.21376">
        <ele>1074.41</ele>
        <time>2022-05-01T08:53:41Z</time>
      </trkpt>
      <trkpt lat="41.72956" lon="9.21399">
        <ele>1074.89</ele>
        <time>2022-05-01T08:53:58Z</time>
      </trkpt>
      <trkpt lat="41.72971" lon="9.21426">
        <ele>1075.85</ele>
        <time>2022-05-01T08:54:19Z</time>
      </trkpt>
      <trkpt lat="41.72991" lon="9.21443">
        <ele>1078.26</ele>
        <time>2022-05-01T08:54:37Z</time>
      </trkpt>
      <trkpt lat="41.73004" lon="9.21465">
        <ele>1079.22</ele>
        <time>2022-05-01T08:54:54Z</time>
      </trkpt>
      <trkpt lat="41.73009" lon="9.21486">
        <ele>1080.18</ele>
        <time>2022-05-01T08:55:09Z</time>
      </trkpt>
      <trkpt lat="41.73013" lon="9.21504">
        <ele>1080.66</ele>
        <time>2022-05-01T08:55:19Z</time>
      </trkpt>
      <trkpt lat="41.73013" lon="9.21508">
        <ele>1080.66</ele>
        <time>2022-05-01T08:55:21Z</time>
      </trkpt>
      <trkpt lat="41.73016" lon="9.21526">
        <ele>1081.62</ele>
        <time>2022-05-01T08:55:33Z</time>
      </trkpt>
      <trkpt lat="41.73019" lon="9.21531">
        <ele>1082.58</ele>
        <time>2022-05-01T08:55:37Z</time>
      </trkpt>
      <trkpt lat="41.7302" lon="9.21549">
        <ele>1083.06</ele>
        <time>2022-05-01T08:55:47Z</time>
      </trkpt>
      <trkpt lat="41.73024" lon="9.21574">
        <ele>1084.02</ele>
        <time>2022-05-01T08:56:03Z</time>
      </trkpt>
      <trkpt lat="41.73023" lon="9.21581">
        <ele>1084.5</ele>
        <time>2022-05-01T08:56:08Z</time>
      </trkpt>
      <trkpt lat="41.73024" lon="9.21594">
        <ele>1084.99</ele>
        <time>2022-05-01T08:56:22Z</time>
      </trkpt>
      <trkpt lat="41.73023" lon="9.21597">
        <ele>1086.91</ele>
        <time>2022-05-01T08:56:25Z</time>
      </trkpt>
      <trkpt lat="41.73023" lon="9.2161">
        <ele>1087.39</ele>
        <time>2022-05-01T08:56:37Z</time>
      </trkpt>
      <trkpt lat="41.73023" lon="9.21611">
        <ele>1086.43</ele>
        <time>2022-05-01T08:56:38Z</time>
      </trkpt>
      <trkpt lat="41.73025" lon="9.21622">
        <ele>1087.87</ele>
        <time>2022-05-01T08:56:49Z</time>
      </trkpt>
      <trkpt lat="41.73022" lon="9.21624">
        <ele>1089.31</ele>
        <time>2022-05-01T08:57:01Z</time>
      </trkpt>
      <trkpt lat="41.73022" lon="9.21633">
        <ele>1089.79</ele>
        <time>2022-05-01T08:57:11Z</time>
      </trkpt>
      <trkpt lat="41.73017" lon="9.21642">
        <ele>1092.2</ele>
        <time>2022-05-01T08:57:26Z</time>
      </trkpt>
      <trkpt lat="41.73018" lon="9.21654">
        <ele>1093.64</ele>
        <time>2022-05-01T08:57:52Z</time>
      </trkpt>
      <trkpt lat="41.73019" lon="9.21663">
        <ele>1094.12</ele>
        <time>2022-05-01T08:58:10Z</time>
      </trkpt>
      <trkpt lat="41.73015" lon="9.21669">
        <ele>1097</ele>
        <time>2022-05-01T08:58:27Z</time>
      </trkpt>
      <trkpt lat="41.73011" lon="9.21673">
        <ele>1097.48</ele>
        <time>2022-05-01T08:58:41Z</time>
      </trkpt>
      <trkpt lat="41.73007" lon="9.21677">
        <ele>1100.37</ele>
        <time>2022-05-01T08:58:50Z</time>
      </trkpt>
      <trkpt lat="41.73005" lon="9.21671">
        <ele>1100.85</ele>
        <time>2022-05-01T08:59:07Z</time>
      </trkpt>
      <trkpt lat="41.73002" lon="9.21673">
        <ele>1101.33</ele>
        <time>2022-05-01T08:59:25Z</time>
      </trkpt>
      <trkpt lat="41.72997" lon="9.21673">
        <ele>1104.21</ele>
        <time>2022-05-01T08:59:39Z</time>
      </trkpt>
      <trkpt lat="41.72987" lon="9.21668">
        <ele>1107.58</ele>
        <time>2022-05-01T09:00:00Z</time>
      </trkpt>
      <trkpt lat="41.7298" lon="9.21662">
        <ele>1110.46</ele>
        <time>2022-05-01T09:00:18Z</time>
      </trkpt>
      <trkpt lat="41.72968" lon="9.21656">
        <ele>1113.82</ele>
        <time>2022-05-01T09:00:38Z</time>
      </trkpt>
      <trkpt lat="41.72965" lon="9.21663">
        <ele>1115.75</ele>
        <time>2022-05-01T09:00:54Z</time>
      </trkpt>
      <trkpt lat="41.72964" lon="9.21655">
        <ele>1118.63</ele>
        <time>2022-05-01T09:01:11Z</time>
      </trkpt>
      <trkpt lat="41.72958" lon="9.21666">
        <ele>1118.63</ele>
        <time>2022-05-01T09:01:31Z</time>
      </trkpt>
      <trkpt lat="41.72966" lon="9.21679">
        <ele>1119.11</ele>
        <time>2022-05-01T09:02:00Z</time>
      </trkpt>
      <trkpt lat="41.72967" lon="9.21697">
        <ele>1120.07</ele>
        <time>2022-05-01T09:02:16Z</time>
      </trkpt>
      <trkpt lat="41.72967" lon="9.21706">
        <ele>1121.03</ele>
        <time>2022-05-01T09:02:26Z</time>
      </trkpt>
      <trkpt lat="41.72976" lon="9.21725">
        <ele>1122</ele>
        <time>2022-05-01T09:02:39Z</time>
      </trkpt>
      <trkpt lat="41.72984" lon="9.21741">
        <ele>1122.96</ele>
        <time>2022-05-01T09:02:55Z</time>
      </trkpt>
      <trkpt lat="41.72992" lon="9.21755">
        <ele>1124.4</ele>
        <time>2022-05-01T09:03:12Z</time>
      </trkpt>
      <trkpt lat="41.72996" lon="9.21758">
        <ele>1124.4</ele>
        <time>2022-05-01T09:03:26Z</time>
      </trkpt>
      <trkpt lat="41.72996" lon="9.21776">
        <ele>1125.84</ele>
        <time>2022-05-01T09:03:44Z</time>
      </trkpt>
      <trkpt lat="41.72998" lon="9.21779">
        <ele>1125.84</ele>
        <time>2022-05-01T09:04:00Z</time>
      </trkpt>
      <trkpt lat="41.72997" lon="9.2178">
        <ele>1126.32</ele>
        <time>2022-05-01T09:04:22Z</time>
      </trkpt>
      <trkpt lat="41.72999" lon="9.21778">
        <ele>1124.88</ele>
        <time>2022-05-01T09:04:37Z</time>
      </trkpt>
      <trkpt lat="41.73" lon="9.21778">
        <ele>1124.88</ele>
        <time>2022-05-01T09:05:04Z</time>
      </trkpt>
      <trkpt lat="41.72999" lon="9.2178">
        <ele>1124.88</ele>
        <time>2022-05-01T09:05:38Z</time>
      </trkpt>
      <trkpt lat="41.72999" lon="9.21779">
        <ele>1125.36</ele>
        <time>2022-05-01T09:06:05Z</time>
      </trkpt>
      <trkpt lat="41.73001" lon="9.21777">
        <ele>1125.36</ele>
        <time>2022-05-01T09:06:41Z</time>
      </trkpt>
      <trkpt lat="41.72997" lon="9.2178">
        <ele>1125.84</ele>
        <time>2022-05-01T09:07:04Z</time>
      </trkpt>
      <trkpt lat="41.72996" lon="9.21776">
        <ele>1126.8</ele>
        <time>2022-05-01T09:07:14Z</time>
      </trkpt>
      <trkpt lat="41.72997" lon="9.21777">
        <ele>1127.28</ele>
        <time>2022-05-01T09:07:31Z</time>
      </trkpt>
      <trkpt lat="41.72989" lon="9.2179">
        <ele>1127.76</ele>
        <time>2022-05-01T09:07:47Z</time>
      </trkpt>
      <trkpt lat="41.72985" lon="9.218">
        <ele>1128.73</ele>
        <time>2022-05-01T09:07:55Z</time>
      </trkpt>
      <trkpt lat="41.72976" lon="9.21817">
        <ele>1129.69</ele>
        <time>2022-05-01T09:08:10Z</time>
      </trkpt>
      <trkpt lat="41.72973" lon="9.2182">
        <ele>1130.17</ele>
        <time>2022-05-01T09:08:25Z</time>
      </trkpt>
      <trkpt lat="41.72959" lon="9.21829">
        <ele>1131.13</ele>
        <time>2022-05-01T09:08:44Z</time>
      </trkpt>
      <trkpt lat="41.72941" lon="9.21835">
        <ele>1131.13</ele>
        <time>2022-05-01T09:09:03Z</time>
      </trkpt>
      <trkpt lat="41.72932" lon="9.21835">
        <ele>1132.09</ele>
        <time>2022-05-01T09:09:27Z</time>
      </trkpt>
      <trkpt lat="41.72933" lon="9.21836">
        <ele>1133.05</ele>
        <time>2022-05-01T09:09:45Z</time>
      </trkpt>
      <trkpt lat="41.7293" lon="9.2183">
        <ele>1132.57</ele>
        <time>2022-05-01T09:10:03Z</time>
      </trkpt>
      <trkpt lat="41.72917" lon="9.21856">
        <ele>1133.05</ele>
        <time>2022-05-01T09:10:20Z</time>
      </trkpt>
      <trkpt lat="41.72906" lon="9.21866">
        <ele>1134.49</ele>
        <time>2022-05-01T09:10:36Z</time>
      </trkpt>
      <trkpt lat="41.72894" lon="9.21876">
        <ele>1135.45</ele>
        <time>2022-05-01T09:10:51Z</time>
      </trkpt>
      <trkpt lat="41.72885" lon="9.21894">
        <ele>1135.94</ele>
        <time>2022-05-01T09:11:08Z</time>
      </trkpt>
      <trkpt lat="41.7289" lon="9.21919">
        <ele>1137.38</ele>
        <time>2022-05-01T09:11:23Z</time>
      </trkpt>
      <trkpt lat="41.72899" lon="9.21938">
        <ele>1138.82</ele>
        <time>2022-05-01T09:11:40Z</time>
      </trkpt>
      <trkpt lat="41.72909" lon="9.21952">
        <ele>1141.22</ele>
        <time>2022-05-01T09:11:57Z</time>
      </trkpt>
      <trkpt lat="41.72925" lon="9.21965">
        <ele>1141.7</ele>
        <time>2022-05-01T09:12:14Z</time>
      </trkpt>
      <trkpt lat="41.72935" lon="9.21981">
        <ele>1143.14</ele>
        <time>2022-05-01T09:12:30Z</time>
      </trkpt>
      <trkpt lat="41.72955" lon="9.22003">
        <ele>1143.14</ele>
        <time>2022-05-01T09:12:47Z</time>
      </trkpt>
      <trkpt lat="41.72965" lon="9.22022">
        <ele>1144.11</ele>
        <time>2022-05-01T09:13:01Z</time>
      </trkpt>
      <trkpt lat="41.72944" lon="9.22023">
        <ele>1145.55</ele>
        <time>2022-05-01T09:13:16Z</time>
      </trkpt>
      <trkpt lat="41.72935" lon="9.2201">
        <ele>1146.51</ele>
        <time>2022-05-01T09:13:27Z</time>
      </trkpt>
      <trkpt lat="41.72924" lon="9.21998">
        <ele>1147.95</ele>
        <time>2022-05-01T09:13:41Z</time>
      </trkpt>
      <trkpt lat="41.72912" lon="9.21989">
        <ele>1149.39</ele>
        <time>2022-05-01T09:13:56Z</time>
      </trkpt>
      <trkpt lat="41.72906" lon="9.21987">
        <ele>1150.35</ele>
        <time>2022-05-01T09:14:03Z</time>
      </trkpt>
      <trkpt lat="41.72895" lon="9.21987">
        <ele>1151.32</ele>
        <time>2022-05-01T09:14:14Z</time>
      </trkpt>
      <trkpt lat="41.72882" lon="9.22">
        <ele>1151.8</ele>
        <time>2022-05-01T09:14:29Z</time>
      </trkpt>
      <trkpt lat="41.72874" lon="9.22017">
        <ele>1153.72</ele>
        <time>2022-05-01T09:14:44Z</time>
      </trkpt>
      <trkpt lat="41.72851" lon="9.22009">
        <ele>1154.2</ele>
        <time>2022-05-01T09:15:01Z</time>
      </trkpt>
      <trkpt lat="41.72838" lon="9.22001">
        <ele>1155.64</ele>
        <time>2022-05-01T09:15:16Z</time>
      </trkpt>
      <trkpt lat="41.72819" lon="9.21996">
        <ele>1159.49</ele>
        <time>2022-05-01T09:15:33Z</time>
      </trkpt>
      <trkpt lat="41.72816" lon="9.22005">
        <ele>1158.05</ele>
        <time>2022-05-01T09:15:47Z</time>
      </trkpt>
      <trkpt lat="41.72817" lon="9.22018">
        <ele>1159.97</ele>
        <time>2022-05-01T09:16:00Z</time>
      </trkpt>
      <trkpt lat="41.72818" lon="9.22029">
        <ele>1161.89</ele>
        <time>2022-05-01T09:16:14Z</time>
      </trkpt>
      <trkpt lat="41.72826" lon="9.22042">
        <ele>1163.33</ele>
        <time>2022-05-01T09:16:29Z</time>
      </trkpt>
      <trkpt lat="41.72844" lon="9.22058">
        <ele>1163.81</ele>
        <time>2022-05-01T09:16:46Z</time>
      </trkpt>
      <trkpt lat="41.72838" lon="9.22066">
        <ele>1163.81</ele>
        <time>2022-05-01T09:17:04Z</time>
      </trkpt>
      <trkpt lat="41.72838" lon="9.22075">
        <ele>1164.29</ele>
        <time>2022-05-01T09:17:26Z</time>
      </trkpt>
      <trkpt lat="41.72857" lon="9.22087">
        <ele>1165.26</ele>
        <time>2022-05-01T09:17:44Z</time>
      </trkpt>
      <trkpt lat="41.72871" lon="9.22103">
        <ele>1166.7</ele>
        <time>2022-05-01T09:18:02Z</time>
      </trkpt>
      <trkpt lat="41.72887" lon="9.22114">
        <ele>1167.18</ele>
        <time>2022-05-01T09:18:22Z</time>
      </trkpt>
      <trkpt lat="41.72896" lon="9.22115">
        <ele>1167.18</ele>
        <time>2022-05-01T09:18:28Z</time>
      </trkpt>
      <trkpt lat="41.72908" lon="9.22118">
        <ele>1166.7</ele>
        <time>2022-05-01T09:18:41Z</time>
      </trkpt>
      <trkpt lat="41.72916" lon="9.22128">
        <ele>1168.62</ele>
        <time>2022-05-01T09:18:55Z</time>
      </trkpt>
      <trkpt lat="41.72927" lon="9.22145">
        <ele>1171.02</ele>
        <time>2022-05-01T09:19:11Z</time>
      </trkpt>
      <trkpt lat="41.72928" lon="9.22161">
        <ele>1171.02</ele>
        <time>2022-05-01T09:19:27Z</time>
      </trkpt>
      <trkpt lat="41.72924" lon="9.22181">
        <ele>1174.39</ele>
        <time>2022-05-01T09:19:45Z</time>
      </trkpt>
      <trkpt lat="41.72924" lon="9.22183">
        <ele>1174.39</ele>
        <time>2022-05-01T09:19:46Z</time>
      </trkpt>
      <trkpt lat="41.72917" lon="9.22201">
        <ele>1176.79</ele>
        <time>2022-05-01T09:20:03Z</time>
      </trkpt>
      <trkpt lat="41.72919" lon="9.22214">
        <ele>1177.75</ele>
        <time>2022-05-01T09:20:16Z</time>
      </trkpt>
      <trkpt lat="41.72912" lon="9.22219">
        <ele>1181.12</ele>
        <time>2022-05-01T09:20:30Z</time>
      </trkpt>
      <trkpt lat="41.72905" lon="9.22227">
        <ele>1183.52</ele>
        <time>2022-05-01T09:20:46Z</time>
      </trkpt>
      <trkpt lat="41.72905" lon="9.22246">
        <ele>1185.92</ele>
        <time>2022-05-01T09:21:01Z</time>
      </trkpt>
      <trkpt lat="41.72921" lon="9.22256">
        <ele>1184.96</ele>
        <time>2022-05-01T09:21:14Z</time>
      </trkpt>
      <trkpt lat="41.72928" lon="9.22268">
        <ele>1184</ele>
        <time>2022-05-01T09:21:25Z</time>
      </trkpt>
      <trkpt lat="41.72933" lon="9.22275">
        <ele>1183.52</ele>
        <time>2022-05-01T09:21:31Z</time>
      </trkpt>
      <trkpt lat="41.72936" lon="9.22281">
        <ele>1184</ele>
        <time>2022-05-01T09:21:37Z</time>
      </trkpt>
      <trkpt lat="41.72936" lon="9.22296">
        <ele>1184.96</ele>
        <time>2022-05-01T09:21:48Z</time>
      </trkpt>
      <trkpt lat="41.72935" lon="9.22306">
        <ele>1185.92</ele>
        <time>2022-05-01T09:21:58Z</time>
      </trkpt>
      <trkpt lat="41.72937" lon="9.22305">
        <ele>1186.4</ele>
        <time>2022-05-01T09:22:03Z</time>
      </trkpt>
      <trkpt lat="41.72942" lon="9.22307">
        <ele>1186.4</ele>
        <time>2022-05-01T09:22:09Z</time>
      </trkpt>
      <trkpt lat="41.72949" lon="9.2231">
        <ele>1187.85</ele>
        <time>2022-05-01T09:22:20Z</time>
      </trkpt>
      <trkpt lat="41.72955" lon="9.2231">
        <ele>1191.21</ele>
        <time>2022-05-01T09:22:30Z</time>
      </trkpt>
      <trkpt lat="41.72956" lon="9.2231">
        <ele>1191.21</ele>
        <time>2022-05-01T09:22:31Z</time>
      </trkpt>
      <trkpt lat="41.72967" lon="9.22321">
        <ele>1192.65</ele>
        <time>2022-05-01T09:22:48Z</time>
      </trkpt>
      <trkpt lat="41.7297" lon="9.22322">
        <ele>1193.13</ele>
        <time>2022-05-01T09:23:02Z</time>
      </trkpt>
      <trkpt lat="41.72969" lon="9.22324">
        <ele>1193.61</ele>
        <time>2022-05-01T09:23:20Z</time>
      </trkpt>
      <trkpt lat="41.7297" lon="9.22326">
        <ele>1193.13</ele>
        <time>2022-05-01T09:23:46Z</time>
      </trkpt>
      <trkpt lat="41.72965" lon="9.22319">
        <ele>1193.61</ele>
        <time>2022-05-01T09:24:06Z</time>
      </trkpt>
      <trkpt lat="41.72966" lon="9.2232">
        <ele>1193.13</ele>
        <time>2022-05-01T09:24:19Z</time>
      </trkpt>
      <trkpt lat="41.72966" lon="9.22317">
        <ele>1193.13</ele>
        <time>2022-05-01T09:24:48Z</time>
      </trkpt>
      <trkpt lat="41.72968" lon="9.22316">
        <ele>1193.61</ele>
        <time>2022-05-01T09:25:19Z</time>
      </trkpt>
      <trkpt lat="41.72967" lon="9.2232">
        <ele>1193.61</ele>
        <time>2022-05-01T09:25:44Z</time>
      </trkpt>
      <trkpt lat="41.72956" lon="9.22311">
        <ele>1192.17</ele>
        <time>2022-05-01T09:26:00Z</time>
      </trkpt>
      <trkpt lat="41.72948" lon="9.2231">
        <ele>1189.29</ele>
        <time>2022-05-01T09:26:12Z</time>
      </trkpt>
      <trkpt lat="41.72941" lon="9.22305">
        <ele>1186.88</ele>
        <time>2022-05-01T09:26:22Z</time>
      </trkpt>
      <trkpt lat="41.72931" lon="9.22303">
        <ele>1187.37</ele>
        <time>2022-05-01T09:26:37Z</time>
      </trkpt>
      <trkpt lat="41.72924" lon="9.22306">
        <ele>1188.81</ele>
        <time>2022-05-01T09:26:52Z</time>
      </trkpt>
      <trkpt lat="41.72918" lon="9.22307">
        <ele>1190.25</ele>
        <time>2022-05-01T09:27:12Z</time>
      </trkpt>
      <trkpt lat="41.72917" lon="9.22308">
        <ele>1190.73</ele>
        <time>2022-05-01T09:27:28Z</time>
      </trkpt>
      <trkpt lat="41.72911" lon="9.2231">
        <ele>1191.69</ele>
        <time>2022-05-01T09:27:48Z</time>
      </trkpt>
      <trkpt lat="41.729" lon="9.22309">
        <ele>1195.06</ele>
        <time>2022-05-01T09:28:05Z</time>
      </trkpt>
      <trkpt lat="41.72891" lon="9.22308">
        <ele>1197.46</ele>
        <time>2022-05-01T09:28:21Z</time>
      </trkpt>
      <trkpt lat="41.7288" lon="9.22315">
        <ele>1199.38</ele>
        <time>2022-05-01T09:28:38Z</time>
      </trkpt>
      <trkpt lat="41.72872" lon="9.22317">
        <ele>1201.3</ele>
        <time>2022-05-01T09:28:53Z</time>
      </trkpt>
      <trkpt lat="41.72862" lon="9.22318">
        <ele>1204.67</ele>
        <time>2022-05-01T09:29:10Z</time>
      </trkpt>
      <trkpt lat="41.72854" lon="9.2232">
        <ele>1207.55</ele>
        <time>2022-05-01T09:29:27Z</time>
      </trkpt>
      <trkpt lat="41.72851" lon="9.22322">
        <ele>1208.51</ele>
        <time>2022-05-01T09:29:39Z</time>
      </trkpt>
      <trkpt lat="41.7285" lon="9.22323">
        <ele>1209</ele>
        <time>2022-05-01T09:29:40Z</time>
      </trkpt>
      <trkpt lat="41.72848" lon="9.22326">
        <ele>1209.96</ele>
        <time>2022-05-01T09:29:52Z</time>
      </trkpt>
      <trkpt lat="41.72844" lon="9.22324">
        <ele>1210.92</ele>
        <time>2022-05-01T09:29:59Z</time>
      </trkpt>
      <trkpt lat="41.72837" lon="9.22321">
        <ele>1212.36</ele>
        <time>2022-05-01T09:30:11Z</time>
      </trkpt>
      <trkpt lat="41.72833" lon="9.22314">
        <ele>1213.32</ele>
        <time>2022-05-01T09:30:22Z</time>
      </trkpt>
      <trkpt lat="41.7283" lon="9.22313">
        <ele>1213.8</ele>
        <time>2022-05-01T09:30:27Z</time>
      </trkpt>
      <trkpt lat="41.72827" lon="9.22312">
        <ele>1215.24</ele>
        <time>2022-05-01T09:30:41Z</time>
      </trkpt>
      <trkpt lat="41.72824" lon="9.22314">
        <ele>1216.21</ele>
        <time>2022-05-01T09:30:47Z</time>
      </trkpt>
      <trkpt lat="41.72823" lon="9.22316">
        <ele>1216.69</ele>
        <time>2022-05-01T09:30:50Z</time>
      </trkpt>
      <trkpt lat="41.72823" lon="9.22318">
        <ele>1218.13</ele>
        <time>2022-05-01T09:30:55Z</time>
      </trkpt>
      <trkpt lat="41.72821" lon="9.2232">
        <ele>1219.57</ele>
        <time>2022-05-01T09:31:05Z</time>
      </trkpt>
      <trkpt lat="41.72819" lon="9.22319">
        <ele>1221.01</ele>
        <time>2022-05-01T09:31:18Z</time>
      </trkpt>
      <trkpt lat="41.72818" lon="9.22322">
        <ele>1222.45</ele>
        <time>2022-05-01T09:31:27Z</time>
      </trkpt>
      <trkpt lat="41.72813" lon="9.22324">
        <ele>1224.86</ele>
        <time>2022-05-01T09:31:39Z</time>
      </trkpt>
      <trkpt lat="41.72808" lon="9.22321">
        <ele>1225.82</ele>
        <time>2022-05-01T09:31:51Z</time>
      </trkpt>
      <trkpt lat="41.72807" lon="9.22326">
        <ele>1226.78</ele>
        <time>2022-05-01T09:31:58Z</time>
      </trkpt>
      <trkpt lat="41.72808" lon="9.2233">
        <ele>1228.7</ele>
        <time>2022-05-01T09:32:10Z</time>
      </trkpt>
      <trkpt lat="41.72807" lon="9.2233">
        <ele>1229.18</ele>
        <time>2022-05-01T09:32:13Z</time>
      </trkpt>
      <trkpt lat="41.72804" lon="9.22327">
        <ele>1230.14</ele>
        <time>2022-05-01T09:32:22Z</time>
      </trkpt>
      <trkpt lat="41.72801" lon="9.2233">
        <ele>1232.55</ele>
        <time>2022-05-01T09:32:34Z</time>
      </trkpt>
      <trkpt lat="41.72799" lon="9.22328">
        <ele>1232.55</ele>
        <time>2022-05-01T09:32:45Z</time>
      </trkpt>
      <trkpt lat="41.72798" lon="9.22328">
        <ele>1232.55</ele>
        <time>2022-05-01T09:32:46Z</time>
      </trkpt>
      <trkpt lat="41.7279" lon="9.22322">
        <ele>1233.99</ele>
        <time>2022-05-01T09:32:58Z</time>
      </trkpt>
      <trkpt lat="41.72788" lon="9.2232">
        <ele>1233.99</ele>
        <time>2022-05-01T09:33:04Z</time>
      </trkpt>
      <trkpt lat="41.72786" lon="9.22318">
        <ele>1234.47</ele>
        <time>2022-05-01T09:33:07Z</time>
      </trkpt>
      <trkpt lat="41.72778" lon="9.22315">
        <ele>1234.95</ele>
        <time>2022-05-01T09:33:16Z</time>
      </trkpt>
      <trkpt lat="41.72773" lon="9.22314">
        <ele>1235.43</ele>
        <time>2022-05-01T09:33:24Z</time>
      </trkpt>
      <trkpt lat="41.72769" lon="9.22318">
        <ele>1236.39</ele>
        <time>2022-05-01T09:33:35Z</time>
      </trkpt>
      <trkpt lat="41.72769" lon="9.22323">
        <ele>1238.32</ele>
        <time>2022-05-01T09:33:48Z</time>
      </trkpt>
      <trkpt lat="41.72767" lon="9.22324">
        <ele>1240.24</ele>
        <time>2022-05-01T09:33:58Z</time>
      </trkpt>
      <trkpt lat="41.7276" lon="9.22323">
        <ele>1242.16</ele>
        <time>2022-05-01T09:34:11Z</time>
      </trkpt>
      <trkpt lat="41.72756" lon="9.22328">
        <ele>1243.6</ele>
        <time>2022-05-01T09:34:22Z</time>
      </trkpt>
      <trkpt lat="41.72756" lon="9.22331">
        <ele>1245.04</ele>
        <time>2022-05-01T09:34:36Z</time>
      </trkpt>
      <trkpt lat="41.72757" lon="9.22332">
        <ele>1243.12</ele>
        <time>2022-05-01T09:34:39Z</time>
      </trkpt>
      <trkpt lat="41.72757" lon="9.22332">
        <ele>1244.56</ele>
        <time>2022-05-01T09:34:41Z</time>
      </trkpt>
      <trkpt lat="41.72757" lon="9.22331">
        <ele>1244.08</ele>
        <time>2022-05-01T09:35:08Z</time>
      </trkpt>
      <trkpt lat="41.72754" lon="9.22339">
        <ele>1246.01</ele>
        <time>2022-05-01T09:35:34Z</time>
      </trkpt>
      <trkpt lat="41.72744" lon="9.22339">
        <ele>1247.45</ele>
        <time>2022-05-01T09:35:49Z</time>
      </trkpt>
      <trkpt lat="41.72733" lon="9.2234">
        <ele>1250.81</ele>
        <time>2022-05-01T09:36:04Z</time>
      </trkpt>
      <trkpt lat="41.72732" lon="9.22342">
        <ele>1249.37</ele>
        <time>2022-05-01T09:36:16Z</time>
      </trkpt>
      <trkpt lat="41.72732" lon="9.22344">
        <ele>1250.33</ele>
        <time>2022-05-01T09:36:20Z</time>
      </trkpt>
      <trkpt lat="41.72733" lon="9.22347">
        <ele>1251.29</ele>
        <time>2022-05-01T09:36:30Z</time>
      </trkpt>
      <trkpt lat="41.72728" lon="9.2235">
        <ele>1253.22</ele>
        <time>2022-05-01T09:36:41Z</time>
      </trkpt>
      <trkpt lat="41.72721" lon="9.22356">
        <ele>1255.62</ele>
        <time>2022-05-01T09:36:56Z</time>
      </trkpt>
      <trkpt lat="41.72718" lon="9.22361">
        <ele>1257.54</ele>
        <time>2022-05-01T09:37:06Z</time>
      </trkpt>
      <trkpt lat="41.72715" lon="9.22361">
        <ele>1258.5</ele>
        <time>2022-05-01T09:37:19Z</time>
      </trkpt>
      <trkpt lat="41.72713" lon="9.22364">
        <ele>1260.43</ele>
        <time>2022-05-01T09:37:29Z</time>
      </trkpt>
      <trkpt lat="41.72711" lon="9.22366">
        <ele>1260.43</ele>
        <time>2022-05-01T09:37:31Z</time>
      </trkpt>
      <trkpt lat="41.72704" lon="9.22364">
        <ele>1262.35</ele>
        <time>2022-05-01T09:37:42Z</time>
      </trkpt>
      <trkpt lat="41.72699" lon="9.22363">
        <ele>1263.31</ele>
        <time>2022-05-01T09:37:53Z</time>
      </trkpt>
      <trkpt lat="41.72695" lon="9.22362">
        <ele>1265.23</ele>
        <time>2022-05-01T09:38:02Z</time>
      </trkpt>
      <trkpt lat="41.72692" lon="9.22364">
        <ele>1265.23</ele>
        <time>2022-05-01T09:38:14Z</time>
      </trkpt>
      <trkpt lat="41.72687" lon="9.22363">
        <ele>1267.64</ele>
        <time>2022-05-01T09:38:27Z</time>
      </trkpt>
      <trkpt lat="41.72682" lon="9.22365">
        <ele>1269.08</ele>
        <time>2022-05-01T09:38:39Z</time>
      </trkpt>
      <trkpt lat="41.72678" lon="9.22363">
        <ele>1270.52</ele>
        <time>2022-05-01T09:38:47Z</time>
      </trkpt>
      <trkpt lat="41.72677" lon="9.22371">
        <ele>1271.48</ele>
        <time>2022-05-01T09:38:57Z</time>
      </trkpt>
      <trkpt lat="41.72677" lon="9.22372">
        <ele>1272.44</ele>
        <time>2022-05-01T09:39:05Z</time>
      </trkpt>
      <trkpt lat="41.7267" lon="9.22371">
        <ele>1274.85</ele>
        <time>2022-05-01T09:39:18Z</time>
      </trkpt>
      <trkpt lat="41.72666" lon="9.22368">
        <ele>1275.33</ele>
        <time>2022-05-01T09:39:26Z</time>
      </trkpt>
      <trkpt lat="41.72662" lon="9.22366">
        <ele>1275.81</ele>
        <time>2022-05-01T09:39:32Z</time>
      </trkpt>
      <trkpt lat="41.7266" lon="9.22366">
        <ele>1276.29</ele>
        <time>2022-05-01T09:39:38Z</time>
      </trkpt>
      <trkpt lat="41.72659" lon="9.22367">
        <ele>1276.77</ele>
        <time>2022-05-01T09:39:41Z</time>
      </trkpt>
      <trkpt lat="41.72658" lon="9.22374">
        <ele>1278.21</ele>
        <time>2022-05-01T09:39:51Z</time>
      </trkpt>
      <trkpt lat="41.72653" lon="9.2237">
        <ele>1280.61</ele>
        <time>2022-05-01T09:40:03Z</time>
      </trkpt>
      <trkpt lat="41.72652" lon="9.22366">
        <ele>1281.57</ele>
        <time>2022-05-01T09:40:10Z</time>
      </trkpt>
      <trkpt lat="41.72648" lon="9.22365">
        <ele>1283.02</ele>
        <time>2022-05-01T09:40:21Z</time>
      </trkpt>
      <trkpt lat="41.72645" lon="9.22368">
        <ele>1284.94</ele>
        <time>2022-05-01T09:40:32Z</time>
      </trkpt>
      <trkpt lat="41.72641" lon="9.22373">
        <ele>1286.86</ele>
        <time>2022-05-01T09:40:46Z</time>
      </trkpt>
      <trkpt lat="41.72637" lon="9.22374">
        <ele>1288.78</ele>
        <time>2022-05-01T09:40:55Z</time>
      </trkpt>
      <trkpt lat="41.72631" lon="9.22375">
        <ele>1290.71</ele>
        <time>2022-05-01T09:41:06Z</time>
      </trkpt>
      <trkpt lat="41.7263" lon="9.22372">
        <ele>1292.15</ele>
        <time>2022-05-01T09:41:22Z</time>
      </trkpt>
      <trkpt lat="41.72627" lon="9.2238">
        <ele>1294.55</ele>
        <time>2022-05-01T09:41:36Z</time>
      </trkpt>
      <trkpt lat="41.72624" lon="9.2238">
        <ele>1295.51</ele>
        <time>2022-05-01T09:41:52Z</time>
      </trkpt>
      <trkpt lat="41.72622" lon="9.22372">
        <ele>1295.99</ele>
        <time>2022-05-01T09:42:06Z</time>
      </trkpt>
      <trkpt lat="41.72621" lon="9.22364">
        <ele>1296.96</ele>
        <time>2022-05-01T09:42:30Z</time>
      </trkpt>
      <trkpt lat="41.72617" lon="9.2237">
        <ele>1299.84</ele>
        <time>2022-05-01T09:42:48Z</time>
      </trkpt>
      <trkpt lat="41.72607" lon="9.22368">
        <ele>1301.76</ele>
        <time>2022-05-01T09:43:05Z</time>
      </trkpt>
      <trkpt lat="41.72604" lon="9.22372">
        <ele>1304.65</ele>
        <time>2022-05-01T09:43:23Z</time>
      </trkpt>
      <trkpt lat="41.72589" lon="9.22371">
        <ele>1306.57</ele>
        <time>2022-05-01T09:43:40Z</time>
      </trkpt>
      <trkpt lat="41.72584" lon="9.22374">
        <ele>1309.93</ele>
        <time>2022-05-01T09:43:56Z</time>
      </trkpt>
      <trkpt lat="41.72579" lon="9.22381">
        <ele>1312.34</ele>
        <time>2022-05-01T09:44:12Z</time>
      </trkpt>
      <trkpt lat="41.72576" lon="9.22382">
        <ele>1313.3</ele>
        <time>2022-05-01T09:44:30Z</time>
      </trkpt>
      <trkpt lat="41.72571" lon="9.22386">
        <ele>1314.26</ele>
        <time>2022-05-01T09:44:46Z</time>
      </trkpt>
      <trkpt lat="41.72571" lon="9.22385">
        <ele>1315.7</ele>
        <time>2022-05-01T09:44:48Z</time>
      </trkpt>
      <trkpt lat="41.72572" lon="9.22383">
        <ele>1313.78</ele>
        <time>2022-05-01T09:45:06Z</time>
      </trkpt>
      <trkpt lat="41.7257" lon="9.22382">
        <ele>1315.22</ele>
        <time>2022-05-01T09:45:22Z</time>
      </trkpt>
      <trkpt lat="41.72565" lon="9.22384">
        <ele>1316.66</ele>
        <time>2022-05-01T09:45:33Z</time>
      </trkpt>
      <trkpt lat="41.72559" lon="9.22383">
        <ele>1318.1</ele>
        <time>2022-05-01T09:45:44Z</time>
      </trkpt>
      <trkpt lat="41.72554" lon="9.22382">
        <ele>1318.59</ele>
        <time>2022-05-01T09:45:52Z</time>
      </trkpt>
      <trkpt lat="41.72549" lon="9.22382">
        <ele>1319.55</ele>
        <time>2022-05-01T09:46:04Z</time>
      </trkpt>
      <trkpt lat="41.72548" lon="9.22379">
        <ele>1320.51</ele>
        <time>2022-05-01T09:46:17Z</time>
      </trkpt>
      <trkpt lat="41.72545" lon="9.22378">
        <ele>1320.51</ele>
        <time>2022-05-01T09:46:29Z</time>
      </trkpt>
      <trkpt lat="41.72545" lon="9.22378">
        <ele>1321.95</ele>
        <time>2022-05-01T09:46:33Z</time>
      </trkpt>
      <trkpt lat="41.72546" lon="9.22379">
        <ele>1320.99</ele>
        <time>2022-05-01T09:46:52Z</time>
      </trkpt>
      <trkpt lat="41.72544" lon="9.22379">
        <ele>1321.47</ele>
        <time>2022-05-01T09:47:00Z</time>
      </trkpt>
      <trkpt lat="41.7254" lon="9.22379">
        <ele>1322.43</ele>
        <time>2022-05-01T09:47:12Z</time>
      </trkpt>
      <trkpt lat="41.72537" lon="9.22376">
        <ele>1324.35</ele>
        <time>2022-05-01T09:47:37Z</time>
      </trkpt>
      <trkpt lat="41.72536" lon="9.22375">
        <ele>1324.35</ele>
        <time>2022-05-01T09:47:38Z</time>
      </trkpt>
      <trkpt lat="41.72533" lon="9.2237">
        <ele>1326.28</ele>
        <time>2022-05-01T09:47:49Z</time>
      </trkpt>
      <trkpt lat="41.72528" lon="9.22371">
        <ele>1328.2</ele>
        <time>2022-05-01T09:48:03Z</time>
      </trkpt>
      <trkpt lat="41.72523" lon="9.22373">
        <ele>1330.12</ele>
        <time>2022-05-01T09:48:15Z</time>
      </trkpt>
      <trkpt lat="41.7252" lon="9.2238">
        <ele>1330.12</ele>
        <time>2022-05-01T09:48:32Z</time>
      </trkpt>
      <trkpt lat="41.72513" lon="9.2239">
        <ele>1331.08</ele>
        <time>2022-05-01T09:48:46Z</time>
      </trkpt>
      <trkpt lat="41.72511" lon="9.22392">
        <ele>1331.08</ele>
        <time>2022-05-01T09:48:49Z</time>
      </trkpt>
      <trkpt lat="41.72496" lon="9.22394">
        <ele>1330.6</ele>
        <time>2022-05-01T09:49:06Z</time>
      </trkpt>
      <trkpt lat="41.72496" lon="9.22403">
        <ele>1329.64</ele>
        <time>2022-05-01T09:49:21Z</time>
      </trkpt>
      <trkpt lat="41.72494" lon="9.22407">
        <ele>1329.64</ele>
        <time>2022-05-01T09:49:33Z</time>
      </trkpt>
      <trkpt lat="41.72493" lon="9.22404">
        <ele>1330.6</ele>
        <time>2022-05-01T09:49:53Z</time>
      </trkpt>
      <trkpt lat="41.72491" lon="9.22395">
        <ele>1332.04</ele>
        <time>2022-05-01T09:50:06Z</time>
      </trkpt>
      <trkpt lat="41.72484" lon="9.22396">
        <ele>1331.08</ele>
        <time>2022-05-01T09:50:23Z</time>
      </trkpt>
      <trkpt lat="41.7248" lon="9.22392">
        <ele>1331.08</ele>
        <time>2022-05-01T09:50:43Z</time>
      </trkpt>
      <trkpt lat="41.72477" lon="9.22388">
        <ele>1332.04</ele>
        <time>2022-05-01T09:50:59Z</time>
      </trkpt>
      <trkpt lat="41.72473" lon="9.22378">
        <ele>1334.45</ele>
        <time>2022-05-01T09:51:13Z</time>
      </trkpt>
      <trkpt lat="41.72472" lon="9.22375">
        <ele>1336.37</ele>
        <time>2022-05-01T09:51:19Z</time>
      </trkpt>
      <trkpt lat="41.72458" lon="9.22375">
        <ele>1335.89</ele>
        <time>2022-05-01T09:51:33Z</time>
      </trkpt>
      <trkpt lat="41.72451" lon="9.22376">
        <ele>1334.93</ele>
        <time>2022-05-01T09:51:38Z</time>
      </trkpt>
      <trkpt lat="41.72436" lon="9.22373">
        <ele>1337.33</ele>
        <time>2022-05-01T09:51:53Z</time>
      </trkpt>
      <trkpt lat="41.72422" lon="9.2237">
        <ele>1338.77</ele>
        <time>2022-05-01T09:52:08Z</time>
      </trkpt>
      <trkpt lat="41.72412" lon="9.22365">
        <ele>1340.7</ele>
        <time>2022-05-01T09:52:23Z</time>
      </trkpt>
      <trkpt lat="41.72415" lon="9.22362">
        <ele>1341.66</ele>
        <time>2022-05-01T09:52:37Z</time>
      </trkpt>
      <trkpt lat="41.72409" lon="9.22355">
        <ele>1343.58</ele>
        <time>2022-05-01T09:52:51Z</time>
      </trkpt>
      <trkpt lat="41.72407" lon="9.2235">
        <ele>1345.98</ele>
        <time>2022-05-01T09:53:05Z</time>
      </trkpt>
      <trkpt lat="41.72402" lon="9.22344">
        <ele>1349.35</ele>
        <time>2022-05-01T09:53:17Z</time>
      </trkpt>
      <trkpt lat="41.72395" lon="9.22338">
        <ele>1350.79</ele>
        <time>2022-05-01T09:53:33Z</time>
      </trkpt>
      <trkpt lat="41.72382" lon="9.22333">
        <ele>1353.19</ele>
        <time>2022-05-01T09:53:48Z</time>
      </trkpt>
      <trkpt lat="41.7238" lon="9.22334">
        <ele>1352.71</ele>
        <time>2022-05-01T09:53:50Z</time>
      </trkpt>
      <trkpt lat="41.7237" lon="9.2233">
        <ele>1353.19</ele>
        <time>2022-05-01T09:54:00Z</time>
      </trkpt>
      <trkpt lat="41.72355" lon="9.22322">
        <ele>1355.12</ele>
        <time>2022-05-01T09:54:17Z</time>
      </trkpt>
      <trkpt lat="41.72353" lon="9.22326">
        <ele>1355.12</ele>
        <time>2022-05-01T09:54:34Z</time>
      </trkpt>
      <trkpt lat="41.72352" lon="9.22325">
        <ele>1356.56</ele>
        <time>2022-05-01T09:55:04Z</time>
      </trkpt>
      <trkpt lat="41.72351" lon="9.22329">
        <ele>1356.08</ele>
        <time>2022-05-01T09:55:35Z</time>
      </trkpt>
      <trkpt lat="41.72343" lon="9.22319">
        <ele>1357.52</ele>
        <time>2022-05-01T09:55:53Z</time>
      </trkpt>
      <trkpt lat="41.72334" lon="9.2232">
        <ele>1360.88</ele>
        <time>2022-05-01T09:56:06Z</time>
      </trkpt>
      <trkpt lat="41.72324" lon="9.22321">
        <ele>1363.29</ele>
        <time>2022-05-01T09:56:21Z</time>
      </trkpt>
      <trkpt lat="41.72317" lon="9.2232">
        <ele>1365.21</ele>
        <time>2022-05-01T09:56:35Z</time>
      </trkpt>
      <trkpt lat="41.72306" lon="9.22313">
        <ele>1370.02</ele>
        <time>2022-05-01T09:56:51Z</time>
      </trkpt>
      <trkpt lat="41.72306" lon="9.22313">
        <ele>1369.05</ele>
        <time>2022-05-01T09:56:52Z</time>
      </trkpt>
      <trkpt lat="41.72304" lon="9.22312">
        <ele>1369.05</ele>
        <time>2022-05-01T09:56:54Z</time>
      </trkpt>
      <trkpt lat="41.72303" lon="9.22309">
        <ele>1369.54</ele>
        <time>2022-05-01T09:56:58Z</time>
      </trkpt>
      <trkpt lat="41.72297" lon="9.22304">
        <ele>1371.46</ele>
        <time>2022-05-01T09:57:12Z</time>
      </trkpt>
      <trkpt lat="41.72288" lon="9.22298">
        <ele>1373.86</ele>
        <time>2022-05-01T09:57:29Z</time>
      </trkpt>
      <trkpt lat="41.72282" lon="9.2229">
        <ele>1376.26</ele>
        <time>2022-05-01T09:57:43Z</time>
      </trkpt>
      <trkpt lat="41.72277" lon="9.22282">
        <ele>1379.15</ele>
        <time>2022-05-01T09:57:58Z</time>
      </trkpt>
      <trkpt lat="41.72278" lon="9.22285">
        <ele>1379.63</ele>
        <time>2022-05-01T09:58:14Z</time>
      </trkpt>
      <trkpt lat="41.72278" lon="9.22285">
        <ele>1379.15</ele>
        <time>2022-05-01T09:58:49Z</time>
      </trkpt>
      <trkpt lat="41.72276" lon="9.22284">
        <ele>1378.67</ele>
        <time>2022-05-01T09:59:16Z</time>
      </trkpt>
      <trkpt lat="41.72276" lon="9.22284">
        <ele>1379.63</ele>
        <time>2022-05-01T09:59:56Z</time>
      </trkpt>
      <trkpt lat="41.72273" lon="9.22281">
        <ele>1380.59</ele>
        <time>2022-05-01T10:00:16Z</time>
      </trkpt>
      <trkpt lat="41.7227" lon="9.22282">
        <ele>1380.11</ele>
        <time>2022-05-01T10:00:28Z</time>
      </trkpt>
      <trkpt lat="41.72271" lon="9.22282">
        <ele>1380.11</ele>
        <time>2022-05-01T10:00:40Z</time>
      </trkpt>
      <trkpt lat="41.72273" lon="9.22282">
        <ele>1380.11</ele>
        <time>2022-05-01T10:01:00Z</time>
      </trkpt>
      <trkpt lat="41.72271" lon="9.22281">
        <ele>1380.59</ele>
        <time>2022-05-01T10:01:24Z</time>
      </trkpt>
      <trkpt lat="41.72268" lon="9.22285">
        <ele>1379.63</ele>
        <time>2022-05-01T10:01:48Z</time>
      </trkpt>
      <trkpt lat="41.7227" lon="9.22285">
        <ele>1379.63</ele>
        <time>2022-05-01T10:02:07Z</time>
      </trkpt>
      <trkpt lat="41.7227" lon="9.22285">
        <ele>1379.15</ele>
        <time>2022-05-01T10:02:37Z</time>
      </trkpt>
      <trkpt lat="41.72264" lon="9.22289">
        <ele>1378.19</ele>
        <time>2022-05-01T10:02:45Z</time>
      </trkpt>
      <trkpt lat="41.72262" lon="9.22293">
        <ele>1376.75</ele>
        <time>2022-05-01T10:02:48Z</time>
      </trkpt>
      <trkpt lat="41.72261" lon="9.22294">
        <ele>1377.23</ele>
        <time>2022-05-01T10:02:50Z</time>
      </trkpt>
      <trkpt lat="41.72257" lon="9.22297">
        <ele>1376.26</ele>
        <time>2022-05-01T10:02:55Z</time>
      </trkpt>
      <trkpt lat="41.72256" lon="9.22302">
        <ele>1375.3</ele>
        <time>2022-05-01T10:02:58Z</time>
      </trkpt>
      <trkpt lat="41.72254" lon="9.22307">
        <ele>1372.9</ele>
        <time>2022-05-01T10:03:02Z</time>
      </trkpt>
      <trkpt lat="41.72253" lon="9.22308">
        <ele>1372.42</ele>
        <time>2022-05-01T10:03:03Z</time>
      </trkpt>
      <trkpt lat="41.72249" lon="9.2231">
        <ele>1371.94</ele>
        <time>2022-05-01T10:03:07Z</time>
      </trkpt>
      <trkpt lat="41.72243" lon="9.22322">
        <ele>1369.54</ele>
        <time>2022-05-01T10:03:16Z</time>
      </trkpt>
      <trkpt lat="41.72238" lon="9.22324">
        <ele>1369.05</ele>
        <time>2022-05-01T10:03:20Z</time>
      </trkpt>
      <trkpt lat="41.72236" lon="9.22325">
        <ele>1368.57</ele>
        <time>2022-05-01T10:03:22Z</time>
      </trkpt>
      <trkpt lat="41.72219" lon="9.22332">
        <ele>1365.21</ele>
        <time>2022-05-01T10:03:37Z</time>
      </trkpt>
      <trkpt lat="41.72217" lon="9.22333">
        <ele>1363.29</ele>
        <time>2022-05-01T10:03:51Z</time>
      </trkpt>
      <trkpt lat="41.72206" lon="9.22342">
        <ele>1362.33</ele>
        <time>2022-05-01T10:04:06Z</time>
      </trkpt>
      <trkpt lat="41.72191" lon="9.22353">
        <ele>1360.88</ele>
        <time>2022-05-01T10:04:20Z</time>
      </trkpt>
      <trkpt lat="41.72176" lon="9.22357">
        <ele>1360.4</ele>
        <time>2022-05-01T10:04:32Z</time>
      </trkpt>
      <trkpt lat="41.72164" lon="9.22361">
        <ele>1360.4</ele>
        <time>2022-05-01T10:04:43Z</time>
      </trkpt>
      <trkpt lat="41.72147" lon="9.22367">
        <ele>1361.84</ele>
        <time>2022-05-01T10:04:58Z</time>
      </trkpt>
      <trkpt lat="41.72145" lon="9.22368">
        <ele>1362.33</ele>
        <time>2022-05-01T10:05:00Z</time>
      </trkpt>
      <trkpt lat="41.7214" lon="9.22367">
        <ele>1362.33</ele>
        <time>2022-05-01T10:05:04Z</time>
      </trkpt>
      <trkpt lat="41.72137" lon="9.22368">
        <ele>1362.33</ele>
        <time>2022-05-01T10:05:07Z</time>
      </trkpt>
      <trkpt lat="41.72117" lon="9.22385">
        <ele>1364.25</ele>
        <time>2022-05-01T10:05:26Z</time>
      </trkpt>
      <trkpt lat="41.72116" lon="9.22386">
        <ele>1363.29</ele>
        <time>2022-05-01T10:05:37Z</time>
      </trkpt>
      <trkpt lat="41.72116" lon="9.22386">
        <ele>1362.81</ele>
        <time>2022-05-01T10:06:15Z</time>
      </trkpt>
      <trkpt lat="41.72117" lon="9.22387">
        <ele>1363.77</ele>
        <time>2022-05-01T10:06:21Z</time>
      </trkpt>
      <trkpt lat="41.72114" lon="9.2239">
        <ele>1363.77</ele>
        <time>2022-05-01T10:06:36Z</time>
      </trkpt>
      <trkpt lat="41.72106" lon="9.22398">
        <ele>1365.21</ele>
        <time>2022-05-01T10:06:51Z</time>
      </trkpt>
      <trkpt lat="41.72102" lon="9.22402">
        <ele>1366.65</ele>
        <time>2022-05-01T10:06:57Z</time>
      </trkpt>
      <trkpt lat="41.72092" lon="9.22407">
        <ele>1367.61</ele>
        <time>2022-05-01T10:07:10Z</time>
      </trkpt>
      <trkpt lat="41.72082" lon="9.22411">
        <ele>1370.98</ele>
        <time>2022-05-01T10:07:24Z</time>
      </trkpt>
      <trkpt lat="41.72074" lon="9.22414">
        <ele>1372.42</ele>
        <time>2022-05-01T10:07:34Z</time>
      </trkpt>
      <trkpt lat="41.72062" lon="9.22419">
        <ele>1374.82</ele>
        <time>2022-05-01T10:07:49Z</time>
      </trkpt>
      <trkpt lat="41.72055" lon="9.22425">
        <ele>1376.75</ele>
        <time>2022-05-01T10:08:00Z</time>
      </trkpt>
      <trkpt lat="41.7205" lon="9.22427">
        <ele>1377.23</ele>
        <time>2022-05-01T10:08:08Z</time>
      </trkpt>
      <trkpt lat="41.7204" lon="9.22427">
        <ele>1375.3</ele>
        <time>2022-05-01T10:08:18Z</time>
      </trkpt>
      <trkpt lat="41.72035" lon="9.2243">
        <ele>1375.3</ele>
        <time>2022-05-01T10:08:34Z</time>
      </trkpt>
      <trkpt lat="41.72032" lon="9.22426">
        <ele>1376.26</ele>
        <time>2022-05-01T10:09:06Z</time>
      </trkpt>
      <trkpt lat="41.72029" lon="9.22422">
        <ele>1375.3</ele>
        <time>2022-05-01T10:09:22Z</time>
      </trkpt>
      <trkpt lat="41.72029" lon="9.22422">
        <ele>1374.82</ele>
        <time>2022-05-01T10:09:23Z</time>
      </trkpt>
      <trkpt lat="41.72028" lon="9.22403">
        <ele>1372.42</ele>
        <time>2022-05-01T10:09:34Z</time>
      </trkpt>
      <trkpt lat="41.72027" lon="9.22402">
        <ele>1372.9</ele>
        <time>2022-05-01T10:09:35Z</time>
      </trkpt>
      <trkpt lat="41.72022" lon="9.22394">
        <ele>1370.02</ele>
        <time>2022-05-01T10:09:43Z</time>
      </trkpt>
      <trkpt lat="41.72021" lon="9.22393">
        <ele>1370.02</ele>
        <time>2022-05-01T10:09:44Z</time>
      </trkpt>
      <trkpt lat="41.72017" lon="9.22392">
        <ele>1368.57</ele>
        <time>2022-05-01T10:09:48Z</time>
      </trkpt>
      <trkpt lat="41.72016" lon="9.22394">
        <ele>1367.61</ele>
        <time>2022-05-01T10:09:50Z</time>
      </trkpt>
      <trkpt lat="41.72014" lon="9.22396">
        <ele>1369.05</ele>
        <time>2022-05-01T10:09:53Z</time>
      </trkpt>
      <trkpt lat="41.72007" lon="9.22398">
        <ele>1365.69</ele>
        <time>2022-05-01T10:10:04Z</time>
      </trkpt>
      <trkpt lat="41.72006" lon="9.22397">
        <ele>1365.21</ele>
        <time>2022-05-01T10:10:24Z</time>
      </trkpt>
      <trkpt lat="41.72" lon="9.22395">
        <ele>1363.29</ele>
        <time>2022-05-01T10:10:36Z</time>
      </trkpt>
      <trkpt lat="41.71989" lon="9.22394">
        <ele>1360.88</ele>
        <time>2022-05-01T10:10:51Z</time>
      </trkpt>
      <trkpt lat="41.71986" lon="9.22395">
        <ele>1359.92</ele>
        <time>2022-05-01T10:11:14Z</time>
      </trkpt>
      <trkpt lat="41.71981" lon="9.2239">
        <ele>1358</ele>
        <time>2022-05-01T10:11:25Z</time>
      </trkpt>
      <trkpt lat="41.71974" lon="9.22387">
        <ele>1354.15</ele>
        <time>2022-05-01T10:11:34Z</time>
      </trkpt>
      <trkpt lat="41.71972" lon="9.22386">
        <ele>1354.63</ele>
        <time>2022-05-01T10:11:36Z</time>
      </trkpt>
      <trkpt lat="41.71963" lon="9.22387">
        <ele>1351.27</ele>
        <time>2022-05-01T10:11:46Z</time>
      </trkpt>
      <trkpt lat="41.71959" lon="9.22388">
        <ele>1349.83</ele>
        <time>2022-05-01T10:11:51Z</time>
      </trkpt>
      <trkpt lat="41.71949" lon="9.2239">
        <ele>1347.91</ele>
        <time>2022-05-01T10:12:05Z</time>
      </trkpt>
      <trkpt lat="41.71945" lon="9.2239">
        <ele>1346.94</ele>
        <time>2022-05-01T10:12:09Z</time>
      </trkpt>
      <trkpt lat="41.71942" lon="9.2239">
        <ele>1345.5</ele>
        <time>2022-05-01T10:12:13Z</time>
      </trkpt>
      <trkpt lat="41.7194" lon="9.2239">
        <ele>1344.54</ele>
        <time>2022-05-01T10:12:15Z</time>
      </trkpt>
      <trkpt lat="41.71939" lon="9.2239">
        <ele>1343.58</ele>
        <time>2022-05-01T10:12:16Z</time>
      </trkpt>
      <trkpt lat="41.71938" lon="9.22391">
        <ele>1343.58</ele>
        <time>2022-05-01T10:12:17Z</time>
      </trkpt>
      <trkpt lat="41.71932" lon="9.22394">
        <ele>1342.14</ele>
        <time>2022-05-01T10:12:24Z</time>
      </trkpt>
      <trkpt lat="41.71927" lon="9.22396">
        <ele>1341.18</ele>
        <time>2022-05-01T10:12:37Z</time>
      </trkpt>
      <trkpt lat="41.71925" lon="9.22395">
        <ele>1340.7</ele>
        <time>2022-05-01T10:12:55Z</time>
      </trkpt>
      <trkpt lat="41.71923" lon="9.22394">
        <ele>1340.7</ele>
        <time>2022-05-01T10:12:56Z</time>
      </trkpt>
      <trkpt lat="41.71922" lon="9.22394">
        <ele>1340.7</ele>
        <time>2022-05-01T10:12:57Z</time>
      </trkpt>
      <trkpt lat="41.71918" lon="9.22396">
        <ele>1339.25</ele>
        <time>2022-05-01T10:13:01Z</time>
      </trkpt>
      <trkpt lat="41.71917" lon="9.22396">
        <ele>1339.25</ele>
        <time>2022-05-01T10:13:02Z</time>
      </trkpt>
      <trkpt lat="41.71916" lon="9.22397">
        <ele>1338.77</ele>
        <time>2022-05-01T10:13:03Z</time>
      </trkpt>
      <trkpt lat="41.71902" lon="9.22394">
        <ele>1336.37</ele>
        <time>2022-05-01T10:13:19Z</time>
      </trkpt>
      <trkpt lat="41.71901" lon="9.22398">
        <ele>1335.89</ele>
        <time>2022-05-01T10:13:31Z</time>
      </trkpt>
      <trkpt lat="41.719" lon="9.22396">
        <ele>1335.41</ele>
        <time>2022-05-01T10:14:02Z</time>
      </trkpt>
      <trkpt lat="41.719" lon="9.22396">
        <ele>1335.89</ele>
        <time>2022-05-01T10:14:28Z</time>
      </trkpt>
      <trkpt lat="41.71901" lon="9.22395">
        <ele>1335.41</ele>
        <time>2022-05-01T10:14:54Z</time>
      </trkpt>
      <trkpt lat="41.71894" lon="9.22396">
        <ele>1333.97</ele>
        <time>2022-05-01T10:15:08Z</time>
      </trkpt>
      <trkpt lat="41.71885" lon="9.22398">
        <ele>1331.56</ele>
        <time>2022-05-01T10:15:21Z</time>
      </trkpt>
      <trkpt lat="41.71876" lon="9.224">
        <ele>1328.2</ele>
        <time>2022-05-01T10:15:33Z</time>
      </trkpt>
      <trkpt lat="41.71864" lon="9.22402">
        <ele>1325.31</ele>
        <time>2022-05-01T10:15:47Z</time>
      </trkpt>
      <trkpt lat="41.71856" lon="9.22404">
        <ele>1325.31</ele>
        <time>2022-05-01T10:15:55Z</time>
      </trkpt>
      <trkpt lat="41.71855" lon="9.22403">
        <ele>1323.39</ele>
        <time>2022-05-01T10:15:57Z</time>
      </trkpt>
      <trkpt lat="41.71851" lon="9.22404">
        <ele>1320.99</ele>
        <time>2022-05-01T10:16:09Z</time>
      </trkpt>
      <trkpt lat="41.71849" lon="9.22403">
        <ele>1322.43</ele>
        <time>2022-05-01T10:16:41Z</time>
      </trkpt>
      <trkpt lat="41.71846" lon="9.22401">
        <ele>1320.99</ele>
        <time>2022-05-01T10:16:59Z</time>
      </trkpt>
      <trkpt lat="41.71845" lon="9.22389">
        <ele>1319.55</ele>
        <time>2022-05-01T10:17:11Z</time>
      </trkpt>
      <trkpt lat="41.71847" lon="9.22379">
        <ele>1317.14</ele>
        <time>2022-05-01T10:17:25Z</time>
      </trkpt>
      <trkpt lat="41.71847" lon="9.22375">
        <ele>1316.18</ele>
        <time>2022-05-01T10:17:29Z</time>
      </trkpt>
      <trkpt lat="41.71848" lon="9.22372">
        <ele>1315.7</ele>
        <time>2022-05-01T10:17:31Z</time>
      </trkpt>
      <trkpt lat="41.71847" lon="9.2237">
        <ele>1314.74</ele>
        <time>2022-05-01T10:17:33Z</time>
      </trkpt>
      <trkpt lat="41.71838" lon="9.22374">
        <ele>1312.34</ele>
        <time>2022-05-01T10:17:44Z</time>
      </trkpt>
      <trkpt lat="41.71837" lon="9.22363">
        <ele>1309.93</ele>
        <time>2022-05-01T10:17:57Z</time>
      </trkpt>
      <trkpt lat="41.71838" lon="9.22353">
        <ele>1307.05</ele>
        <time>2022-05-01T10:18:10Z</time>
      </trkpt>
      <trkpt lat="41.71835" lon="9.22347">
        <ele>1304.65</ele>
        <time>2022-05-01T10:18:20Z</time>
      </trkpt>
      <trkpt lat="41.7183" lon="9.2235">
        <ele>1303.2</ele>
        <time>2022-05-01T10:18:29Z</time>
      </trkpt>
      <trkpt lat="41.71829" lon="9.22339">
        <ele>1299.84</ele>
        <time>2022-05-01T10:18:41Z</time>
      </trkpt>
      <trkpt lat="41.71824" lon="9.22338">
        <ele>1296.96</ele>
        <time>2022-05-01T10:18:50Z</time>
      </trkpt>
      <trkpt lat="41.71824" lon="9.22339">
        <ele>1296.96</ele>
        <time>2022-05-01T10:18:51Z</time>
      </trkpt>
      <trkpt lat="41.71816" lon="9.22343">
        <ele>1294.07</ele>
        <time>2022-05-01T10:19:03Z</time>
      </trkpt>
      <trkpt lat="41.71805" lon="9.22343">
        <ele>1291.19</ele>
        <time>2022-05-01T10:19:17Z</time>
      </trkpt>
      <trkpt lat="41.71797" lon="9.22345">
        <ele>1288.3</ele>
        <time>2022-05-01T10:19:31Z</time>
      </trkpt>
      <trkpt lat="41.71793" lon="9.22344">
        <ele>1286.86</ele>
        <time>2022-05-01T10:19:35Z</time>
      </trkpt>
      <trkpt lat="41.71791" lon="9.22349">
        <ele>1285.9</ele>
        <time>2022-05-01T10:19:39Z</time>
      </trkpt>
      <trkpt lat="41.71783" lon="9.22362">
        <ele>1283.98</ele>
        <time>2022-05-01T10:19:52Z</time>
      </trkpt>
      <trkpt lat="41.71781" lon="9.22365">
        <ele>1282.54</ele>
        <time>2022-05-01T10:19:55Z</time>
      </trkpt>
      <trkpt lat="41.7178" lon="9.22366">
        <ele>1283.5</ele>
        <time>2022-05-01T10:19:56Z</time>
      </trkpt>
      <trkpt lat="41.71778" lon="9.22366">
        <ele>1282.54</ele>
        <time>2022-05-01T10:19:57Z</time>
      </trkpt>
      <trkpt lat="41.71774" lon="9.22369">
        <ele>1281.57</ele>
        <time>2022-05-01T10:20:02Z</time>
      </trkpt>
      <trkpt lat="41.71771" lon="9.22369">
        <ele>1281.57</ele>
        <time>2022-05-01T10:20:04Z</time>
      </trkpt>
      <trkpt lat="41.71769" lon="9.22376">
        <ele>1281.57</ele>
        <time>2022-05-01T10:20:19Z</time>
      </trkpt>
      <trkpt lat="41.7177" lon="9.22376">
        <ele>1280.13</ele>
        <time>2022-05-01T10:20:41Z</time>
      </trkpt>
      <trkpt lat="41.71768" lon="9.22378">
        <ele>1281.09</ele>
        <time>2022-05-01T10:20:47Z</time>
      </trkpt>
      <trkpt lat="41.71767" lon="9.2238">
        <ele>1280.13</ele>
        <time>2022-05-01T10:20:48Z</time>
      </trkpt>
      <trkpt lat="41.71766" lon="9.22381">
        <ele>1280.61</ele>
        <time>2022-05-01T10:20:49Z</time>
      </trkpt>
      <trkpt lat="41.71765" lon="9.22383">
        <ele>1281.09</ele>
        <time>2022-05-01T10:20:50Z</time>
      </trkpt>
      <trkpt lat="41.71765" lon="9.22385">
        <ele>1280.61</ele>
        <time>2022-05-01T10:20:51Z</time>
      </trkpt>
      <trkpt lat="41.71764" lon="9.22386">
        <ele>1281.09</ele>
        <time>2022-05-01T10:20:52Z</time>
      </trkpt>
      <trkpt lat="41.7175" lon="9.22398">
        <ele>1277.73</ele>
        <time>2022-05-01T10:21:07Z</time>
      </trkpt>
      <trkpt lat="41.71747" lon="9.224">
        <ele>1277.73</ele>
        <time>2022-05-01T10:21:10Z</time>
      </trkpt>
      <trkpt lat="41.71744" lon="9.22401">
        <ele>1276.77</ele>
        <time>2022-05-01T10:21:13Z</time>
      </trkpt>
      <trkpt lat="41.71743" lon="9.22403">
        <ele>1276.77</ele>
        <time>2022-05-01T10:21:14Z</time>
      </trkpt>
      <trkpt lat="41.71741" lon="9.22405">
        <ele>1276.29</ele>
        <time>2022-05-01T10:21:17Z</time>
      </trkpt>
      <trkpt lat="41.7174" lon="9.22406">
        <ele>1275.81</ele>
        <time>2022-05-01T10:21:18Z</time>
      </trkpt>
      <trkpt lat="41.71739" lon="9.22408">
        <ele>1275.81</ele>
        <time>2022-05-01T10:21:19Z</time>
      </trkpt>
      <trkpt lat="41.71739" lon="9.22409">
        <ele>1276.29</ele>
        <time>2022-05-01T10:21:20Z</time>
      </trkpt>
      <trkpt lat="41.71738" lon="9.22411">
        <ele>1276.29</ele>
        <time>2022-05-01T10:21:21Z</time>
      </trkpt>
      <trkpt lat="41.71737" lon="9.22412">
        <ele>1275.33</ele>
        <time>2022-05-01T10:21:22Z</time>
      </trkpt>
      <trkpt lat="41.71737" lon="9.22413">
        <ele>1276.29</ele>
        <time>2022-05-01T10:21:23Z</time>
      </trkpt>
      <trkpt lat="41.71736" lon="9.22414">
        <ele>1276.29</ele>
        <time>2022-05-01T10:21:24Z</time>
      </trkpt>
      <trkpt lat="41.71722" lon="9.22418">
        <ele>1273.88</ele>
        <time>2022-05-01T10:21:37Z</time>
      </trkpt>
      <trkpt lat="41.71714" lon="9.22423">
        <ele>1271</ele>
        <time>2022-05-01T10:21:43Z</time>
      </trkpt>
      <trkpt lat="41.71711" lon="9.22424">
        <ele>1270.52</ele>
        <time>2022-05-01T10:21:47Z</time>
      </trkpt>
      <trkpt lat="41.7171" lon="9.22424">
        <ele>1270.52</ele>
        <time>2022-05-01T10:21:48Z</time>
      </trkpt>
      <trkpt lat="41.71709" lon="9.22424">
        <ele>1271</ele>
        <time>2022-05-01T10:21:49Z</time>
      </trkpt>
      <trkpt lat="41.71708" lon="9.22426">
        <ele>1271</ele>
        <time>2022-05-01T10:21:50Z</time>
      </trkpt>
      <trkpt lat="41.71707" lon="9.22427">
        <ele>1271.48</ele>
        <time>2022-05-01T10:21:51Z</time>
      </trkpt>
      <trkpt lat="41.71703" lon="9.22431">
        <ele>1269.08</ele>
        <time>2022-05-01T10:22:00Z</time>
      </trkpt>
      <trkpt lat="41.71699" lon="9.22435">
        <ele>1267.16</ele>
        <time>2022-05-01T10:22:10Z</time>
      </trkpt>
      <trkpt lat="41.71694" lon="9.22437">
        <ele>1266.19</ele>
        <time>2022-05-01T10:22:23Z</time>
      </trkpt>
      <trkpt lat="41.71689" lon="9.22438">
        <ele>1263.31</ele>
        <time>2022-05-01T10:22:31Z</time>
      </trkpt>
      <trkpt lat="41.71687" lon="9.22438">
        <ele>1263.31</ele>
        <time>2022-05-01T10:22:32Z</time>
      </trkpt>
      <trkpt lat="41.71686" lon="9.22439">
        <ele>1262.83</ele>
        <time>2022-05-01T10:22:33Z</time>
      </trkpt>
      <trkpt lat="41.71685" lon="9.2244">
        <ele>1262.83</ele>
        <time>2022-05-01T10:22:34Z</time>
      </trkpt>
      <trkpt lat="41.71683" lon="9.22442">
        <ele>1262.83</ele>
        <time>2022-05-01T10:22:35Z</time>
      </trkpt>
      <trkpt lat="41.71682" lon="9.22443">
        <ele>1261.87</ele>
        <time>2022-05-01T10:22:36Z</time>
      </trkpt>
      <trkpt lat="41.71682" lon="9.22448">
        <ele>1260.91</ele>
        <time>2022-05-01T10:22:43Z</time>
      </trkpt>
      <trkpt lat="41.71682" lon="9.22449">
        <ele>1260.43</ele>
        <time>2022-05-01T10:22:44Z</time>
      </trkpt>
      <trkpt lat="41.71683" lon="9.22451">
        <ele>1259.94</ele>
        <time>2022-05-01T10:22:45Z</time>
      </trkpt>
      <trkpt lat="41.71684" lon="9.22451">
        <ele>1259.46</ele>
        <time>2022-05-01T10:22:57Z</time>
      </trkpt>
      <trkpt lat="41.71683" lon="9.2245">
        <ele>1259.46</ele>
        <time>2022-05-01T10:22:58Z</time>
      </trkpt>
      <trkpt lat="41.71681" lon="9.22451">
        <ele>1259.46</ele>
        <time>2022-05-01T10:23:03Z</time>
      </trkpt>
      <trkpt lat="41.71685" lon="9.22456">
        <ele>1257.54</ele>
        <time>2022-05-01T10:23:14Z</time>
      </trkpt>
      <trkpt lat="41.71683" lon="9.2246">
        <ele>1254.18</ele>
        <time>2022-05-01T10:23:25Z</time>
      </trkpt>
      <trkpt lat="41.71679" lon="9.22465">
        <ele>1253.7</ele>
        <time>2022-05-01T10:23:35Z</time>
      </trkpt>
      <trkpt lat="41.71677" lon="9.22466">
        <ele>1252.25</ele>
        <time>2022-05-01T10:23:38Z</time>
      </trkpt>
      <trkpt lat="41.71679" lon="9.22473">
        <ele>1250.81</ele>
        <time>2022-05-01T10:23:46Z</time>
      </trkpt>
      <trkpt lat="41.71676" lon="9.22485">
        <ele>1248.41</ele>
        <time>2022-05-01T10:23:55Z</time>
      </trkpt>
      <trkpt lat="41.71673" lon="9.22486">
        <ele>1246.97</ele>
        <time>2022-05-01T10:24:00Z</time>
      </trkpt>
      <trkpt lat="41.71671" lon="9.22482">
        <ele>1246.97</ele>
        <time>2022-05-01T10:24:05Z</time>
      </trkpt>
      <trkpt lat="41.7167" lon="9.22481">
        <ele>1246.49</ele>
        <time>2022-05-01T10:24:07Z</time>
      </trkpt>
      <trkpt lat="41.71668" lon="9.2248">
        <ele>1246.01</ele>
        <time>2022-05-01T10:24:09Z</time>
      </trkpt>
      <trkpt lat="41.71665" lon="9.22479">
        <ele>1245.04</ele>
        <time>2022-05-01T10:24:14Z</time>
      </trkpt>
      <trkpt lat="41.71663" lon="9.22483">
        <ele>1243.6</ele>
        <time>2022-05-01T10:24:21Z</time>
      </trkpt>
      <trkpt lat="41.71662" lon="9.22489">
        <ele>1242.64</ele>
        <time>2022-05-01T10:24:27Z</time>
      </trkpt>
      <trkpt lat="41.71655" lon="9.22495">
        <ele>1238.8</ele>
        <time>2022-05-01T10:24:37Z</time>
      </trkpt>
      <trkpt lat="41.71654" lon="9.22495">
        <ele>1239.28</ele>
        <time>2022-05-01T10:24:38Z</time>
      </trkpt>
      <trkpt lat="41.71653" lon="9.22494">
        <ele>1240.72</ele>
        <time>2022-05-01T10:24:48Z</time>
      </trkpt>
      <trkpt lat="41.71645" lon="9.22493">
        <ele>1239.28</ele>
        <time>2022-05-01T10:25:09Z</time>
      </trkpt>
      <trkpt lat="41.71634" lon="9.22495">
        <ele>1237.35</ele>
        <time>2022-05-01T10:25:21Z</time>
      </trkpt>
      <trkpt lat="41.71626" lon="9.22497">
        <ele>1236.39</ele>
        <time>2022-05-01T10:25:28Z</time>
      </trkpt>
      <trkpt lat="41.71617" lon="9.22492">
        <ele>1234.47</ele>
        <time>2022-05-01T10:25:35Z</time>
      </trkpt>
      <trkpt lat="41.71607" lon="9.22491">
        <ele>1233.51</ele>
        <time>2022-05-01T10:25:46Z</time>
      </trkpt>
      <trkpt lat="41.71601" lon="9.22486">
        <ele>1232.07</ele>
        <time>2022-05-01T10:25:53Z</time>
      </trkpt>
      <trkpt lat="41.71598" lon="9.22483">
        <ele>1231.59</ele>
        <time>2022-05-01T10:25:56Z</time>
      </trkpt>
      <trkpt lat="41.71586" lon="9.22485">
        <ele>1230.62</ele>
        <time>2022-05-01T10:26:09Z</time>
      </trkpt>
      <trkpt lat="41.71585" lon="9.22486">
        <ele>1230.14</ele>
        <time>2022-05-01T10:26:10Z</time>
      </trkpt>
      <trkpt lat="41.71578" lon="9.22486">
        <ele>1228.22</ele>
        <time>2022-05-01T10:26:23Z</time>
      </trkpt>
      <trkpt lat="41.71579" lon="9.22485">
        <ele>1227.74</ele>
        <time>2022-05-01T10:26:27Z</time>
      </trkpt>
      <trkpt lat="41.71587" lon="9.22487">
        <ele>1246.97</ele>
        <time>2022-05-01T10:45:14Z</time>
      </trkpt>
      <trkpt lat="41.71585" lon="9.22488">
        <ele>1247.45</ele>
        <time>2022-05-01T10:45:15Z</time>
      </trkpt>
      <trkpt lat="41.71584" lon="9.22489">
        <ele>1246.49</ele>
        <time>2022-05-01T10:45:16Z</time>
      </trkpt>
      <trkpt lat="41.71582" lon="9.22489">
        <ele>1245.53</ele>
        <time>2022-05-01T10:45:18Z</time>
      </trkpt>
      <trkpt lat="41.71577" lon="9.22487">
        <ele>1241.68</ele>
        <time>2022-05-01T10:45:25Z</time>
      </trkpt>
      <trkpt lat="41.71573" lon="9.22489">
        <ele>1238.32</ele>
        <time>2022-05-01T10:45:30Z</time>
      </trkpt>
      <trkpt lat="41.7157" lon="9.22493">
        <ele>1234.95</ele>
        <time>2022-05-01T10:45:35Z</time>
      </trkpt>
      <trkpt lat="41.71567" lon="9.22493">
        <ele>1231.11</ele>
        <time>2022-05-01T10:45:38Z</time>
      </trkpt>
      <trkpt lat="41.71567" lon="9.22494">
        <ele>1231.11</ele>
        <time>2022-05-01T10:45:39Z</time>
      </trkpt>
      <trkpt lat="41.71557" lon="9.22497">
        <ele>1227.74</ele>
        <time>2022-05-01T10:45:51Z</time>
      </trkpt>
      <trkpt lat="41.7155" lon="9.22498">
        <ele>1225.82</ele>
        <time>2022-05-01T10:45:58Z</time>
      </trkpt>
      <trkpt lat="41.71538" lon="9.22498">
        <ele>1221.97</ele>
        <time>2022-05-01T10:46:11Z</time>
      </trkpt>
      <trkpt lat="41.71537" lon="9.22498">
        <ele>1221.49</ele>
        <time>2022-05-01T10:46:12Z</time>
      </trkpt>
      <trkpt lat="41.71513" lon="9.22495">
        <ele>1219.09</ele>
        <time>2022-05-01T10:46:28Z</time>
      </trkpt>
      <trkpt lat="41.7151" lon="9.22494">
        <ele>1218.13</ele>
        <time>2022-05-01T10:46:30Z</time>
      </trkpt>
      <trkpt lat="41.71494" lon="9.22487">
        <ele>1217.17</ele>
        <time>2022-05-01T10:46:47Z</time>
      </trkpt>
      <trkpt lat="41.71486" lon="9.22486">
        <ele>1217.17</ele>
        <time>2022-05-01T10:47:02Z</time>
      </trkpt>
      <trkpt lat="41.71483" lon="9.22484">
        <ele>1217.17</ele>
        <time>2022-05-01T10:47:30Z</time>
      </trkpt>
      <trkpt lat="41.71479" lon="9.22485">
        <ele>1215.72</ele>
        <time>2022-05-01T10:47:45Z</time>
      </trkpt>
      <trkpt lat="41.71466" lon="9.22486">
        <ele>1212.84</ele>
        <time>2022-05-01T10:48:00Z</time>
      </trkpt>
      <trkpt lat="41.7146" lon="9.2248">
        <ele>1211.88</ele>
        <time>2022-05-01T10:48:12Z</time>
      </trkpt>
      <trkpt lat="41.71458" lon="9.22482">
        <ele>1211.4</ele>
        <time>2022-05-01T10:48:29Z</time>
      </trkpt>
      <trkpt lat="41.7145" lon="9.22472">
        <ele>1208.51</ele>
        <time>2022-05-01T10:48:41Z</time>
      </trkpt>
      <trkpt lat="41.71446" lon="9.22453">
        <ele>1207.07</ele>
        <time>2022-05-01T10:48:53Z</time>
      </trkpt>
      <trkpt lat="41.7145" lon="9.22443">
        <ele>1204.67</ele>
        <time>2022-05-01T10:49:08Z</time>
      </trkpt>
      <trkpt lat="41.71447" lon="9.22439">
        <ele>1205.15</ele>
        <time>2022-05-01T10:49:20Z</time>
      </trkpt>
      <trkpt lat="41.71442" lon="9.2243">
        <ele>1201.3</ele>
        <time>2022-05-01T10:49:29Z</time>
      </trkpt>
      <trkpt lat="41.71439" lon="9.22422">
        <ele>1199.38</ele>
        <time>2022-05-01T10:49:35Z</time>
      </trkpt>
      <trkpt lat="41.71437" lon="9.22419">
        <ele>1198.42</ele>
        <time>2022-05-01T10:49:38Z</time>
      </trkpt>
      <trkpt lat="41.7143" lon="9.22416">
        <ele>1196.02</ele>
        <time>2022-05-01T10:49:45Z</time>
      </trkpt>
      <trkpt lat="41.71427" lon="9.22416">
        <ele>1195.54</ele>
        <time>2022-05-01T10:50:00Z</time>
      </trkpt>
      <trkpt lat="41.71425" lon="9.22408">
        <ele>1193.13</ele>
        <time>2022-05-01T10:50:17Z</time>
      </trkpt>
      <trkpt lat="41.71417" lon="9.224">
        <ele>1191.21</ele>
        <time>2022-05-01T10:50:32Z</time>
      </trkpt>
      <trkpt lat="41.71416" lon="9.22391">
        <ele>1189.77</ele>
        <time>2022-05-01T10:50:45Z</time>
      </trkpt>
      <trkpt lat="41.71413" lon="9.22389">
        <ele>1189.29</ele>
        <time>2022-05-01T10:50:50Z</time>
      </trkpt>
      <trkpt lat="41.71408" lon="9.22383">
        <ele>1186.88</ele>
        <time>2022-05-01T10:51:03Z</time>
      </trkpt>
      <trkpt lat="41.71407" lon="9.22382">
        <ele>1186.88</ele>
        <time>2022-05-01T10:51:04Z</time>
      </trkpt>
      <trkpt lat="41.71404" lon="9.22382">
        <ele>1186.4</ele>
        <time>2022-05-01T10:51:06Z</time>
      </trkpt>
      <trkpt lat="41.71403" lon="9.22384">
        <ele>1186.4</ele>
        <time>2022-05-01T10:51:19Z</time>
      </trkpt>
      <trkpt lat="41.71408" lon="9.22375">
        <ele>1186.88</ele>
        <time>2022-05-01T10:51:35Z</time>
      </trkpt>
      <trkpt lat="41.71409" lon="9.22373">
        <ele>1187.37</ele>
        <time>2022-05-01T10:51:48Z</time>
      </trkpt>
      <trkpt lat="41.71409" lon="9.22376">
        <ele>1187.37</ele>
        <time>2022-05-01T10:51:55Z</time>
      </trkpt>
      <trkpt lat="41.71402" lon="9.22377">
        <ele>1185.44</ele>
        <time>2022-05-01T10:52:07Z</time>
      </trkpt>
      <trkpt lat="41.71396" lon="9.22377">
        <ele>1183.04</ele>
        <time>2022-05-01T10:52:19Z</time>
      </trkpt>
      <trkpt lat="41.71389" lon="9.22377">
        <ele>1182.08</ele>
        <time>2022-05-01T10:52:31Z</time>
      </trkpt>
      <trkpt lat="41.71386" lon="9.22375">
        <ele>1181.6</ele>
        <time>2022-05-01T10:52:36Z</time>
      </trkpt>
      <trkpt lat="41.71382" lon="9.22374">
        <ele>1180.64</ele>
        <time>2022-05-01T10:52:42Z</time>
      </trkpt>
      <trkpt lat="41.7138" lon="9.22374">
        <ele>1179.19</ele>
        <time>2022-05-01T10:52:48Z</time>
      </trkpt>
      <trkpt lat="41.71378" lon="9.22374">
        <ele>1179.19</ele>
        <time>2022-05-01T10:52:52Z</time>
      </trkpt>
      <trkpt lat="41.71376" lon="9.22374">
        <ele>1177.75</ele>
        <time>2022-05-01T10:53:06Z</time>
      </trkpt>
      <trkpt lat="41.71375" lon="9.22376">
        <ele>1178.23</ele>
        <time>2022-05-01T10:53:22Z</time>
      </trkpt>
      <trkpt lat="41.71372" lon="9.22379">
        <ele>1178.23</ele>
        <time>2022-05-01T10:53:50Z</time>
      </trkpt>
      <trkpt lat="41.71371" lon="9.22396">
        <ele>1177.27</ele>
        <time>2022-05-01T10:54:06Z</time>
      </trkpt>
      <trkpt lat="41.71375" lon="9.22406">
        <ele>1179.67</ele>
        <time>2022-05-01T10:54:22Z</time>
      </trkpt>
      <trkpt lat="41.71369" lon="9.22415">
        <ele>1176.79</ele>
        <time>2022-05-01T10:54:39Z</time>
      </trkpt>
      <trkpt lat="41.71366" lon="9.22426">
        <ele>1176.79</ele>
        <time>2022-05-01T10:54:55Z</time>
      </trkpt>
      <trkpt lat="41.71367" lon="9.22432">
        <ele>1176.79</ele>
        <time>2022-05-01T10:55:04Z</time>
      </trkpt>
      <trkpt lat="41.71368" lon="9.22431">
        <ele>1176.79</ele>
        <time>2022-05-01T10:55:13Z</time>
      </trkpt>
      <trkpt lat="41.71371" lon="9.2244">
        <ele>1178.23</ele>
        <time>2022-05-01T10:55:24Z</time>
      </trkpt>
      <trkpt lat="41.71375" lon="9.22441">
        <ele>1178.71</ele>
        <time>2022-05-01T10:55:34Z</time>
      </trkpt>
      <trkpt lat="41.71378" lon="9.22443">
        <ele>1180.64</ele>
        <time>2022-05-01T10:55:45Z</time>
      </trkpt>
      <trkpt lat="41.71379" lon="9.22455">
        <ele>1179.67</ele>
        <time>2022-05-01T10:55:54Z</time>
      </trkpt>
      <trkpt lat="41.71379" lon="9.22456">
        <ele>1179.19</ele>
        <time>2022-05-01T10:55:55Z</time>
      </trkpt>
      <trkpt lat="41.71378" lon="9.22464">
        <ele>1178.23</ele>
        <time>2022-05-01T10:56:03Z</time>
      </trkpt>
      <trkpt lat="41.71377" lon="9.22466">
        <ele>1178.23</ele>
        <time>2022-05-01T10:56:04Z</time>
      </trkpt>
      <trkpt lat="41.71377" lon="9.22469">
        <ele>1178.23</ele>
        <time>2022-05-01T10:56:05Z</time>
      </trkpt>
      <trkpt lat="41.71378" lon="9.22477">
        <ele>1177.27</ele>
        <time>2022-05-01T10:56:12Z</time>
      </trkpt>
      <trkpt lat="41.71379" lon="9.2248">
        <ele>1177.27</ele>
        <time>2022-05-01T10:56:13Z</time>
      </trkpt>
      <trkpt lat="41.71379" lon="9.22482">
        <ele>1176.79</ele>
        <time>2022-05-01T10:56:14Z</time>
      </trkpt>
      <trkpt lat="41.7138" lon="9.22486">
        <ele>1176.31</ele>
        <time>2022-05-01T10:56:16Z</time>
      </trkpt>
      <trkpt lat="41.71379" lon="9.22488">
        <ele>1175.83</ele>
        <time>2022-05-01T10:56:17Z</time>
      </trkpt>
      <trkpt lat="41.71379" lon="9.22489">
        <ele>1175.35</ele>
        <time>2022-05-01T10:56:18Z</time>
      </trkpt>
      <trkpt lat="41.71377" lon="9.22488">
        <ele>1174.87</ele>
        <time>2022-05-01T10:56:20Z</time>
      </trkpt>
      <trkpt lat="41.71375" lon="9.22487">
        <ele>1174.87</ele>
        <time>2022-05-01T10:56:21Z</time>
      </trkpt>
      <trkpt lat="41.7137" lon="9.22481">
        <ele>1171.98</ele>
        <time>2022-05-01T10:56:33Z</time>
      </trkpt>
      <trkpt lat="41.7136" lon="9.22474">
        <ele>1170.54</ele>
        <time>2022-05-01T10:56:45Z</time>
      </trkpt>
      <trkpt lat="41.71351" lon="9.22464">
        <ele>1169.1</ele>
        <time>2022-05-01T10:56:53Z</time>
      </trkpt>
      <trkpt lat="41.71347" lon="9.22459">
        <ele>1168.14</ele>
        <time>2022-05-01T10:56:59Z</time>
      </trkpt>
      <trkpt lat="41.71346" lon="9.22457">
        <ele>1168.14</ele>
        <time>2022-05-01T10:57:00Z</time>
      </trkpt>
      <trkpt lat="41.71344" lon="9.22456">
        <ele>1168.14</ele>
        <time>2022-05-01T10:57:01Z</time>
      </trkpt>
      <trkpt lat="41.71343" lon="9.22454">
        <ele>1167.66</ele>
        <time>2022-05-01T10:57:02Z</time>
      </trkpt>
      <trkpt lat="41.71341" lon="9.22452">
        <ele>1168.14</ele>
        <time>2022-05-01T10:57:03Z</time>
      </trkpt>
      <trkpt lat="41.7134" lon="9.2245">
        <ele>1167.66</ele>
        <time>2022-05-01T10:57:04Z</time>
      </trkpt>
      <trkpt lat="41.71339" lon="9.22448">
        <ele>1167.66</ele>
        <time>2022-05-01T10:57:05Z</time>
      </trkpt>
      <trkpt lat="41.71338" lon="9.22447">
        <ele>1167.18</ele>
        <time>2022-05-01T10:57:06Z</time>
      </trkpt>
      <trkpt lat="41.71331" lon="9.22438">
        <ele>1166.7</ele>
        <time>2022-05-01T10:57:18Z</time>
      </trkpt>
      <trkpt lat="41.7133" lon="9.22436">
        <ele>1166.22</ele>
        <time>2022-05-01T10:57:23Z</time>
      </trkpt>
      <trkpt lat="41.71327" lon="9.22424">
        <ele>1164.29</ele>
        <time>2022-05-01T10:57:34Z</time>
      </trkpt>
      <trkpt lat="41.71326" lon="9.22422">
        <ele>1164.29</ele>
        <time>2022-05-01T10:57:35Z</time>
      </trkpt>
      <trkpt lat="41.71325" lon="9.22421">
        <ele>1163.81</ele>
        <time>2022-05-01T10:57:36Z</time>
      </trkpt>
      <trkpt lat="41.7132" lon="9.22407">
        <ele>1162.85</ele>
        <time>2022-05-01T10:57:43Z</time>
      </trkpt>
      <trkpt lat="41.71314" lon="9.22391">
        <ele>1161.89</ele>
        <time>2022-05-01T10:57:56Z</time>
      </trkpt>
      <trkpt lat="41.71313" lon="9.22389">
        <ele>1161.41</ele>
        <time>2022-05-01T10:57:57Z</time>
      </trkpt>
      <trkpt lat="41.71312" lon="9.22373">
        <ele>1159.49</ele>
        <time>2022-05-01T10:58:10Z</time>
      </trkpt>
      <trkpt lat="41.71304" lon="9.22353">
        <ele>1158.05</ele>
        <time>2022-05-01T10:58:25Z</time>
      </trkpt>
      <trkpt lat="41.71303" lon="9.2235">
        <ele>1158.05</ele>
        <time>2022-05-01T10:58:26Z</time>
      </trkpt>
      <trkpt lat="41.71292" lon="9.22326">
        <ele>1156.6</ele>
        <time>2022-05-01T10:58:43Z</time>
      </trkpt>
      <trkpt lat="41.71284" lon="9.22312">
        <ele>1155.16</ele>
        <time>2022-05-01T10:58:57Z</time>
      </trkpt>
      <trkpt lat="41.71276" lon="9.22309">
        <ele>1155.16</ele>
        <time>2022-05-01T10:59:16Z</time>
      </trkpt>
      <trkpt lat="41.71263" lon="9.22306">
        <ele>1154.2</ele>
        <time>2022-05-01T10:59:34Z</time>
      </trkpt>
      <trkpt lat="41.71254" lon="9.22305">
        <ele>1153.72</ele>
        <time>2022-05-01T10:59:43Z</time>
      </trkpt>
      <trkpt lat="41.71253" lon="9.22305">
        <ele>1153.24</ele>
        <time>2022-05-01T10:59:44Z</time>
      </trkpt>
      <trkpt lat="41.71243" lon="9.22301">
        <ele>1152.76</ele>
        <time>2022-05-01T10:59:54Z</time>
      </trkpt>
      <trkpt lat="41.71235" lon="9.22289">
        <ele>1151.8</ele>
        <time>2022-05-01T11:00:03Z</time>
      </trkpt>
      <trkpt lat="41.71231" lon="9.22267">
        <ele>1150.35</ele>
        <time>2022-05-01T11:00:18Z</time>
      </trkpt>
      <trkpt lat="41.71234" lon="9.22261">
        <ele>1150.35</ele>
        <time>2022-05-01T11:00:24Z</time>
      </trkpt>
      <trkpt lat="41.71247" lon="9.22245">
        <ele>1147.95</ele>
        <time>2022-05-01T11:00:41Z</time>
      </trkpt>
      <trkpt lat="41.7126" lon="9.22228">
        <ele>1146.51</ele>
        <time>2022-05-01T11:00:56Z</time>
      </trkpt>
      <trkpt lat="41.71271" lon="9.22214">
        <ele>1146.03</ele>
        <time>2022-05-01T11:01:11Z</time>
      </trkpt>
      <trkpt lat="41.71283" lon="9.22206">
        <ele>1145.07</ele>
        <time>2022-05-01T11:01:27Z</time>
      </trkpt>
      <trkpt lat="41.71284" lon="9.22205">
        <ele>1145.07</ele>
        <time>2022-05-01T11:01:29Z</time>
      </trkpt>
      <trkpt lat="41.71285" lon="9.222">
        <ele>1145.07</ele>
        <time>2022-05-01T11:01:43Z</time>
      </trkpt>
      <trkpt lat="41.71285" lon="9.22197">
        <ele>1143.63</ele>
        <time>2022-05-01T11:01:45Z</time>
      </trkpt>
      <trkpt lat="41.71287" lon="9.22195">
        <ele>1143.63</ele>
        <time>2022-05-01T11:01:47Z</time>
      </trkpt>
      <trkpt lat="41.71287" lon="9.22193">
        <ele>1143.14</ele>
        <time>2022-05-01T11:01:49Z</time>
      </trkpt>
      <trkpt lat="41.71288" lon="9.22179">
        <ele>1141.7</ele>
        <time>2022-05-01T11:02:02Z</time>
      </trkpt>
      <trkpt lat="41.71288" lon="9.22172">
        <ele>1140.26</ele>
        <time>2022-05-01T11:02:07Z</time>
      </trkpt>
      <trkpt lat="41.71286" lon="9.22163">
        <ele>1138.82</ele>
        <time>2022-05-01T11:02:13Z</time>
      </trkpt>
      <trkpt lat="41.71286" lon="9.22161">
        <ele>1138.34</ele>
        <time>2022-05-01T11:02:14Z</time>
      </trkpt>
      <trkpt lat="41.71282" lon="9.22153">
        <ele>1135.94</ele>
        <time>2022-05-01T11:02:21Z</time>
      </trkpt>
      <trkpt lat="41.71281" lon="9.22152">
        <ele>1136.42</ele>
        <time>2022-05-01T11:02:22Z</time>
      </trkpt>
      <trkpt lat="41.71279" lon="9.2215">
        <ele>1135.94</ele>
        <time>2022-05-01T11:02:23Z</time>
      </trkpt>
      <trkpt lat="41.7126" lon="9.22142">
        <ele>1134.49</ele>
        <time>2022-05-01T11:02:34Z</time>
      </trkpt>
      <trkpt lat="41.71252" lon="9.22138">
        <ele>1133.05</ele>
        <time>2022-05-01T11:02:47Z</time>
      </trkpt>
      <trkpt lat="41.71243" lon="9.22134">
        <ele>1131.13</ele>
        <time>2022-05-01T11:02:58Z</time>
      </trkpt>
      <trkpt lat="41.71232" lon="9.22131">
        <ele>1129.69</ele>
        <time>2022-05-01T11:03:07Z</time>
      </trkpt>
      <trkpt lat="41.71213" lon="9.22122">
        <ele>1128.24</ele>
        <time>2022-05-01T11:03:16Z</time>
      </trkpt>
      <trkpt lat="41.7121" lon="9.2212">
        <ele>1127.28</ele>
        <time>2022-05-01T11:03:20Z</time>
      </trkpt>
      <trkpt lat="41.71208" lon="9.22119">
        <ele>1126.8</ele>
        <time>2022-05-01T11:03:21Z</time>
      </trkpt>
      <trkpt lat="41.71206" lon="9.22119">
        <ele>1126.32</ele>
        <time>2022-05-01T11:03:22Z</time>
      </trkpt>
      <trkpt lat="41.71204" lon="9.22119">
        <ele>1126.8</ele>
        <time>2022-05-01T11:03:23Z</time>
      </trkpt>
      <trkpt lat="41.71202" lon="9.22118">
        <ele>1126.8</ele>
        <time>2022-05-01T11:03:24Z</time>
      </trkpt>
      <trkpt lat="41.712" lon="9.22118">
        <ele>1126.32</ele>
        <time>2022-05-01T11:03:25Z</time>
      </trkpt>
      <trkpt lat="41.71199" lon="9.22117">
        <ele>1125.84</ele>
        <time>2022-05-01T11:03:26Z</time>
      </trkpt>
      <trkpt lat="41.71196" lon="9.22112">
        <ele>1124.88</ele>
        <time>2022-05-01T11:03:38Z</time>
      </trkpt>
      <trkpt lat="41.71192" lon="9.22104">
        <ele>1123.92</ele>
        <time>2022-05-01T11:03:59Z</time>
      </trkpt>
      <trkpt lat="41.71183" lon="9.22094">
        <ele>1123.44</ele>
        <time>2022-05-01T11:04:10Z</time>
      </trkpt>
      <trkpt lat="41.71182" lon="9.22094">
        <ele>1122.96</ele>
        <time>2022-05-01T11:04:11Z</time>
      </trkpt>
      <trkpt lat="41.71177" lon="9.22087">
        <ele>1122.96</ele>
        <time>2022-05-01T11:04:22Z</time>
      </trkpt>
      <trkpt lat="41.71175" lon="9.22086">
        <ele>1123.44</ele>
        <time>2022-05-01T11:04:23Z</time>
      </trkpt>
      <trkpt lat="41.71174" lon="9.22085">
        <ele>1123.44</ele>
        <time>2022-05-01T11:04:24Z</time>
      </trkpt>
      <trkpt lat="41.71173" lon="9.22083">
        <ele>1123.44</ele>
        <time>2022-05-01T11:04:25Z</time>
      </trkpt>
      <trkpt lat="41.71168" lon="9.22075">
        <ele>1122.96</ele>
        <time>2022-05-01T11:04:32Z</time>
      </trkpt>
      <trkpt lat="41.71159" lon="9.22061">
        <ele>1121.03</ele>
        <time>2022-05-01T11:04:47Z</time>
      </trkpt>
      <trkpt lat="41.71148" lon="9.22051">
        <ele>1121.03</ele>
        <time>2022-05-01T11:04:58Z</time>
      </trkpt>
      <trkpt lat="41.71136" lon="9.2204">
        <ele>1119.11</ele>
        <time>2022-05-01T11:05:10Z</time>
      </trkpt>
      <trkpt lat="41.71121" lon="9.22026">
        <ele>1116.71</ele>
        <time>2022-05-01T11:05:20Z</time>
      </trkpt>
      <trkpt lat="41.71112" lon="9.22014">
        <ele>1115.27</ele>
        <time>2022-05-01T11:05:31Z</time>
      </trkpt>
      <trkpt lat="41.71113" lon="9.22012">
        <ele>1114.79</ele>
        <time>2022-05-01T11:05:45Z</time>
      </trkpt>
      <trkpt lat="41.71107" lon="9.22001">
        <ele>1114.31</ele>
        <time>2022-05-01T11:06:04Z</time>
      </trkpt>
      <trkpt lat="41.71099" lon="9.21995">
        <ele>1111.42</ele>
        <time>2022-05-01T11:06:16Z</time>
      </trkpt>
      <trkpt lat="41.71099" lon="9.21992">
        <ele>1112.86</ele>
        <time>2022-05-01T11:07:20Z</time>
      </trkpt>
      <trkpt lat="41.71096" lon="9.21993">
        <ele>1111.9</ele>
        <time>2022-05-01T11:07:23Z</time>
      </trkpt>
      <trkpt lat="41.71091" lon="9.21992">
        <ele>1112.38</ele>
        <time>2022-05-01T11:07:26Z</time>
      </trkpt>
      <trkpt lat="41.71089" lon="9.21992">
        <ele>1112.38</ele>
        <time>2022-05-01T11:07:27Z</time>
      </trkpt>
      <trkpt lat="41.71088" lon="9.21992">
        <ele>1110.94</ele>
        <time>2022-05-01T11:07:28Z</time>
      </trkpt>
      <trkpt lat="41.71086" lon="9.21992">
        <ele>1110.94</ele>
        <time>2022-05-01T11:07:29Z</time>
      </trkpt>
      <trkpt lat="41.71084" lon="9.21992">
        <ele>1110.94</ele>
        <time>2022-05-01T11:07:30Z</time>
      </trkpt>
      <trkpt lat="41.71079" lon="9.21995">
        <ele>1108.54</ele>
        <time>2022-05-01T11:07:41Z</time>
      </trkpt>
      <trkpt lat="41.7106" lon="9.21998">
        <ele>1107.1</ele>
        <time>2022-05-01T11:07:53Z</time>
      </trkpt>
      <trkpt lat="41.71047" lon="9.21998">
        <ele>1106.13</ele>
        <time>2022-05-01T11:08:07Z</time>
      </trkpt>
      <trkpt lat="41.71037" lon="9.22004">
        <ele>1104.69</ele>
        <time>2022-05-01T11:08:18Z</time>
      </trkpt>
      <trkpt lat="41.7103" lon="9.22006">
        <ele>1103.25</ele>
        <time>2022-05-01T11:08:28Z</time>
      </trkpt>
      <trkpt lat="41.71028" lon="9.22007">
        <ele>1103.25</ele>
        <time>2022-05-01T11:08:29Z</time>
      </trkpt>
      <trkpt lat="41.71026" lon="9.22008">
        <ele>1103.25</ele>
        <time>2022-05-01T11:08:30Z</time>
      </trkpt>
      <trkpt lat="41.71024" lon="9.22008">
        <ele>1102.77</ele>
        <time>2022-05-01T11:08:31Z</time>
      </trkpt>
      <trkpt lat="41.71022" lon="9.22009">
        <ele>1103.25</ele>
        <time>2022-05-01T11:08:32Z</time>
      </trkpt>
      <trkpt lat="41.7102" lon="9.2201">
        <ele>1103.25</ele>
        <time>2022-05-01T11:08:33Z</time>
      </trkpt>
      <trkpt lat="41.71018" lon="9.22011">
        <ele>1102.77</ele>
        <time>2022-05-01T11:08:34Z</time>
      </trkpt>
      <trkpt lat="41.71017" lon="9.22012">
        <ele>1102.77</ele>
        <time>2022-05-01T11:08:35Z</time>
      </trkpt>
      <trkpt lat="41.71017" lon="9.22015">
        <ele>1102.77</ele>
        <time>2022-05-01T11:08:36Z</time>
      </trkpt>
      <trkpt lat="41.71016" lon="9.22017">
        <ele>1102.77</ele>
        <time>2022-05-01T11:08:37Z</time>
      </trkpt>
      <trkpt lat="41.71015" lon="9.22019">
        <ele>1103.25</ele>
        <time>2022-05-01T11:08:38Z</time>
      </trkpt>
      <trkpt lat="41.71014" lon="9.2202">
        <ele>1102.77</ele>
        <time>2022-05-01T11:08:39Z</time>
      </trkpt>
      <trkpt lat="41.7101" lon="9.22027">
        <ele>1102.29</ele>
        <time>2022-05-01T11:08:49Z</time>
      </trkpt>
      <trkpt lat="41.7101" lon="9.22028">
        <ele>1102.29</ele>
        <time>2022-05-01T11:08:50Z</time>
      </trkpt>
      <trkpt lat="41.71007" lon="9.22041">
        <ele>1100.85</ele>
        <time>2022-05-01T11:08:58Z</time>
      </trkpt>
      <trkpt lat="41.71006" lon="9.22045">
        <ele>1101.81</ele>
        <time>2022-05-01T11:08:59Z</time>
      </trkpt>
      <trkpt lat="41.71005" lon="9.22048">
        <ele>1100.85</ele>
        <time>2022-05-01T11:09:00Z</time>
      </trkpt>
      <trkpt lat="41.70998" lon="9.2206">
        <ele>1099.89</ele>
        <time>2022-05-01T11:09:12Z</time>
      </trkpt>
      <trkpt lat="41.70989" lon="9.22066">
        <ele>1099.4</ele>
        <time>2022-05-01T11:09:21Z</time>
      </trkpt>
      <trkpt lat="41.70988" lon="9.22066">
        <ele>1098.44</ele>
        <time>2022-05-01T11:09:22Z</time>
      </trkpt>
      <trkpt lat="41.70986" lon="9.22066">
        <ele>1098.44</ele>
        <time>2022-05-01T11:09:23Z</time>
      </trkpt>
      <trkpt lat="41.70984" lon="9.22066">
        <ele>1098.44</ele>
        <time>2022-05-01T11:09:24Z</time>
      </trkpt>
      <trkpt lat="41.70983" lon="9.22066">
        <ele>1098.92</ele>
        <time>2022-05-01T11:09:25Z</time>
      </trkpt>
      <trkpt lat="41.70981" lon="9.22066">
        <ele>1098.44</ele>
        <time>2022-05-01T11:09:26Z</time>
      </trkpt>
      <trkpt lat="41.70979" lon="9.22067">
        <ele>1097.96</ele>
        <time>2022-05-01T11:09:28Z</time>
      </trkpt>
      <trkpt lat="41.70971" lon="9.2207">
        <ele>1097.48</ele>
        <time>2022-05-01T11:09:39Z</time>
      </trkpt>
      <trkpt lat="41.7097" lon="9.22071">
        <ele>1097.48</ele>
        <time>2022-05-01T11:09:40Z</time>
      </trkpt>
      <trkpt lat="41.70956" lon="9.22071">
        <ele>1095.56</ele>
        <time>2022-05-01T11:09:49Z</time>
      </trkpt>
      <trkpt lat="41.7095" lon="9.22068">
        <ele>1094.6</ele>
        <time>2022-05-01T11:09:56Z</time>
      </trkpt>
      <trkpt lat="41.70948" lon="9.22067">
        <ele>1094.6</ele>
        <time>2022-05-01T11:09:58Z</time>
      </trkpt>
      <trkpt lat="41.70946" lon="9.22067">
        <ele>1093.64</ele>
        <time>2022-05-01T11:10:02Z</time>
      </trkpt>
      <trkpt lat="41.70945" lon="9.22065">
        <ele>1093.64</ele>
        <time>2022-05-01T11:10:04Z</time>
      </trkpt>
      <trkpt lat="41.70943" lon="9.22063">
        <ele>1093.16</ele>
        <time>2022-05-01T11:10:05Z</time>
      </trkpt>
      <trkpt lat="41.70941" lon="9.22062">
        <ele>1093.64</ele>
        <time>2022-05-01T11:10:06Z</time>
      </trkpt>
      <trkpt lat="41.70942" lon="9.2206">
        <ele>1092.2</ele>
        <time>2022-05-01T11:10:16Z</time>
      </trkpt>
      <trkpt lat="41.70947" lon="9.22058">
        <ele>1091.71</ele>
        <time>2022-05-01T11:10:20Z</time>
      </trkpt>
      <trkpt lat="41.70955" lon="9.22048">
        <ele>1090.75</ele>
        <time>2022-05-01T11:10:31Z</time>
      </trkpt>
      <trkpt lat="41.70964" lon="9.22031">
        <ele>1090.75</ele>
        <time>2022-05-01T11:10:45Z</time>
      </trkpt>
      <trkpt lat="41.70969" lon="9.22016">
        <ele>1090.27</ele>
        <time>2022-05-01T11:10:56Z</time>
      </trkpt>
      <trkpt lat="41.70973" lon="9.21999">
        <ele>1089.31</ele>
        <time>2022-05-01T11:11:07Z</time>
      </trkpt>
      <trkpt lat="41.70978" lon="9.21997">
        <ele>1089.31</ele>
        <time>2022-05-01T11:11:33Z</time>
      </trkpt>
      <trkpt lat="41.70977" lon="9.21995">
        <ele>1089.31</ele>
        <time>2022-05-01T11:11:57Z</time>
      </trkpt>
      <trkpt lat="41.70979" lon="9.21985">
        <ele>1089.79</ele>
        <time>2022-05-01T11:12:25Z</time>
      </trkpt>
      <trkpt lat="41.70982" lon="9.21963">
        <ele>1088.83</ele>
        <time>2022-05-01T11:12:38Z</time>
      </trkpt>
      <trkpt lat="41.70987" lon="9.21944">
        <ele>1088.35</ele>
        <time>2022-05-01T11:12:52Z</time>
      </trkpt>
      <trkpt lat="41.71" lon="9.21921">
        <ele>1087.87</ele>
        <time>2022-05-01T11:13:08Z</time>
      </trkpt>
      <trkpt lat="41.71013" lon="9.21906">
        <ele>1086.91</ele>
        <time>2022-05-01T11:13:22Z</time>
      </trkpt>
      <trkpt lat="41.71022" lon="9.21896">
        <ele>1085.47</ele>
        <time>2022-05-01T11:13:30Z</time>
      </trkpt>
      <trkpt lat="41.7103" lon="9.21879">
        <ele>1084.99</ele>
        <time>2022-05-01T11:13:42Z</time>
      </trkpt>
      <trkpt lat="41.71035" lon="9.21861">
        <ele>1082.1</ele>
        <time>2022-05-01T11:13:54Z</time>
      </trkpt>
      <trkpt lat="41.71033" lon="9.21842">
        <ele>1081.14</ele>
        <time>2022-05-01T11:14:05Z</time>
      </trkpt>
      <trkpt lat="41.71027" lon="9.2182">
        <ele>1078.74</ele>
        <time>2022-05-01T11:14:17Z</time>
      </trkpt>
      <trkpt lat="41.71023" lon="9.21806">
        <ele>1077.78</ele>
        <time>2022-05-01T11:14:31Z</time>
      </trkpt>
      <trkpt lat="41.71015" lon="9.21768">
        <ele>1075.85</ele>
        <time>2022-05-01T11:14:47Z</time>
      </trkpt>
      <trkpt lat="41.71013" lon="9.21751">
        <ele>1072.97</ele>
        <time>2022-05-01T11:15:00Z</time>
      </trkpt>
      <trkpt lat="41.71022" lon="9.21733">
        <ele>1071.53</ele>
        <time>2022-05-01T11:15:15Z</time>
      </trkpt>
      <trkpt lat="41.71029" lon="9.21729">
        <ele>1071.05</ele>
        <time>2022-05-01T11:15:22Z</time>
      </trkpt>
      <trkpt lat="41.71045" lon="9.21715">
        <ele>1070.57</ele>
        <time>2022-05-01T11:15:36Z</time>
      </trkpt>
      <trkpt lat="41.71061" lon="9.21703">
        <ele>1069.6</ele>
        <time>2022-05-01T11:15:53Z</time>
      </trkpt>
      <trkpt lat="41.71074" lon="9.21691">
        <ele>1068.16</ele>
        <time>2022-05-01T11:16:07Z</time>
      </trkpt>
      <trkpt lat="41.71076" lon="9.21684">
        <ele>1067.68</ele>
        <time>2022-05-01T11:16:24Z</time>
      </trkpt>
      <trkpt lat="41.71079" lon="9.21657">
        <ele>1065.76</ele>
        <time>2022-05-01T11:16:51Z</time>
      </trkpt>
      <trkpt lat="41.71074" lon="9.2163">
        <ele>1063.84</ele>
        <time>2022-05-01T11:17:08Z</time>
      </trkpt>
      <trkpt lat="41.7107" lon="9.21614">
        <ele>1062.87</ele>
        <time>2022-05-01T11:17:24Z</time>
      </trkpt>
      <trkpt lat="41.71057" lon="9.21603">
        <ele>1060.47</ele>
        <time>2022-05-01T11:17:39Z</time>
      </trkpt>
      <trkpt lat="41.71032" lon="9.216">
        <ele>1058.55</ele>
        <time>2022-05-01T11:17:58Z</time>
      </trkpt>
      <trkpt lat="41.7101" lon="9.21595">
        <ele>1057.59</ele>
        <time>2022-05-01T11:18:17Z</time>
      </trkpt>
      <trkpt lat="41.70999" lon="9.21579">
        <ele>1055.67</ele>
        <time>2022-05-01T11:18:37Z</time>
      </trkpt>
      <trkpt lat="41.70996" lon="9.21559">
        <ele>1055.67</ele>
        <time>2022-05-01T11:19:02Z</time>
      </trkpt>
      <trkpt lat="41.70996" lon="9.21566">
        <ele>1057.11</ele>
        <time>2022-05-01T11:19:33Z</time>
      </trkpt>
      <trkpt lat="41.70997" lon="9.2156">
        <ele>1056.63</ele>
        <time>2022-05-01T11:20:02Z</time>
      </trkpt>
      <trkpt lat="41.70996" lon="9.21567">
        <ele>1056.63</ele>
        <time>2022-05-01T11:20:35Z</time>
      </trkpt>
      <trkpt lat="41.70996" lon="9.21563">
        <ele>1057.59</ele>
        <time>2022-05-01T11:21:05Z</time>
      </trkpt>
      <trkpt lat="41.70979" lon="9.2157">
        <ele>1056.15</ele>
        <time>2022-05-01T11:21:20Z</time>
      </trkpt>
      <trkpt lat="41.7097" lon="9.21564">
        <ele>1053.74</ele>
        <time>2022-05-01T11:21:36Z</time>
      </trkpt>
      <trkpt lat="41.70957" lon="9.2154">
        <ele>1051.34</ele>
        <time>2022-05-01T11:21:52Z</time>
      </trkpt>
      <trkpt lat="41.70934" lon="9.21526">
        <ele>1048.94</ele>
        <time>2022-05-01T11:22:11Z</time>
      </trkpt>
      <trkpt lat="41.70918" lon="9.21518">
        <ele>1047.49</ele>
        <time>2022-05-01T11:22:26Z</time>
      </trkpt>
      <trkpt lat="41.70903" lon="9.21511">
        <ele>1046.53</ele>
        <time>2022-05-01T11:22:40Z</time>
      </trkpt>
      <trkpt lat="41.70889" lon="9.21499">
        <ele>1045.57</ele>
        <time>2022-05-01T11:22:55Z</time>
      </trkpt>
      <trkpt lat="41.70877" lon="9.2149">
        <ele>1045.09</ele>
        <time>2022-05-01T11:23:14Z</time>
      </trkpt>
      <trkpt lat="41.70864" lon="9.21481">
        <ele>1044.61</ele>
        <time>2022-05-01T11:23:34Z</time>
      </trkpt>
      <trkpt lat="41.70846" lon="9.21468">
        <ele>1044.13</ele>
        <time>2022-05-01T11:23:48Z</time>
      </trkpt>
      <trkpt lat="41.70839" lon="9.21469">
        <ele>1044.13</ele>
        <time>2022-05-01T11:24:05Z</time>
      </trkpt>
      <trkpt lat="41.70826" lon="9.2146">
        <ele>1043.17</ele>
        <time>2022-05-01T11:24:24Z</time>
      </trkpt>
      <trkpt lat="41.70814" lon="9.21459">
        <ele>1043.17</ele>
        <time>2022-05-01T11:24:34Z</time>
      </trkpt>
      <trkpt lat="41.70794" lon="9.21462">
        <ele>1042.69</ele>
        <time>2022-05-01T11:24:48Z</time>
      </trkpt>
      <trkpt lat="41.70786" lon="9.21462">
        <ele>1041.73</ele>
        <time>2022-05-01T11:24:53Z</time>
      </trkpt>
      <trkpt lat="41.70772" lon="9.21462">
        <ele>1041.73</ele>
        <time>2022-05-01T11:25:04Z</time>
      </trkpt>
      <trkpt lat="41.70768" lon="9.21462">
        <ele>1041.25</ele>
        <time>2022-05-01T11:25:07Z</time>
      </trkpt>
      <trkpt lat="41.70767" lon="9.21461">
        <ele>1041.25</ele>
        <time>2022-05-01T11:25:08Z</time>
      </trkpt>
      <trkpt lat="41.70765" lon="9.21461">
        <ele>1041.25</ele>
        <time>2022-05-01T11:25:09Z</time>
      </trkpt>
      <trkpt lat="41.70764" lon="9.21461">
        <ele>1041.25</ele>
        <time>2022-05-01T11:25:10Z</time>
      </trkpt>
      <trkpt lat="41.70762" lon="9.21461">
        <ele>1040.76</ele>
        <time>2022-05-01T11:25:11Z</time>
      </trkpt>
      <trkpt lat="41.70761" lon="9.2146">
        <ele>1040.76</ele>
        <time>2022-05-01T11:25:12Z</time>
      </trkpt>
      <trkpt lat="41.70759" lon="9.2146">
        <ele>1040.76</ele>
        <time>2022-05-01T11:25:13Z</time>
      </trkpt>
      <trkpt lat="41.70747" lon="9.21463">
        <ele>1039.32</ele>
        <time>2022-05-01T11:25:25Z</time>
      </trkpt>
      <trkpt lat="41.70728" lon="9.21465">
        <ele>1037.88</ele>
        <time>2022-05-01T11:25:40Z</time>
      </trkpt>
      <trkpt lat="41.70711" lon="9.21465">
        <ele>1037.4</ele>
        <time>2022-05-01T11:25:50Z</time>
      </trkpt>
      <trkpt lat="41.70708" lon="9.21464">
        <ele>1035.96</ele>
        <time>2022-05-01T11:25:52Z</time>
      </trkpt>
      <trkpt lat="41.70698" lon="9.21462">
        <ele>1034.52</ele>
        <time>2022-05-01T11:26:03Z</time>
      </trkpt>
      <trkpt lat="41.70697" lon="9.21462">
        <ele>1035</ele>
        <time>2022-05-01T11:26:04Z</time>
      </trkpt>
      <trkpt lat="41.70687" lon="9.21462">
        <ele>1033.55</ele>
        <time>2022-05-01T11:26:12Z</time>
      </trkpt>
      <trkpt lat="41.70685" lon="9.21462">
        <ele>1033.07</ele>
        <time>2022-05-01T11:26:13Z</time>
      </trkpt>
      <trkpt lat="41.70683" lon="9.21463">
        <ele>1033.07</ele>
        <time>2022-05-01T11:26:14Z</time>
      </trkpt>
      <trkpt lat="41.70682" lon="9.21463">
        <ele>1033.07</ele>
        <time>2022-05-01T11:26:15Z</time>
      </trkpt>
      <trkpt lat="41.7068" lon="9.21464">
        <ele>1032.59</ele>
        <time>2022-05-01T11:26:16Z</time>
      </trkpt>
      <trkpt lat="41.70678" lon="9.21466">
        <ele>1032.59</ele>
        <time>2022-05-01T11:26:17Z</time>
      </trkpt>
      <trkpt lat="41.70677" lon="9.21467">
        <ele>1032.59</ele>
        <time>2022-05-01T11:26:18Z</time>
      </trkpt>
      <trkpt lat="41.70668" lon="9.21465">
        <ele>1032.59</ele>
        <time>2022-05-01T11:26:30Z</time>
      </trkpt>
      <trkpt lat="41.7066" lon="9.21466">
        <ele>1032.11</ele>
        <time>2022-05-01T11:26:36Z</time>
      </trkpt>
      <trkpt lat="41.70647" lon="9.21459">
        <ele>1029.71</ele>
        <time>2022-05-01T11:26:51Z</time>
      </trkpt>
      <trkpt lat="41.70648" lon="9.21456">
        <ele>1029.23</ele>
        <time>2022-05-01T11:26:53Z</time>
      </trkpt>
      <trkpt lat="41.70647" lon="9.21449">
        <ele>1028.75</ele>
        <time>2022-05-01T11:27:02Z</time>
      </trkpt>
      <trkpt lat="41.70648" lon="9.21447">
        <ele>1028.75</ele>
        <time>2022-05-01T11:27:03Z</time>
      </trkpt>
      <trkpt lat="41.70649" lon="9.21446">
        <ele>1028.75</ele>
        <time>2022-05-01T11:27:04Z</time>
      </trkpt>
      <trkpt lat="41.70649" lon="9.21443">
        <ele>1028.27</ele>
        <time>2022-05-01T11:27:05Z</time>
      </trkpt>
      <trkpt lat="41.70654" lon="9.21428">
        <ele>1027.31</ele>
        <time>2022-05-01T11:27:19Z</time>
      </trkpt>
      <trkpt lat="41.70657" lon="9.21411">
        <ele>1026.83</ele>
        <time>2022-05-01T11:27:32Z</time>
      </trkpt>
      <trkpt lat="41.70654" lon="9.21407">
        <ele>1026.34</ele>
        <time>2022-05-01T11:27:46Z</time>
      </trkpt>
      <trkpt lat="41.70662" lon="9.21389">
        <ele>1024.9</ele>
        <time>2022-05-01T11:28:01Z</time>
      </trkpt>
      <trkpt lat="41.70661" lon="9.21365">
        <ele>1023.46</ele>
        <time>2022-05-01T11:28:14Z</time>
      </trkpt>
      <trkpt lat="41.70662" lon="9.21355">
        <ele>1022.5</ele>
        <time>2022-05-01T11:28:22Z</time>
      </trkpt>
      <trkpt lat="41.70661" lon="9.21354">
        <ele>1022.98</ele>
        <time>2022-05-01T11:28:23Z</time>
      </trkpt>
      <trkpt lat="41.7066" lon="9.21353">
        <ele>1022.5</ele>
        <time>2022-05-01T11:28:24Z</time>
      </trkpt>
      <trkpt lat="41.7065" lon="9.21334">
        <ele>1022.02</ele>
        <time>2022-05-01T11:28:34Z</time>
      </trkpt>
      <trkpt lat="41.70647" lon="9.21326">
        <ele>1020.58</ele>
        <time>2022-05-01T11:28:46Z</time>
      </trkpt>
      <trkpt lat="41.70643" lon="9.21324">
        <ele>1020.58</ele>
        <time>2022-05-01T11:28:50Z</time>
      </trkpt>
      <trkpt lat="41.70639" lon="9.2132">
        <ele>1020.1</ele>
        <time>2022-05-01T11:28:54Z</time>
      </trkpt>
      <trkpt lat="41.70631" lon="9.21308">
        <ele>1019.13</ele>
        <time>2022-05-01T11:29:03Z</time>
      </trkpt>
      <trkpt lat="41.70616" lon="9.21299">
        <ele>1017.69</ele>
        <time>2022-05-01T11:29:18Z</time>
      </trkpt>
      <trkpt lat="41.70599" lon="9.2129">
        <ele>1016.25</ele>
        <time>2022-05-01T11:29:36Z</time>
      </trkpt>
      <trkpt lat="41.70592" lon="9.21284">
        <ele>1015.77</ele>
        <time>2022-05-01T11:29:41Z</time>
      </trkpt>
      <trkpt lat="41.70591" lon="9.21282">
        <ele>1015.77</ele>
        <time>2022-05-01T11:29:42Z</time>
      </trkpt>
      <trkpt lat="41.70589" lon="9.2128">
        <ele>1015.29</ele>
        <time>2022-05-01T11:29:43Z</time>
      </trkpt>
      <trkpt lat="41.70587" lon="9.2128">
        <ele>1015.29</ele>
        <time>2022-05-01T11:29:44Z</time>
      </trkpt>
      <trkpt lat="41.70586" lon="9.21279">
        <ele>1015.29</ele>
        <time>2022-05-01T11:29:45Z</time>
      </trkpt>
      <trkpt lat="41.70584" lon="9.21274">
        <ele>1014.33</ele>
        <time>2022-05-01T11:29:52Z</time>
      </trkpt>
      <trkpt lat="41.70582" lon="9.21272">
        <ele>1014.33</ele>
        <time>2022-05-01T11:29:53Z</time>
      </trkpt>
      <trkpt lat="41.70576" lon="9.21266">
        <ele>1012.41</ele>
        <time>2022-05-01T11:30:01Z</time>
      </trkpt>
      <trkpt lat="41.7057" lon="9.21264">
        <ele>1011.93</ele>
        <time>2022-05-01T11:30:05Z</time>
      </trkpt>
      <trkpt lat="41.70557" lon="9.21249">
        <ele>1010.48</ele>
        <time>2022-05-01T11:30:19Z</time>
      </trkpt>
      <trkpt lat="41.70547" lon="9.21242">
        <ele>1009.04</ele>
        <time>2022-05-01T11:30:30Z</time>
      </trkpt>
      <trkpt lat="41.70546" lon="9.21242">
        <ele>1008.56</ele>
        <time>2022-05-01T11:30:31Z</time>
      </trkpt>
      <trkpt lat="41.70536" lon="9.21238">
        <ele>1008.08</ele>
        <time>2022-05-01T11:30:42Z</time>
      </trkpt>
      <trkpt lat="41.70534" lon="9.21238">
        <ele>1008.08</ele>
        <time>2022-05-01T11:30:58Z</time>
      </trkpt>
      <trkpt lat="41.70527" lon="9.21237">
        <ele>1007.6</ele>
        <time>2022-05-01T11:31:03Z</time>
      </trkpt>
      <trkpt lat="41.70515" lon="9.21241">
        <ele>1004.72</ele>
        <time>2022-05-01T11:31:16Z</time>
      </trkpt>
      <trkpt lat="41.70506" lon="9.21247">
        <ele>1005.2</ele>
        <time>2022-05-01T11:31:31Z</time>
      </trkpt>
      <trkpt lat="41.705" lon="9.21245">
        <ele>1002.79</ele>
        <time>2022-05-01T11:31:42Z</time>
      </trkpt>
      <trkpt lat="41.70499" lon="9.21246">
        <ele>1001.83</ele>
        <time>2022-05-01T11:31:44Z</time>
      </trkpt>
      <trkpt lat="41.70492" lon="9.21258">
        <ele>998.95</ele>
        <time>2022-05-01T11:31:54Z</time>
      </trkpt>
      <trkpt lat="41.70484" lon="9.2128">
        <ele>997.51</ele>
        <time>2022-05-01T11:32:05Z</time>
      </trkpt>
      <trkpt lat="41.70481" lon="9.21283">
        <ele>997.99</ele>
        <time>2022-05-01T11:32:10Z</time>
      </trkpt>
      <trkpt lat="41.7048" lon="9.21284">
        <ele>997.02</ele>
        <time>2022-05-01T11:32:11Z</time>
      </trkpt>
      <trkpt lat="41.70479" lon="9.21285">
        <ele>997.51</ele>
        <time>2022-05-01T11:32:12Z</time>
      </trkpt>
      <trkpt lat="41.70477" lon="9.21287">
        <ele>997.51</ele>
        <time>2022-05-01T11:32:13Z</time>
      </trkpt>
      <trkpt lat="41.70476" lon="9.21288">
        <ele>997.02</ele>
        <time>2022-05-01T11:32:14Z</time>
      </trkpt>
      <trkpt lat="41.70465" lon="9.21296">
        <ele>994.14</ele>
        <time>2022-05-01T11:32:26Z</time>
      </trkpt>
      <trkpt lat="41.70452" lon="9.21299">
        <ele>992.7</ele>
        <time>2022-05-01T11:32:36Z</time>
      </trkpt>
      <trkpt lat="41.70448" lon="9.21302">
        <ele>990.3</ele>
        <time>2022-05-01T11:32:47Z</time>
      </trkpt>
      <trkpt lat="41.70438" lon="9.21301">
        <ele>989.81</ele>
        <time>2022-05-01T11:32:54Z</time>
      </trkpt>
      <trkpt lat="41.70429" lon="9.21301">
        <ele>989.81</ele>
        <time>2022-05-01T11:33:01Z</time>
      </trkpt>
      <trkpt lat="41.70428" lon="9.21301">
        <ele>988.85</ele>
        <time>2022-05-01T11:33:02Z</time>
      </trkpt>
      <trkpt lat="41.70426" lon="9.21301">
        <ele>989.33</ele>
        <time>2022-05-01T11:33:03Z</time>
      </trkpt>
      <trkpt lat="41.70408" lon="9.21302">
        <ele>988.85</ele>
        <time>2022-05-01T11:33:15Z</time>
      </trkpt>
      <trkpt lat="41.70406" lon="9.213">
        <ele>987.89</ele>
        <time>2022-05-01T11:33:20Z</time>
      </trkpt>
      <trkpt lat="41.70404" lon="9.213">
        <ele>988.37</ele>
        <time>2022-05-01T11:33:21Z</time>
      </trkpt>
      <trkpt lat="41.70402" lon="9.21299">
        <ele>988.37</ele>
        <time>2022-05-01T11:33:22Z</time>
      </trkpt>
      <trkpt lat="41.70392" lon="9.21294">
        <ele>987.41</ele>
        <time>2022-05-01T11:33:33Z</time>
      </trkpt>
      <trkpt lat="41.7038" lon="9.21295">
        <ele>986.45</ele>
        <time>2022-05-01T11:33:44Z</time>
      </trkpt>
      <trkpt lat="41.70376" lon="9.21297">
        <ele>985.49</ele>
        <time>2022-05-01T11:33:51Z</time>
      </trkpt>
      <trkpt lat="41.70373" lon="9.213">
        <ele>985.01</ele>
        <time>2022-05-01T11:33:55Z</time>
      </trkpt>
      <trkpt lat="41.7036" lon="9.21293">
        <ele>984.53</ele>
        <time>2022-05-01T11:34:10Z</time>
      </trkpt>
      <trkpt lat="41.70355" lon="9.21292">
        <ele>984.05</ele>
        <time>2022-05-01T11:34:13Z</time>
      </trkpt>
      <trkpt lat="41.70349" lon="9.21292">
        <ele>984.05</ele>
        <time>2022-05-01T11:34:16Z</time>
      </trkpt>
      <trkpt lat="41.70342" lon="9.2129">
        <ele>983.09</ele>
        <time>2022-05-01T11:34:22Z</time>
      </trkpt>
      <trkpt lat="41.70329" lon="9.21285">
        <ele>985.49</ele>
        <time>2022-05-01T11:34:37Z</time>
      </trkpt>
      <trkpt lat="41.70318" lon="9.21285">
        <ele>987.89</ele>
        <time>2022-05-01T11:34:51Z</time>
      </trkpt>
      <trkpt lat="41.70311" lon="9.21299">
        <ele>988.37</ele>
        <time>2022-05-01T11:35:05Z</time>
      </trkpt>
      <trkpt lat="41.70305" lon="9.21306">
        <ele>987.41</ele>
        <time>2022-05-01T11:35:13Z</time>
      </trkpt>
      <trkpt lat="41.70292" lon="9.21311">
        <ele>984.05</ele>
        <time>2022-05-01T11:35:24Z</time>
      </trkpt>
      <trkpt lat="41.70291" lon="9.2131">
        <ele>984.05</ele>
        <time>2022-05-01T11:35:25Z</time>
      </trkpt>
      <trkpt lat="41.70274" lon="9.21318">
        <ele>980.68</ele>
        <time>2022-05-01T11:35:42Z</time>
      </trkpt>
      <trkpt lat="41.70259" lon="9.21316">
        <ele>979.24</ele>
        <time>2022-05-01T11:35:58Z</time>
      </trkpt>
      <trkpt lat="41.70243" lon="9.21312">
        <ele>976.36</ele>
        <time>2022-05-01T11:36:14Z</time>
      </trkpt>
      <trkpt lat="41.70225" lon="9.21304">
        <ele>975.39</ele>
        <time>2022-05-01T11:36:31Z</time>
      </trkpt>
      <trkpt lat="41.70206" lon="9.21303">
        <ele>974.91</ele>
        <time>2022-05-01T11:36:46Z</time>
      </trkpt>
      <trkpt lat="41.70198" lon="9.21308">
        <ele>977.32</ele>
        <time>2022-05-01T11:36:53Z</time>
      </trkpt>
      <trkpt lat="41.70192" lon="9.2131">
        <ele>975.88</ele>
        <time>2022-05-01T11:36:57Z</time>
      </trkpt>
      <trkpt lat="41.7019" lon="9.2131">
        <ele>975.88</ele>
        <time>2022-05-01T11:36:58Z</time>
      </trkpt>
      <trkpt lat="41.70188" lon="9.2131">
        <ele>974.91</ele>
        <time>2022-05-01T11:36:59Z</time>
      </trkpt>
      <trkpt lat="41.70186" lon="9.21311">
        <ele>975.88</ele>
        <time>2022-05-01T11:37:00Z</time>
      </trkpt>
      <trkpt lat="41.70185" lon="9.21311">
        <ele>975.39</ele>
        <time>2022-05-01T11:37:01Z</time>
      </trkpt>
      <trkpt lat="41.70183" lon="9.21312">
        <ele>974.43</ele>
        <time>2022-05-01T11:37:02Z</time>
      </trkpt>
      <trkpt lat="41.70181" lon="9.21312">
        <ele>974.91</ele>
        <time>2022-05-01T11:37:03Z</time>
      </trkpt>
      <trkpt lat="41.7018" lon="9.21313">
        <ele>974.43</ele>
        <time>2022-05-01T11:37:04Z</time>
      </trkpt>
      <trkpt lat="41.70179" lon="9.21313">
        <ele>973.95</ele>
        <time>2022-05-01T11:37:05Z</time>
      </trkpt>
      <trkpt lat="41.70168" lon="9.2131">
        <ele>973.47</ele>
        <time>2022-05-01T11:37:17Z</time>
      </trkpt>
      <trkpt lat="41.70152" lon="9.21306">
        <ele>973.95</ele>
        <time>2022-05-01T11:37:31Z</time>
      </trkpt>
      <trkpt lat="41.70152" lon="9.21306">
        <ele>972.99</ele>
        <time>2022-05-01T11:37:32Z</time>
      </trkpt>
      <trkpt lat="41.70148" lon="9.21304">
        <ele>973.47</ele>
        <time>2022-05-01T11:37:36Z</time>
      </trkpt>
      <trkpt lat="41.70147" lon="9.21304">
        <ele>973.47</ele>
        <time>2022-05-01T11:37:37Z</time>
      </trkpt>
      <trkpt lat="41.70146" lon="9.21304">
        <ele>972.99</ele>
        <time>2022-05-01T11:37:38Z</time>
      </trkpt>
      <trkpt lat="41.70138" lon="9.21301">
        <ele>973.95</ele>
        <time>2022-05-01T11:37:45Z</time>
      </trkpt>
      <trkpt lat="41.70125" lon="9.21292">
        <ele>974.43</ele>
        <time>2022-05-01T11:37:59Z</time>
      </trkpt>
      <trkpt lat="41.7011" lon="9.21288">
        <ele>972.51</ele>
        <time>2022-05-01T11:38:13Z</time>
      </trkpt>
      <trkpt lat="41.70107" lon="9.21289">
        <ele>971.07</ele>
        <time>2022-05-01T11:38:16Z</time>
      </trkpt>
      <trkpt lat="41.70091" lon="9.21296">
        <ele>969.15</ele>
        <time>2022-05-01T11:38:31Z</time>
      </trkpt>
      <trkpt lat="41.70073" lon="9.21299">
        <ele>966.74</ele>
        <time>2022-05-01T11:38:48Z</time>
      </trkpt>
      <trkpt lat="41.70051" lon="9.21301">
        <ele>964.34</ele>
        <time>2022-05-01T11:39:07Z</time>
      </trkpt>
      <trkpt lat="41.70027" lon="9.21295">
        <ele>963.38</ele>
        <time>2022-05-01T11:39:26Z</time>
      </trkpt>
      <trkpt lat="41.70001" lon="9.21294">
        <ele>961.94</ele>
        <time>2022-05-01T11:39:47Z</time>
      </trkpt>
      <trkpt lat="41.69985" lon="9.21287">
        <ele>960.98</ele>
        <time>2022-05-01T11:40:04Z</time>
      </trkpt>
      <trkpt lat="41.69967" lon="9.21287">
        <ele>960.98</ele>
        <time>2022-05-01T11:40:22Z</time>
      </trkpt>
      <trkpt lat="41.69949" lon="9.2129">
        <ele>960.98</ele>
        <time>2022-05-01T11:40:40Z</time>
      </trkpt>
      <trkpt lat="41.69926" lon="9.21287">
        <ele>960.01</ele>
        <time>2022-05-01T11:41:01Z</time>
      </trkpt>
      <trkpt lat="41.69917" lon="9.2129">
        <ele>959.05</ele>
        <time>2022-05-01T11:41:12Z</time>
      </trkpt>
      <trkpt lat="41.69906" lon="9.21308">
        <ele>957.61</ele>
        <time>2022-05-01T11:41:27Z</time>
      </trkpt>
      <trkpt lat="41.69893" lon="9.21324">
        <ele>955.69</ele>
        <time>2022-05-01T11:41:44Z</time>
      </trkpt>
      <trkpt lat="41.69875" lon="9.21329">
        <ele>956.17</ele>
        <time>2022-05-01T11:41:59Z</time>
      </trkpt>
      <trkpt lat="41.69853" lon="9.21323">
        <ele>955.69</ele>
        <time>2022-05-01T11:42:18Z</time>
      </trkpt>
      <trkpt lat="41.69831" lon="9.21322">
        <ele>954.73</ele>
        <time>2022-05-01T11:42:36Z</time>
      </trkpt>
      <trkpt lat="41.6982" lon="9.21324">
        <ele>955.21</ele>
        <time>2022-05-01T11:42:50Z</time>
      </trkpt>
      <trkpt lat="41.69809" lon="9.2132">
        <ele>954.25</ele>
        <time>2022-05-01T11:43:05Z</time>
      </trkpt>
      <trkpt lat="41.69789" lon="9.21321">
        <ele>953.77</ele>
        <time>2022-05-01T11:43:21Z</time>
      </trkpt>
      <trkpt lat="41.69768" lon="9.21331">
        <ele>954.25</ele>
        <time>2022-05-01T11:43:37Z</time>
      </trkpt>
      <trkpt lat="41.69755" lon="9.21326">
        <ele>953.77</ele>
        <time>2022-05-01T11:43:54Z</time>
      </trkpt>
      <trkpt lat="41.69749" lon="9.21332">
        <ele>953.77</ele>
        <time>2022-05-01T11:44:05Z</time>
      </trkpt>
      <trkpt lat="41.69732" lon="9.21337">
        <ele>951.36</ele>
        <time>2022-05-01T11:44:22Z</time>
      </trkpt>
      <trkpt lat="41.69713" lon="9.21338">
        <ele>951.36</ele>
        <time>2022-05-01T11:44:42Z</time>
      </trkpt>
      <trkpt lat="41.69684" lon="9.21342">
        <ele>950.88</ele>
        <time>2022-05-01T11:45:00Z</time>
      </trkpt>
      <trkpt lat="41.69663" lon="9.21344">
        <ele>950.88</ele>
        <time>2022-05-01T11:45:18Z</time>
      </trkpt>
      <trkpt lat="41.6964" lon="9.21343">
        <ele>948.96</ele>
        <time>2022-05-01T11:45:38Z</time>
      </trkpt>
      <trkpt lat="41.69624" lon="9.21325">
        <ele>949.44</ele>
        <time>2022-05-01T11:45:54Z</time>
      </trkpt>
      <trkpt lat="41.69612" lon="9.21301">
        <ele>949.44</ele>
        <time>2022-05-01T11:46:12Z</time>
      </trkpt>
      <trkpt lat="41.69603" lon="9.21282">
        <ele>949.44</ele>
        <time>2022-05-01T11:46:29Z</time>
      </trkpt>
      <trkpt lat="41.69594" lon="9.21256">
        <ele>950.88</ele>
        <time>2022-05-01T11:46:47Z</time>
      </trkpt>
      <trkpt lat="41.69587" lon="9.21249">
        <ele>948.96</ele>
        <time>2022-05-01T11:46:58Z</time>
      </trkpt>
      <trkpt lat="41.6957" lon="9.21242">
        <ele>948.96</ele>
        <time>2022-05-01T11:47:17Z</time>
      </trkpt>
      <trkpt lat="41.69553" lon="9.21233">
        <ele>948</ele>
        <time>2022-05-01T11:47:33Z</time>
      </trkpt>
      <trkpt lat="41.69534" lon="9.21236">
        <ele>946.56</ele>
        <time>2022-05-01T11:47:51Z</time>
      </trkpt>
      <trkpt lat="41.69526" lon="9.21242">
        <ele>945.59</ele>
        <time>2022-05-01T11:47:59Z</time>
      </trkpt>
      <trkpt lat="41.69507" lon="9.21244">
        <ele>945.11</ele>
        <time>2022-05-01T11:48:18Z</time>
      </trkpt>
      <trkpt lat="41.69495" lon="9.21237">
        <ele>944.63</ele>
        <time>2022-05-01T11:48:39Z</time>
      </trkpt>
      <trkpt lat="41.6948" lon="9.21256">
        <ele>944.63</ele>
        <time>2022-05-01T11:48:56Z</time>
      </trkpt>
      <trkpt lat="41.69448" lon="9.21271">
        <ele>944.15</ele>
        <time>2022-05-01T11:49:14Z</time>
      </trkpt>
      <trkpt lat="41.69427" lon="9.21262">
        <ele>943.19</ele>
        <time>2022-05-01T11:49:32Z</time>
      </trkpt>
      <trkpt lat="41.69408" lon="9.21237">
        <ele>942.23</ele>
        <time>2022-05-01T11:49:52Z</time>
      </trkpt>
      <trkpt lat="41.69403" lon="9.21229">
        <ele>942.71</ele>
        <time>2022-05-01T11:49:59Z</time>
      </trkpt>
      <trkpt lat="41.6939" lon="9.21208">
        <ele>942.23</ele>
        <time>2022-05-01T11:50:18Z</time>
      </trkpt>
      <trkpt lat="41.69381" lon="9.21174">
        <ele>941.75</ele>
        <time>2022-05-01T11:50:37Z</time>
      </trkpt>
      <trkpt lat="41.69379" lon="9.21164">
        <ele>941.27</ele>
        <time>2022-05-01T11:50:43Z</time>
      </trkpt>
      <trkpt lat="41.69372" lon="9.21136">
        <ele>941.75</ele>
        <time>2022-05-01T11:51:02Z</time>
      </trkpt>
      <trkpt lat="41.69365" lon="9.21109">
        <ele>941.75</ele>
        <time>2022-05-01T11:51:22Z</time>
      </trkpt>
      <trkpt lat="41.69354" lon="9.21084">
        <ele>941.75</ele>
        <time>2022-05-01T11:51:40Z</time>
      </trkpt>
      <trkpt lat="41.69346" lon="9.21065">
        <ele>942.71</ele>
        <time>2022-05-01T11:51:55Z</time>
      </trkpt>
      <trkpt lat="41.6934" lon="9.21051">
        <ele>942.71</ele>
        <time>2022-05-01T11:52:09Z</time>
      </trkpt>
      <trkpt lat="41.69348" lon="9.21049">
        <ele>941.75</ele>
        <time>2022-05-01T11:52:28Z</time>
      </trkpt>
      <trkpt lat="41.69344" lon="9.21056">
        <ele>942.23</ele>
        <time>2022-05-01T11:53:09Z</time>
      </trkpt>
      <trkpt lat="41.69346" lon="9.21057">
        <ele>941.75</ele>
        <time>2022-05-01T11:53:19Z</time>
      </trkpt>
      <trkpt lat="41.69341" lon="9.2105">
        <ele>942.23</ele>
        <time>2022-05-01T11:53:29Z</time>
      </trkpt>
      <trkpt lat="41.69341" lon="9.21039">
        <ele>942.23</ele>
        <time>2022-05-01T11:53:54Z</time>
      </trkpt>
      <trkpt lat="41.69334" lon="9.21036">
        <ele>942.23</ele>
        <time>2022-05-01T11:54:20Z</time>
      </trkpt>
      <trkpt lat="41.69331" lon="9.21034">
        <ele>941.75</ele>
        <time>2022-05-01T11:54:35Z</time>
      </trkpt>
      <trkpt lat="41.69314" lon="9.21021">
        <ele>941.27</ele>
        <time>2022-05-01T11:54:50Z</time>
      </trkpt>
      <trkpt lat="41.69293" lon="9.21006">
        <ele>939.83</ele>
        <time>2022-05-01T11:55:07Z</time>
      </trkpt>
      <trkpt lat="41.69279" lon="9.20991">
        <ele>939.83</ele>
        <time>2022-05-01T11:55:24Z</time>
      </trkpt>
      <trkpt lat="41.69267" lon="9.2098">
        <ele>939.83</ele>
        <time>2022-05-01T11:55:34Z</time>
      </trkpt>
      <trkpt lat="41.69249" lon="9.20969">
        <ele>938.38</ele>
        <time>2022-05-01T11:55:52Z</time>
      </trkpt>
      <trkpt lat="41.69235" lon="9.20954">
        <ele>935.98</ele>
        <time>2022-05-01T11:56:11Z</time>
      </trkpt>
      <trkpt lat="41.69218" lon="9.20938">
        <ele>936.94</ele>
        <time>2022-05-01T11:56:30Z</time>
      </trkpt>
      <trkpt lat="41.69205" lon="9.20921">
        <ele>935.5</ele>
        <time>2022-05-01T11:56:49Z</time>
      </trkpt>
      <trkpt lat="41.69196" lon="9.2091">
        <ele>934.54</ele>
        <time>2022-05-01T11:57:03Z</time>
      </trkpt>
      <trkpt lat="41.69189" lon="9.20904">
        <ele>935.98</ele>
        <time>2022-05-01T11:57:20Z</time>
      </trkpt>
      <trkpt lat="41.69173" lon="9.20889">
        <ele>936.46</ele>
        <time>2022-05-01T11:57:38Z</time>
      </trkpt>
      <trkpt lat="41.6916" lon="9.20875">
        <ele>935.98</ele>
        <time>2022-05-01T11:57:56Z</time>
      </trkpt>
      <trkpt lat="41.69138" lon="9.20858">
        <ele>935.98</ele>
        <time>2022-05-01T11:58:14Z</time>
      </trkpt>
      <trkpt lat="41.69123" lon="9.20832">
        <ele>935.02</ele>
        <time>2022-05-01T11:58:30Z</time>
      </trkpt>
      <trkpt lat="41.6912" lon="9.20834">
        <ele>934.06</ele>
        <time>2022-05-01T12:01:40Z</time>
      </trkpt>
      <trkpt lat="41.69119" lon="9.20836">
        <ele>934.54</ele>
        <time>2022-05-01T12:01:42Z</time>
      </trkpt>
      <trkpt lat="41.69114" lon="9.20839">
        <ele>934.06</ele>
        <time>2022-05-01T12:01:47Z</time>
      </trkpt>
      <trkpt lat="41.69101" lon="9.20838">
        <ele>934.54</ele>
        <time>2022-05-01T12:02:04Z</time>
      </trkpt>
      <trkpt lat="41.69086" lon="9.2083">
        <ele>934.54</ele>
        <time>2022-05-01T12:02:21Z</time>
      </trkpt>
      <trkpt lat="41.69079" lon="9.20829">
        <ele>935.5</ele>
        <time>2022-05-01T12:02:36Z</time>
      </trkpt>
      <trkpt lat="41.69058" lon="9.20823">
        <ele>935.5</ele>
        <time>2022-05-01T12:02:55Z</time>
      </trkpt>
      <trkpt lat="41.69041" lon="9.20821">
        <ele>935.98</ele>
        <time>2022-05-01T12:03:10Z</time>
      </trkpt>
      <trkpt lat="41.69026" lon="9.2082">
        <ele>936.46</ele>
        <time>2022-05-01T12:03:25Z</time>
      </trkpt>
      <trkpt lat="41.69015" lon="9.2082">
        <ele>936.94</ele>
        <time>2022-05-01T12:03:37Z</time>
      </trkpt>
      <trkpt lat="41.68997" lon="9.20824">
        <ele>937.9</ele>
        <time>2022-05-01T12:03:54Z</time>
      </trkpt>
      <trkpt lat="41.68986" lon="9.20829">
        <ele>938.38</ele>
        <time>2022-05-01T12:04:06Z</time>
      </trkpt>
      <trkpt lat="41.68973" lon="9.20832">
        <ele>939.35</ele>
        <time>2022-05-01T12:04:17Z</time>
      </trkpt>
      <trkpt lat="41.68958" lon="9.20834">
        <ele>939.83</ele>
        <time>2022-05-01T12:04:31Z</time>
      </trkpt>
      <trkpt lat="41.68948" lon="9.20834">
        <ele>939.35</ele>
        <time>2022-05-01T12:04:46Z</time>
      </trkpt>
      <trkpt lat="41.68947" lon="9.20834">
        <ele>939.35</ele>
        <time>2022-05-01T12:04:47Z</time>
      </trkpt>
      <trkpt lat="41.6894" lon="9.20832">
        <ele>937.42</ele>
        <time>2022-05-01T12:04:59Z</time>
      </trkpt>
      <trkpt lat="41.68932" lon="9.20835">
        <ele>936.94</ele>
        <time>2022-05-01T12:05:05Z</time>
      </trkpt>
      <trkpt lat="41.68912" lon="9.20837">
        <ele>935.98</ele>
        <time>2022-05-01T12:05:23Z</time>
      </trkpt>
      <trkpt lat="41.68909" lon="9.20835">
        <ele>936.46</ele>
        <time>2022-05-01T12:05:45Z</time>
      </trkpt>
      <trkpt lat="41.68901" lon="9.20839">
        <ele>934.54</ele>
        <time>2022-05-01T12:06:01Z</time>
      </trkpt>
      <trkpt lat="41.68884" lon="9.20839">
        <ele>933.58</ele>
        <time>2022-05-01T12:06:18Z</time>
      </trkpt>
      <trkpt lat="41.68867" lon="9.20839">
        <ele>934.06</ele>
        <time>2022-05-01T12:06:34Z</time>
      </trkpt>
      <trkpt lat="41.6885" lon="9.20838">
        <ele>934.54</ele>
        <time>2022-05-01T12:06:49Z</time>
      </trkpt>
      <trkpt lat="41.68847" lon="9.20837">
        <ele>933.58</ele>
        <time>2022-05-01T12:06:51Z</time>
      </trkpt>
      <trkpt lat="41.68824" lon="9.20838">
        <ele>930.69</ele>
        <time>2022-05-01T12:07:09Z</time>
      </trkpt>
      <trkpt lat="41.68817" lon="9.20842">
        <ele>930.21</ele>
        <time>2022-05-01T12:07:27Z</time>
      </trkpt>
      <trkpt lat="41.68807" lon="9.20834">
        <ele>929.25</ele>
        <time>2022-05-01T12:07:42Z</time>
      </trkpt>
      <trkpt lat="41.68806" lon="9.20829">
        <ele>929.73</ele>
        <time>2022-05-01T12:07:54Z</time>
      </trkpt>
      <trkpt lat="41.68806" lon="9.20833">
        <ele>929.73</ele>
        <time>2022-05-01T12:08:12Z</time>
      </trkpt>
      <trkpt lat="41.68804" lon="9.20838">
        <ele>928.77</ele>
        <time>2022-05-01T12:08:17Z</time>
      </trkpt>
      <trkpt lat="41.68802" lon="9.20837">
        <ele>927.81</ele>
        <time>2022-05-01T12:08:30Z</time>
      </trkpt>
      <trkpt lat="41.68801" lon="9.20838">
        <ele>928.29</ele>
        <time>2022-05-01T12:08:53Z</time>
      </trkpt>
      <trkpt lat="41.68803" lon="9.20831">
        <ele>929.25</ele>
        <time>2022-05-01T12:09:11Z</time>
      </trkpt>
      <trkpt lat="41.68799" lon="9.20838">
        <ele>928.29</ele>
        <time>2022-05-01T12:09:26Z</time>
      </trkpt>
      <trkpt lat="41.68797" lon="9.20836">
        <ele>927.81</ele>
        <time>2022-05-01T12:09:29Z</time>
      </trkpt>
      <trkpt lat="41.68784" lon="9.20822">
        <ele>925.89</ele>
        <time>2022-05-01T12:09:45Z</time>
      </trkpt>
      <trkpt lat="41.68781" lon="9.2082">
        <ele>924.93</ele>
        <time>2022-05-01T12:09:50Z</time>
      </trkpt>
      <trkpt lat="41.68766" lon="9.2082">
        <ele>923.96</ele>
        <time>2022-05-01T12:10:02Z</time>
      </trkpt>
      <trkpt lat="41.6876" lon="9.20819">
        <ele>924.45</ele>
        <time>2022-05-01T12:10:07Z</time>
      </trkpt>
      <trkpt lat="41.68755" lon="9.2082">
        <ele>921.56</ele>
        <time>2022-05-01T12:10:12Z</time>
      </trkpt>
      <trkpt lat="41.68752" lon="9.2082">
        <ele>923.48</ele>
        <time>2022-05-01T12:10:14Z</time>
      </trkpt>
      <trkpt lat="41.68732" lon="9.20812">
        <ele>921.08</ele>
        <time>2022-05-01T12:10:31Z</time>
      </trkpt>
      <trkpt lat="41.68729" lon="9.20812">
        <ele>920.6</ele>
        <time>2022-05-01T12:10:33Z</time>
      </trkpt>
      <trkpt lat="41.68722" lon="9.20808">
        <ele>918.68</ele>
        <time>2022-05-01T12:10:40Z</time>
      </trkpt>
      <trkpt lat="41.68719" lon="9.20807">
        <ele>918.68</ele>
        <time>2022-05-01T12:10:43Z</time>
      </trkpt>
      <trkpt lat="41.68707" lon="9.20797">
        <ele>916.27</ele>
        <time>2022-05-01T12:10:58Z</time>
      </trkpt>
      <trkpt lat="41.68696" lon="9.20798">
        <ele>914.83</ele>
        <time>2022-05-01T12:11:13Z</time>
      </trkpt>
      <trkpt lat="41.68688" lon="9.20796">
        <ele>912.91</ele>
        <time>2022-05-01T12:11:28Z</time>
      </trkpt>
      <trkpt lat="41.68689" lon="9.20793">
        <ele>913.39</ele>
        <time>2022-05-01T12:11:44Z</time>
      </trkpt>
      <trkpt lat="41.68679" lon="9.20798">
        <ele>912.43</ele>
        <time>2022-05-01T12:11:55Z</time>
      </trkpt>
      <trkpt lat="41.68675" lon="9.20793">
        <ele>911.47</ele>
        <time>2022-05-01T12:12:10Z</time>
      </trkpt>
      <trkpt lat="41.6867" lon="9.20792">
        <ele>910.51</ele>
        <time>2022-05-01T12:12:15Z</time>
      </trkpt>
      <trkpt lat="41.68666" lon="9.20775">
        <ele>908.58</ele>
        <time>2022-05-01T12:12:30Z</time>
      </trkpt>
      <trkpt lat="41.68667" lon="9.20761">
        <ele>906.66</ele>
        <time>2022-05-01T12:12:43Z</time>
      </trkpt>
      <trkpt lat="41.68657" lon="9.2075">
        <ele>904.26</ele>
        <time>2022-05-01T12:12:57Z</time>
      </trkpt>
      <trkpt lat="41.68657" lon="9.20749">
        <ele>903.78</ele>
        <time>2022-05-01T12:12:58Z</time>
      </trkpt>
      <trkpt lat="41.68649" lon="9.20745">
        <ele>901.37</ele>
        <time>2022-05-01T12:13:09Z</time>
      </trkpt>
      <trkpt lat="41.68633" lon="9.20748">
        <ele>899.45</ele>
        <time>2022-05-01T12:13:24Z</time>
      </trkpt>
      <trkpt lat="41.68619" lon="9.20751">
        <ele>898.97</ele>
        <time>2022-05-01T12:13:38Z</time>
      </trkpt>
      <trkpt lat="41.68604" lon="9.20756">
        <ele>897.53</ele>
        <time>2022-05-01T12:13:54Z</time>
      </trkpt>
      <trkpt lat="41.68598" lon="9.20758">
        <ele>897.05</ele>
        <time>2022-05-01T12:14:01Z</time>
      </trkpt>
      <trkpt lat="41.68584" lon="9.20753">
        <ele>895.12</ele>
        <time>2022-05-01T12:14:15Z</time>
      </trkpt>
      <trkpt lat="41.6858" lon="9.20752">
        <ele>895.12</ele>
        <time>2022-05-01T12:14:19Z</time>
      </trkpt>
      <trkpt lat="41.6857" lon="9.20757">
        <ele>894.64</ele>
        <time>2022-05-01T12:14:27Z</time>
      </trkpt>
      <trkpt lat="41.68564" lon="9.20754">
        <ele>893.68</ele>
        <time>2022-05-01T12:14:33Z</time>
      </trkpt>
      <trkpt lat="41.68553" lon="9.20747">
        <ele>891.28</ele>
        <time>2022-05-01T12:14:45Z</time>
      </trkpt>
      <trkpt lat="41.68547" lon="9.20745">
        <ele>889.84</ele>
        <time>2022-05-01T12:14:59Z</time>
      </trkpt>
      <trkpt lat="41.68541" lon="9.20746">
        <ele>889.36</ele>
        <time>2022-05-01T12:15:06Z</time>
      </trkpt>
      <trkpt lat="41.6854" lon="9.20747">
        <ele>888.88</ele>
        <time>2022-05-01T12:15:07Z</time>
      </trkpt>
      <trkpt lat="41.68539" lon="9.20748">
        <ele>889.36</ele>
        <time>2022-05-01T12:15:08Z</time>
      </trkpt>
      <trkpt lat="41.68525" lon="9.2075">
        <ele>887.91</ele>
        <time>2022-05-01T12:15:22Z</time>
      </trkpt>
      <trkpt lat="41.68516" lon="9.20753">
        <ele>887.43</ele>
        <time>2022-05-01T12:15:33Z</time>
      </trkpt>
      <trkpt lat="41.68515" lon="9.20752">
        <ele>886.95</ele>
        <time>2022-05-01T12:15:34Z</time>
      </trkpt>
      <trkpt lat="41.68514" lon="9.20751">
        <ele>886.47</ele>
        <time>2022-05-01T12:15:35Z</time>
      </trkpt>
      <trkpt lat="41.68513" lon="9.2075">
        <ele>886.95</ele>
        <time>2022-05-01T12:15:36Z</time>
      </trkpt>
      <trkpt lat="41.68508" lon="9.20746">
        <ele>885.03</ele>
        <time>2022-05-01T12:15:44Z</time>
      </trkpt>
      <trkpt lat="41.68507" lon="9.20747">
        <ele>885.03</ele>
        <time>2022-05-01T12:15:45Z</time>
      </trkpt>
      <trkpt lat="41.68496" lon="9.20749">
        <ele>882.63</ele>
        <time>2022-05-01T12:15:58Z</time>
      </trkpt>
      <trkpt lat="41.68485" lon="9.20745">
        <ele>880.71</ele>
        <time>2022-05-01T12:16:14Z</time>
      </trkpt>
      <trkpt lat="41.68482" lon="9.20747">
        <ele>880.22</ele>
        <time>2022-05-01T12:16:19Z</time>
      </trkpt>
      <trkpt lat="41.68481" lon="9.20748">
        <ele>879.74</ele>
        <time>2022-05-01T12:16:20Z</time>
      </trkpt>
      <trkpt lat="41.6847" lon="9.20755">
        <ele>877.34</ele>
        <time>2022-05-01T12:16:32Z</time>
      </trkpt>
      <trkpt lat="41.68468" lon="9.20755">
        <ele>876.86</ele>
        <time>2022-05-01T12:16:33Z</time>
      </trkpt>
      <trkpt lat="41.6845" lon="9.20763">
        <ele>876.86</ele>
        <time>2022-05-01T12:16:51Z</time>
      </trkpt>
      <trkpt lat="41.68434" lon="9.20776">
        <ele>875.9</ele>
        <time>2022-05-01T12:17:08Z</time>
      </trkpt>
      <trkpt lat="41.68421" lon="9.20786">
        <ele>875.9</ele>
        <time>2022-05-01T12:17:36Z</time>
      </trkpt>
      <trkpt lat="41.6841" lon="9.20791">
        <ele>874.46</ele>
        <time>2022-05-01T12:17:57Z</time>
      </trkpt>
      <trkpt lat="41.6839" lon="9.20812">
        <ele>874.46</ele>
        <time>2022-05-01T12:18:14Z</time>
      </trkpt>
      <trkpt lat="41.68384" lon="9.20822">
        <ele>873.5</ele>
        <time>2022-05-01T12:18:31Z</time>
      </trkpt>
      <trkpt lat="41.68376" lon="9.20837">
        <ele>873.5</ele>
        <time>2022-05-01T12:18:51Z</time>
      </trkpt>
      <trkpt lat="41.68378" lon="9.20854">
        <ele>871.57</ele>
        <time>2022-05-01T12:19:11Z</time>
      </trkpt>
      <trkpt lat="41.68366" lon="9.20864">
        <ele>871.57</ele>
        <time>2022-05-01T12:19:33Z</time>
      </trkpt>
      <trkpt lat="41.68362" lon="9.20882">
        <ele>871.09</ele>
        <time>2022-05-01T12:19:52Z</time>
      </trkpt>
      <trkpt lat="41.68355" lon="9.20891">
        <ele>871.57</ele>
        <time>2022-05-01T12:20:14Z</time>
      </trkpt>
      <trkpt lat="41.68343" lon="9.20888">
        <ele>872.05</ele>
        <time>2022-05-01T12:20:35Z</time>
      </trkpt>
      <trkpt lat="41.68339" lon="9.20889">
        <ele>872.53</ele>
        <time>2022-05-01T12:20:53Z</time>
      </trkpt>
      <trkpt lat="41.68338" lon="9.20892">
        <ele>872.53</ele>
        <time>2022-05-01T12:20:56Z</time>
      </trkpt>
      <trkpt lat="41.68332" lon="9.20911">
        <ele>872.05</ele>
        <time>2022-05-01T12:21:12Z</time>
      </trkpt>
      <trkpt lat="41.68331" lon="9.20913">
        <ele>871.57</ele>
        <time>2022-05-01T12:21:14Z</time>
      </trkpt>
      <trkpt lat="41.68316" lon="9.20921">
        <ele>871.57</ele>
        <time>2022-05-01T12:21:25Z</time>
      </trkpt>
      <trkpt lat="41.68314" lon="9.20921">
        <ele>871.57</ele>
        <time>2022-05-01T12:21:26Z</time>
      </trkpt>
      <trkpt lat="41.68307" lon="9.20917">
        <ele>872.05</ele>
        <time>2022-05-01T12:21:34Z</time>
      </trkpt>
      <trkpt lat="41.68297" lon="9.2092">
        <ele>872.05</ele>
        <time>2022-05-01T12:21:43Z</time>
      </trkpt>
      <trkpt lat="41.68279" lon="9.20928">
        <ele>870.61</ele>
        <time>2022-05-01T12:21:58Z</time>
      </trkpt>
      <trkpt lat="41.68263" lon="9.20937">
        <ele>870.13</ele>
        <time>2022-05-01T12:22:12Z</time>
      </trkpt>
      <trkpt lat="41.68241" lon="9.20935">
        <ele>870.13</ele>
        <time>2022-05-01T12:22:30Z</time>
      </trkpt>
      <trkpt lat="41.68212" lon="9.20935">
        <ele>869.65</ele>
        <time>2022-05-01T12:22:48Z</time>
      </trkpt>
      <trkpt lat="41.68188" lon="9.20936">
        <ele>869.17</ele>
        <time>2022-05-01T12:23:05Z</time>
      </trkpt>
      <trkpt lat="41.68177" lon="9.20932">
        <ele>869.65</ele>
        <time>2022-05-01T12:23:14Z</time>
      </trkpt>
      <trkpt lat="41.68164" lon="9.20928">
        <ele>869.17</ele>
        <time>2022-05-01T12:23:26Z</time>
      </trkpt>
      <trkpt lat="41.68154" lon="9.20925">
        <ele>868.69</ele>
        <time>2022-05-01T12:23:33Z</time>
      </trkpt>
      <trkpt lat="41.68152" lon="9.20924">
        <ele>868.69</ele>
        <time>2022-05-01T12:23:34Z</time>
      </trkpt>
      <trkpt lat="41.68144" lon="9.20924">
        <ele>869.17</ele>
        <time>2022-05-01T12:23:42Z</time>
      </trkpt>
      <trkpt lat="41.68123" lon="9.20927">
        <ele>868.69</ele>
        <time>2022-05-01T12:23:59Z</time>
      </trkpt>
      <trkpt lat="41.68112" lon="9.20929">
        <ele>868.69</ele>
        <time>2022-05-01T12:24:05Z</time>
      </trkpt>
      <trkpt lat="41.68101" lon="9.20931">
        <ele>869.17</ele>
        <time>2022-05-01T12:24:15Z</time>
      </trkpt>
      <trkpt lat="41.68099" lon="9.20932">
        <ele>868.69</ele>
        <time>2022-05-01T12:24:16Z</time>
      </trkpt>
      <trkpt lat="41.68098" lon="9.20932">
        <ele>868.69</ele>
        <time>2022-05-01T12:24:17Z</time>
      </trkpt>
      <trkpt lat="41.68092" lon="9.20937">
        <ele>868.21</ele>
        <time>2022-05-01T12:24:24Z</time>
      </trkpt>
      <trkpt lat="41.68071" lon="9.20944">
        <ele>868.69</ele>
        <time>2022-05-01T12:24:39Z</time>
      </trkpt>
      <trkpt lat="41.68055" lon="9.20948">
        <ele>869.65</ele>
        <time>2022-05-01T12:24:55Z</time>
      </trkpt>
      <trkpt lat="41.68045" lon="9.20949">
        <ele>870.61</ele>
        <time>2022-05-01T12:25:03Z</time>
      </trkpt>
      <trkpt lat="41.68039" lon="9.20951">
        <ele>870.61</ele>
        <time>2022-05-01T12:25:07Z</time>
      </trkpt>
      <trkpt lat="41.68023" lon="9.20963">
        <ele>870.61</ele>
        <time>2022-05-01T12:25:21Z</time>
      </trkpt>
      <trkpt lat="41.68012" lon="9.2098">
        <ele>869.65</ele>
        <time>2022-05-01T12:25:36Z</time>
      </trkpt>
      <trkpt lat="41.68003" lon="9.20995">
        <ele>868.69</ele>
        <time>2022-05-01T12:25:50Z</time>
      </trkpt>
      <trkpt lat="41.67987" lon="9.21014">
        <ele>867.25</ele>
        <time>2022-05-01T12:26:09Z</time>
      </trkpt>
      <trkpt lat="41.67987" lon="9.21029">
        <ele>867.25</ele>
        <time>2022-05-01T12:26:30Z</time>
      </trkpt>
      <trkpt lat="41.67996" lon="9.21035">
        <ele>867.73</ele>
        <time>2022-05-01T12:26:48Z</time>
      </trkpt>
      <trkpt lat="41.68004" lon="9.21053">
        <ele>869.17</ele>
        <time>2022-05-01T12:27:05Z</time>
      </trkpt>
      <trkpt lat="41.68003" lon="9.21068">
        <ele>871.09</ele>
        <time>2022-05-01T12:27:20Z</time>
      </trkpt>
      <trkpt lat="41.68003" lon="9.21085">
        <ele>872.05</ele>
        <time>2022-05-01T12:27:33Z</time>
      </trkpt>
      <trkpt lat="41.68005" lon="9.21089">
        <ele>872.05</ele>
        <time>2022-05-01T12:27:35Z</time>
      </trkpt>
      <trkpt lat="41.68006" lon="9.21095">
        <ele>873.01</ele>
        <time>2022-05-01T12:27:39Z</time>
      </trkpt>
      <trkpt lat="41.68017" lon="9.21107">
        <ele>874.94</ele>
        <time>2022-05-01T12:27:53Z</time>
      </trkpt>
      <trkpt lat="41.68031" lon="9.21116">
        <ele>877.82</ele>
        <time>2022-05-01T12:28:12Z</time>
      </trkpt>
      <trkpt lat="41.68043" lon="9.21135">
        <ele>879.74</ele>
        <time>2022-05-01T12:28:29Z</time>
      </trkpt>
      <trkpt lat="41.68052" lon="9.21149">
        <ele>882.15</ele>
        <time>2022-05-01T12:28:45Z</time>
      </trkpt>
      <trkpt lat="41.68053" lon="9.21171">
        <ele>885.03</ele>
        <time>2022-05-01T12:29:03Z</time>
      </trkpt>
      <trkpt lat="41.68048" lon="9.21188">
        <ele>887.43</ele>
        <time>2022-05-01T12:29:18Z</time>
      </trkpt>
      <trkpt lat="41.68048" lon="9.21189">
        <ele>887.43</ele>
        <time>2022-05-01T12:29:19Z</time>
      </trkpt>
      <trkpt lat="41.68047" lon="9.2119">
        <ele>887.43</ele>
        <time>2022-05-01T12:29:20Z</time>
      </trkpt>
      <trkpt lat="41.68047" lon="9.21192">
        <ele>887.43</ele>
        <time>2022-05-01T12:29:21Z</time>
      </trkpt>
      <trkpt lat="41.68046" lon="9.21193">
        <ele>887.43</ele>
        <time>2022-05-01T12:29:22Z</time>
      </trkpt>
      <trkpt lat="41.68045" lon="9.21195">
        <ele>887.43</ele>
        <time>2022-05-01T12:29:23Z</time>
      </trkpt>
      <trkpt lat="41.68044" lon="9.21196">
        <ele>887.43</ele>
        <time>2022-05-01T12:29:24Z</time>
      </trkpt>
      <trkpt lat="41.68035" lon="9.21219">
        <ele>888.4</ele>
        <time>2022-05-01T12:29:41Z</time>
      </trkpt>
      <trkpt lat="41.68026" lon="9.2124">
        <ele>888.88</ele>
        <time>2022-05-01T12:29:59Z</time>
      </trkpt>
      <trkpt lat="41.68029" lon="9.21252">
        <ele>888.88</ele>
        <time>2022-05-01T12:30:14Z</time>
      </trkpt>
      <trkpt lat="41.6803" lon="9.21253">
        <ele>888.88</ele>
        <time>2022-05-01T12:30:15Z</time>
      </trkpt>
      <trkpt lat="41.68031" lon="9.21258">
        <ele>888.4</ele>
        <time>2022-05-01T12:30:19Z</time>
      </trkpt>
      <trkpt lat="41.68038" lon="9.21277">
        <ele>888.4</ele>
        <time>2022-05-01T12:30:35Z</time>
      </trkpt>
      <trkpt lat="41.68042" lon="9.21287">
        <ele>886.95</ele>
        <time>2022-05-01T12:30:44Z</time>
      </trkpt>
      <trkpt lat="41.68047" lon="9.21304">
        <ele>885.99</ele>
        <time>2022-05-01T12:30:59Z</time>
      </trkpt>
      <trkpt lat="41.68056" lon="9.2131">
        <ele>886.95</ele>
        <time>2022-05-01T12:31:14Z</time>
      </trkpt>
      <trkpt lat="41.68057" lon="9.2131">
        <ele>886.47</ele>
        <time>2022-05-01T12:31:15Z</time>
      </trkpt>
      <trkpt lat="41.6806" lon="9.21314">
        <ele>886.95</ele>
        <time>2022-05-01T12:31:19Z</time>
      </trkpt>
      <trkpt lat="41.68071" lon="9.21329">
        <ele>889.36</ele>
        <time>2022-05-01T12:31:36Z</time>
      </trkpt>
      <trkpt lat="41.68068" lon="9.21331">
        <ele>889.36</ele>
        <time>2022-05-01T12:31:51Z</time>
      </trkpt>
      <trkpt lat="41.68069" lon="9.21331">
        <ele>889.36</ele>
        <time>2022-05-01T12:32:16Z</time>
      </trkpt>
      <trkpt lat="41.68076" lon="9.21339">
        <ele>890.8</ele>
        <time>2022-05-01T12:32:31Z</time>
      </trkpt>
      <trkpt lat="41.6808" lon="9.21343">
        <ele>890.32</ele>
        <time>2022-05-01T12:32:36Z</time>
      </trkpt>
      <trkpt lat="41.68083" lon="9.21358">
        <ele>889.36</ele>
        <time>2022-05-01T12:32:53Z</time>
      </trkpt>
      <trkpt lat="41.68084" lon="9.21359">
        <ele>888.88</ele>
        <time>2022-05-01T12:32:56Z</time>
      </trkpt>
      <trkpt lat="41.68088" lon="9.21362">
        <ele>886.95</ele>
        <time>2022-05-01T12:33:08Z</time>
      </trkpt>
      <trkpt lat="41.68088" lon="9.21362">
        <ele>886.95</ele>
        <time>2022-05-01T12:33:15Z</time>
      </trkpt>
      <trkpt lat="41.68097" lon="9.21371">
        <ele>885.51</ele>
        <time>2022-05-01T12:33:26Z</time>
      </trkpt>
      <trkpt lat="41.68102" lon="9.21378">
        <ele>884.07</ele>
        <time>2022-05-01T12:33:45Z</time>
      </trkpt>
      <trkpt lat="41.68111" lon="9.21383">
        <ele>882.63</ele>
        <time>2022-05-01T12:34:03Z</time>
      </trkpt>
      <trkpt lat="41.68118" lon="9.21401">
        <ele>880.22</ele>
        <time>2022-05-01T12:34:17Z</time>
      </trkpt>
      <trkpt lat="41.68121" lon="9.21412">
        <ele>876.86</ele>
        <time>2022-05-01T12:34:30Z</time>
      </trkpt>
      <trkpt lat="41.68118" lon="9.21425">
        <ele>873.98</ele>
        <time>2022-05-01T12:34:43Z</time>
      </trkpt>
      <trkpt lat="41.68119" lon="9.21426">
        <ele>873.5</ele>
        <time>2022-05-01T12:34:44Z</time>
      </trkpt>
      <trkpt lat="41.68121" lon="9.21429">
        <ele>873.01</ele>
        <time>2022-05-01T12:34:47Z</time>
      </trkpt>
      <trkpt lat="41.68121" lon="9.21438">
        <ele>869.65</ele>
        <time>2022-05-01T12:34:56Z</time>
      </trkpt>
      <trkpt lat="41.68117" lon="9.21439">
        <ele>868.21</ele>
        <time>2022-05-01T12:35:01Z</time>
      </trkpt>
      <trkpt lat="41.68111" lon="9.21438">
        <ele>867.25</ele>
        <time>2022-05-01T12:35:16Z</time>
      </trkpt>
      <trkpt lat="41.68112" lon="9.21441">
        <ele>867.25</ele>
        <time>2022-05-01T12:35:49Z</time>
      </trkpt>
      <trkpt lat="41.68112" lon="9.2144">
        <ele>865.32</ele>
        <time>2022-05-01T12:36:13Z</time>
      </trkpt>
      <trkpt lat="41.68116" lon="9.21438">
        <ele>867.73</ele>
        <time>2022-05-01T12:36:16Z</time>
      </trkpt>
      <trkpt lat="41.68124" lon="9.21434">
        <ele>870.61</ele>
        <time>2022-05-01T12:36:27Z</time>
      </trkpt>
      <trkpt lat="41.68129" lon="9.21438">
        <ele>871.57</ele>
        <time>2022-05-01T12:36:35Z</time>
      </trkpt>
      <trkpt lat="41.68145" lon="9.21451">
        <ele>872.53</ele>
        <time>2022-05-01T12:36:50Z</time>
      </trkpt>
      <trkpt lat="41.68145" lon="9.21456">
        <ele>872.05</ele>
        <time>2022-05-01T12:36:55Z</time>
      </trkpt>
      <trkpt lat="41.68145" lon="9.21461">
        <ele>871.09</ele>
        <time>2022-05-01T12:36:59Z</time>
      </trkpt>
      <trkpt lat="41.68146" lon="9.21466">
        <ele>871.09</ele>
        <time>2022-05-01T12:37:03Z</time>
      </trkpt>
      <trkpt lat="41.68146" lon="9.21471">
        <ele>870.61</ele>
        <time>2022-05-01T12:37:06Z</time>
      </trkpt>
      <trkpt lat="41.68151" lon="9.21493">
        <ele>871.09</ele>
        <time>2022-05-01T12:37:21Z</time>
      </trkpt>
      <trkpt lat="41.68155" lon="9.21509">
        <ele>872.05</ele>
        <time>2022-05-01T12:37:33Z</time>
      </trkpt>
      <trkpt lat="41.6815" lon="9.21531">
        <ele>873.5</ele>
        <time>2022-05-01T12:37:46Z</time>
      </trkpt>
      <trkpt lat="41.6815" lon="9.2154">
        <ele>873.01</ele>
        <time>2022-05-01T12:37:52Z</time>
      </trkpt>
      <trkpt lat="41.68151" lon="9.21542">
        <ele>873.01</ele>
        <time>2022-05-01T12:37:54Z</time>
      </trkpt>
      <trkpt lat="41.68154" lon="9.21547">
        <ele>873.5</ele>
        <time>2022-05-01T12:37:58Z</time>
      </trkpt>
      <trkpt lat="41.68159" lon="9.21552">
        <ele>873.98</ele>
        <time>2022-05-01T12:38:02Z</time>
      </trkpt>
      <trkpt lat="41.6816" lon="9.21554">
        <ele>874.94</ele>
        <time>2022-05-01T12:38:15Z</time>
      </trkpt>
      <trkpt lat="41.68156" lon="9.21549">
        <ele>874.46</ele>
        <time>2022-05-01T12:38:20Z</time>
      </trkpt>
      <trkpt lat="41.68154" lon="9.21549">
        <ele>873.98</ele>
        <time>2022-05-01T12:38:22Z</time>
      </trkpt>
      <trkpt lat="41.68148" lon="9.21548">
        <ele>873.98</ele>
        <time>2022-05-01T12:38:29Z</time>
      </trkpt>
      <trkpt lat="41.68138" lon="9.21552">
        <ele>874.46</ele>
        <time>2022-05-01T12:38:43Z</time>
      </trkpt>
      <trkpt lat="41.68142" lon="9.21553">
        <ele>873.98</ele>
        <time>2022-05-01T12:38:58Z</time>
      </trkpt>
      <trkpt lat="41.68158" lon="9.21547">
        <ele>874.46</ele>
        <time>2022-05-01T12:39:13Z</time>
      </trkpt>
      <trkpt lat="41.68168" lon="9.21543">
        <ele>876.38</ele>
        <time>2022-05-01T12:39:25Z</time>
      </trkpt>
      <trkpt lat="41.68175" lon="9.21552">
        <ele>877.34</ele>
        <time>2022-05-01T12:39:40Z</time>
      </trkpt>
      <trkpt lat="41.68185" lon="9.21559">
        <ele>879.74</ele>
        <time>2022-05-01T12:39:58Z</time>
      </trkpt>
      <trkpt lat="41.68192" lon="9.21561">
        <ele>878.78</ele>
        <time>2022-05-01T12:40:05Z</time>
      </trkpt>
      <trkpt lat="41.68195" lon="9.21568">
        <ele>877.34</ele>
        <time>2022-05-01T12:40:10Z</time>
      </trkpt>
      <trkpt lat="41.68204" lon="9.21581">
        <ele>874.94</ele>
        <time>2022-05-01T12:40:22Z</time>
      </trkpt>
      <trkpt lat="41.68209" lon="9.21587">
        <ele>872.05</ele>
        <time>2022-05-01T12:40:41Z</time>
      </trkpt>
      <trkpt lat="41.68218" lon="9.21599">
        <ele>869.65</ele>
        <time>2022-05-01T12:40:50Z</time>
      </trkpt>
      <trkpt lat="41.68223" lon="9.21614">
        <ele>867.25</ele>
        <time>2022-05-01T12:41:02Z</time>
      </trkpt>
      <trkpt lat="41.68224" lon="9.21615">
        <ele>867.25</ele>
        <time>2022-05-01T12:41:03Z</time>
      </trkpt>
      <trkpt lat="41.68227" lon="9.2163">
        <ele>864.84</ele>
        <time>2022-05-01T12:41:13Z</time>
      </trkpt>
      <trkpt lat="41.68222" lon="9.21637">
        <ele>861.48</ele>
        <time>2022-05-01T12:41:24Z</time>
      </trkpt>
      <trkpt lat="41.68223" lon="9.21645">
        <ele>858.11</ele>
        <time>2022-05-01T12:41:30Z</time>
      </trkpt>
      <trkpt lat="41.68215" lon="9.2165">
        <ele>856.19</ele>
        <time>2022-05-01T12:41:42Z</time>
      </trkpt>
      <trkpt lat="41.68212" lon="9.21652">
        <ele>854.27</ele>
        <time>2022-05-01T12:41:47Z</time>
      </trkpt>
      <trkpt lat="41.68206" lon="9.21658">
        <ele>851.87</ele>
        <time>2022-05-01T12:41:58Z</time>
      </trkpt>
      <trkpt lat="41.68198" lon="9.21657">
        <ele>851.38</ele>
        <time>2022-05-01T12:42:12Z</time>
      </trkpt>
      <trkpt lat="41.68188" lon="9.21662">
        <ele>851.87</ele>
        <time>2022-05-01T12:42:26Z</time>
      </trkpt>
      <trkpt lat="41.68184" lon="9.21659">
        <ele>850.42</ele>
        <time>2022-05-01T12:42:31Z</time>
      </trkpt>
      <trkpt lat="41.68173" lon="9.21655">
        <ele>847.54</ele>
        <time>2022-05-01T12:42:44Z</time>
      </trkpt>
      <trkpt lat="41.68163" lon="9.2165">
        <ele>844.18</ele>
        <time>2022-05-01T12:42:56Z</time>
      </trkpt>
      <trkpt lat="41.6816" lon="9.21648">
        <ele>841.29</ele>
        <time>2022-05-01T12:43:07Z</time>
      </trkpt>
      <trkpt lat="41.68159" lon="9.21648">
        <ele>840.81</ele>
        <time>2022-05-01T12:43:08Z</time>
      </trkpt>
      <trkpt lat="41.68153" lon="9.21642">
        <ele>837.45</ele>
        <time>2022-05-01T12:43:16Z</time>
      </trkpt>
      <trkpt lat="41.68151" lon="9.21641">
        <ele>836.48</ele>
        <time>2022-05-01T12:43:19Z</time>
      </trkpt>
      <trkpt lat="41.68144" lon="9.2164">
        <ele>832.64</ele>
        <time>2022-05-01T12:43:29Z</time>
      </trkpt>
      <trkpt lat="41.68143" lon="9.21641">
        <ele>832.16</ele>
        <time>2022-05-01T12:43:31Z</time>
      </trkpt>
      <trkpt lat="41.6814" lon="9.21642">
        <ele>830.24</ele>
        <time>2022-05-01T12:43:37Z</time>
      </trkpt>
      <trkpt lat="41.68138" lon="9.21637">
        <ele>827.35</ele>
        <time>2022-05-01T12:43:46Z</time>
      </trkpt>
      <trkpt lat="41.68134" lon="9.21637">
        <ele>823.99</ele>
        <time>2022-05-01T12:43:58Z</time>
      </trkpt>
      <trkpt lat="41.68126" lon="9.21637">
        <ele>821.58</ele>
        <time>2022-05-01T12:44:12Z</time>
      </trkpt>
      <trkpt lat="41.68121" lon="9.21634">
        <ele>818.22</ele>
        <time>2022-05-01T12:44:27Z</time>
      </trkpt>
      <trkpt lat="41.68118" lon="9.21629">
        <ele>807.7</ele>
      </trkpt>
      <trkpt lat="41.68113" lon="9.21626">
        <ele>803.9</ele>
      </trkpt>
      <trkpt lat="41.68108" lon="9.21622">
        <ele>799</ele>
      </trkpt>
      <trkpt lat="41.68101" lon="9.2162">
        <ele>793</ele>
      </trkpt>
      <trkpt lat="41.68096" lon="9.21618">
        <ele>787.4</ele>
      </trkpt>
      <trkpt lat="41.68095" lon="9.21614">
        <ele>784</ele>
      </trkpt>
      <trkpt lat="41.68091" lon="9.21615">
        <ele>780.5</ele>
      </trkpt>
      <trkpt lat="41.68088" lon="9.21617">
        <ele>779.3</ele>
      </trkpt>
      <trkpt lat="41.68082" lon="9.21619">
        <ele>776</ele>
      </trkpt>
      <trkpt lat="41.68076" lon="9.21617">
        <ele>770.8</ele>
      </trkpt>
      <trkpt lat="41.68072" lon="9.21615">
        <ele>767.1</ele>
        <time>2022-05-01T12:44:55Z</time>
      </trkpt>
      <trkpt lat="41.6808" lon="9.21616">
        <ele>772.5</ele>
      </trkpt>
      <trkpt lat="41.681" lon="9.21619">
        <ele>791.3</ele>
      </trkpt>
      <trkpt lat="41.68102" lon="9.21624">
        <ele>795.1</ele>
      </trkpt>
      <trkpt lat="41.68106" lon="9.21625">
        <ele>798.5</ele>
      </trkpt>
      <trkpt lat="41.68109" lon="9.21627">
        <ele>801.3</ele>
      </trkpt>
      <trkpt lat="41.68114" lon="9.2163">
        <ele>805</ele>
      </trkpt>
      <trkpt lat="41.68117" lon="9.21631">
        <ele>807.8</ele>
      </trkpt>
      <trkpt lat="41.68124" lon="9.21633">
        <ele>812.3</ele>
      </trkpt>
      <trkpt lat="41.68122" lon="9.21626">
        <ele>810.1</ele>
      </trkpt>
      <trkpt lat="41.68121" lon="9.21618">
        <ele>808.6</ele>
      </trkpt>
      <trkpt lat="41.68122" lon="9.21614">
        <ele>814.37</ele>
        <time>2022-05-01T12:45:04Z</time>
      </trkpt>
      <trkpt lat="41.68122" lon="9.21603">
        <ele>811.01</ele>
        <time>2022-05-01T12:45:21Z</time>
      </trkpt>
      <trkpt lat="41.68123" lon="9.21601">
        <ele>808.13</ele>
        <time>2022-05-01T12:45:36Z</time>
      </trkpt>
      <trkpt lat="41.68123" lon="9.21616">
        <ele>811.01</ele>
        <time>2022-05-01T12:45:55Z</time>
      </trkpt>
      <trkpt lat="41.68123" lon="9.21624">
        <ele>814.37</ele>
        <time>2022-05-01T12:46:09Z</time>
      </trkpt>
      <trkpt lat="41.68124" lon="9.2163">
        <ele>817.74</ele>
        <time>2022-05-01T12:46:22Z</time>
      </trkpt>
      <trkpt lat="41.68124" lon="9.2163">
        <ele>817.74</ele>
        <time>2022-05-01T12:46:23Z</time>
      </trkpt>
      <trkpt lat="41.68129" lon="9.21634">
        <ele>821.1</ele>
        <time>2022-05-01T12:46:36Z</time>
      </trkpt>
      <trkpt lat="41.68133" lon="9.21629">
        <ele>824.47</ele>
        <time>2022-05-01T12:46:49Z</time>
      </trkpt>
      <trkpt lat="41.68143" lon="9.21637">
        <ele>826.87</ele>
        <time>2022-05-01T12:47:06Z</time>
      </trkpt>
      <trkpt lat="41.68145" lon="9.21645">
        <ele>829.76</ele>
        <time>2022-05-01T12:47:20Z</time>
      </trkpt>
      <trkpt lat="41.68149" lon="9.21642">
        <ele>832.64</ele>
        <time>2022-05-01T12:47:33Z</time>
      </trkpt>
      <trkpt lat="41.68154" lon="9.21643">
        <ele>836</ele>
        <time>2022-05-01T12:47:45Z</time>
      </trkpt>
      <trkpt lat="41.6816" lon="9.21648">
        <ele>838.89</ele>
        <time>2022-05-01T12:48:00Z</time>
      </trkpt>
      <trkpt lat="41.68163" lon="9.2165">
        <ele>842.25</ele>
        <time>2022-05-01T12:48:11Z</time>
      </trkpt>
      <trkpt lat="41.68167" lon="9.21653">
        <ele>845.62</ele>
        <time>2022-05-01T12:48:25Z</time>
      </trkpt>
      <trkpt lat="41.68169" lon="9.21652">
        <ele>846.58</ele>
        <time>2022-05-01T12:48:30Z</time>
      </trkpt>
      <trkpt lat="41.68178" lon="9.21657">
        <ele>849.94</ele>
        <time>2022-05-01T12:48:44Z</time>
      </trkpt>
      <trkpt lat="41.68187" lon="9.21659">
        <ele>851.87</ele>
        <time>2022-05-01T12:49:00Z</time>
      </trkpt>
      <trkpt lat="41.68201" lon="9.21663">
        <ele>851.38</ele>
        <time>2022-05-01T12:49:15Z</time>
      </trkpt>
      <trkpt lat="41.68211" lon="9.21655">
        <ele>854.75</ele>
        <time>2022-05-01T12:49:31Z</time>
      </trkpt>
      <trkpt lat="41.68218" lon="9.21648">
        <ele>857.63</ele>
        <time>2022-05-01T12:49:43Z</time>
      </trkpt>
      <trkpt lat="41.68222" lon="9.21641">
        <ele>861</ele>
        <time>2022-05-01T12:49:57Z</time>
      </trkpt>
      <trkpt lat="41.68224" lon="9.21636">
        <ele>862.44</ele>
        <time>2022-05-01T12:50:03Z</time>
      </trkpt>
      <trkpt lat="41.68228" lon="9.21625">
        <ele>865.8</ele>
        <time>2022-05-01T12:50:17Z</time>
      </trkpt>
      <trkpt lat="41.6822" lon="9.21609">
        <ele>867.25</ele>
        <time>2022-05-01T12:50:31Z</time>
      </trkpt>
      <trkpt lat="41.68213" lon="9.21593">
        <ele>868.69</ele>
        <time>2022-05-01T12:50:44Z</time>
      </trkpt>
      <trkpt lat="41.68201" lon="9.21578">
        <ele>871.09</ele>
        <time>2022-05-01T12:50:59Z</time>
      </trkpt>
      <trkpt lat="41.68199" lon="9.21576">
        <ele>872.53</ele>
        <time>2022-05-01T12:51:03Z</time>
      </trkpt>
      <trkpt lat="41.68193" lon="9.21561">
        <ele>876.38</ele>
        <time>2022-05-01T12:51:17Z</time>
      </trkpt>
      <trkpt lat="41.68192" lon="9.21546">
        <ele>878.78</ele>
        <time>2022-05-01T12:51:29Z</time>
      </trkpt>
      <trkpt lat="41.68189" lon="9.21535">
        <ele>879.26</ele>
        <time>2022-05-01T12:51:38Z</time>
      </trkpt>
      <trkpt lat="41.68185" lon="9.2153">
        <ele>880.22</ele>
        <time>2022-05-01T12:51:42Z</time>
      </trkpt>
      <trkpt lat="41.68184" lon="9.21527">
        <ele>880.22</ele>
        <time>2022-05-01T12:51:44Z</time>
      </trkpt>
      <trkpt lat="41.6818" lon="9.21503">
        <ele>882.15</ele>
        <time>2022-05-01T12:52:00Z</time>
      </trkpt>
      <trkpt lat="41.6818" lon="9.21501">
        <ele>882.15</ele>
        <time>2022-05-01T12:52:01Z</time>
      </trkpt>
      <trkpt lat="41.68179" lon="9.21484">
        <ele>883.11</ele>
        <time>2022-05-01T12:52:14Z</time>
      </trkpt>
      <trkpt lat="41.68178" lon="9.21476">
        <ele>883.59</ele>
        <time>2022-05-01T12:52:19Z</time>
      </trkpt>
      <trkpt lat="41.68169" lon="9.21454">
        <ele>883.11</ele>
        <time>2022-05-01T12:52:33Z</time>
      </trkpt>
      <trkpt lat="41.68166" lon="9.21433">
        <ele>884.55</ele>
        <time>2022-05-01T12:52:48Z</time>
      </trkpt>
      <trkpt lat="41.68166" lon="9.2143">
        <ele>885.03</ele>
        <time>2022-05-01T12:52:50Z</time>
      </trkpt>
      <trkpt lat="41.68167" lon="9.21412">
        <ele>886.95</ele>
        <time>2022-05-01T12:53:03Z</time>
      </trkpt>
      <trkpt lat="41.68164" lon="9.21394">
        <ele>887.43</ele>
        <time>2022-05-01T12:53:17Z</time>
      </trkpt>
      <trkpt lat="41.68164" lon="9.21388">
        <ele>887.91</ele>
        <time>2022-05-01T12:53:20Z</time>
      </trkpt>
      <trkpt lat="41.68156" lon="9.21376">
        <ele>887.91</ele>
        <time>2022-05-01T12:53:29Z</time>
      </trkpt>
      <trkpt lat="41.6814" lon="9.21365">
        <ele>888.4</ele>
        <time>2022-05-01T12:53:44Z</time>
      </trkpt>
      <trkpt lat="41.68138" lon="9.21362">
        <ele>888.4</ele>
        <time>2022-05-01T12:53:47Z</time>
      </trkpt>
      <trkpt lat="41.68122" lon="9.21349">
        <ele>890.32</ele>
        <time>2022-05-01T12:54:04Z</time>
      </trkpt>
      <trkpt lat="41.68108" lon="9.21345">
        <ele>890.32</ele>
        <time>2022-05-01T12:54:20Z</time>
      </trkpt>
      <trkpt lat="41.68101" lon="9.21344">
        <ele>891.76</ele>
        <time>2022-05-01T12:54:27Z</time>
      </trkpt>
      <trkpt lat="41.68091" lon="9.21335">
        <ele>893.2</ele>
        <time>2022-05-01T12:54:40Z</time>
      </trkpt>
      <trkpt lat="41.68089" lon="9.21332">
        <ele>893.2</ele>
        <time>2022-05-01T12:54:43Z</time>
      </trkpt>
      <trkpt lat="41.68079" lon="9.21315">
        <ele>893.68</ele>
        <time>2022-05-01T12:54:58Z</time>
      </trkpt>
      <trkpt lat="41.68067" lon="9.21302">
        <ele>892.72</ele>
        <time>2022-05-01T12:55:15Z</time>
      </trkpt>
      <trkpt lat="41.68059" lon="9.21287">
        <ele>892.72</ele>
        <time>2022-05-01T12:55:31Z</time>
      </trkpt>
      <trkpt lat="41.68045" lon="9.21274">
        <ele>891.28</ele>
        <time>2022-05-01T12:55:49Z</time>
      </trkpt>
      <trkpt lat="41.68035" lon="9.21263">
        <ele>889.84</ele>
        <time>2022-05-01T12:56:03Z</time>
      </trkpt>
      <trkpt lat="41.6803" lon="9.21249">
        <ele>890.8</ele>
        <time>2022-05-01T12:56:13Z</time>
      </trkpt>
      <trkpt lat="41.68024" lon="9.21235">
        <ele>889.36</ele>
        <time>2022-05-01T12:56:24Z</time>
      </trkpt>
      <trkpt lat="41.68031" lon="9.21223">
        <ele>888.4</ele>
        <time>2022-05-01T12:56:37Z</time>
      </trkpt>
      <trkpt lat="41.68044" lon="9.21199">
        <ele>887.91</ele>
        <time>2022-05-01T12:56:54Z</time>
      </trkpt>
      <trkpt lat="41.68051" lon="9.21169">
        <ele>885.51</ele>
        <time>2022-05-01T12:57:12Z</time>
      </trkpt>
      <trkpt lat="41.68051" lon="9.21159">
        <ele>885.51</ele>
        <time>2022-05-01T12:57:18Z</time>
      </trkpt>
      <trkpt lat="41.68045" lon="9.21142">
        <ele>881.19</ele>
        <time>2022-05-01T12:57:32Z</time>
      </trkpt>
      <trkpt lat="41.68046" lon="9.2114">
        <ele>880.71</ele>
        <time>2022-05-01T12:57:41Z</time>
      </trkpt>
      <trkpt lat="41.6804" lon="9.21133">
        <ele>879.74</ele>
        <time>2022-05-01T12:57:48Z</time>
      </trkpt>
      <trkpt lat="41.68038" lon="9.21125">
        <ele>878.3</ele>
        <time>2022-05-01T12:57:53Z</time>
      </trkpt>
      <trkpt lat="41.68019" lon="9.21114">
        <ele>875.42</ele>
        <time>2022-05-01T12:58:09Z</time>
      </trkpt>
      <trkpt lat="41.68014" lon="9.21111">
        <ele>874.94</ele>
        <time>2022-05-01T12:58:13Z</time>
      </trkpt>
      <trkpt lat="41.68005" lon="9.21089">
        <ele>871.57</ele>
        <time>2022-05-01T12:58:29Z</time>
      </trkpt>
      <trkpt lat="41.68009" lon="9.21062">
        <ele>869.17</ele>
        <time>2022-05-01T12:58:47Z</time>
      </trkpt>
      <trkpt lat="41.67996" lon="9.21041">
        <ele>867.25</ele>
        <time>2022-05-01T12:59:02Z</time>
      </trkpt>
      <trkpt lat="41.67986" lon="9.21038">
        <ele>866.77</ele>
        <time>2022-05-01T12:59:17Z</time>
      </trkpt>
      <trkpt lat="41.6798" lon="9.21031">
        <ele>867.73</ele>
        <time>2022-05-01T12:59:33Z</time>
      </trkpt>
      <trkpt lat="41.67969" lon="9.21023">
        <ele>867.73</ele>
        <time>2022-05-01T12:59:57Z</time>
      </trkpt>
      <trkpt lat="41.67952" lon="9.21015">
        <ele>871.09</ele>
        <time>2022-05-01T13:00:12Z</time>
      </trkpt>
      <trkpt lat="41.67945" lon="9.21003">
        <ele>871.09</ele>
        <time>2022-05-01T13:00:26Z</time>
      </trkpt>
      <trkpt lat="41.67941" lon="9.20997">
        <ele>870.61</ele>
        <time>2022-05-01T13:00:33Z</time>
      </trkpt>
      <trkpt lat="41.67922" lon="9.20999">
        <ele>870.61</ele>
        <time>2022-05-01T13:00:48Z</time>
      </trkpt>
      <trkpt lat="41.67919" lon="9.20999">
        <ele>871.09</ele>
        <time>2022-05-01T13:00:54Z</time>
      </trkpt>
      <trkpt lat="41.67917" lon="9.20998">
        <ele>870.13</ele>
        <time>2022-05-01T13:00:56Z</time>
      </trkpt>
      <trkpt lat="41.67908" lon="9.20991">
        <ele>873.5</ele>
        <time>2022-05-01T13:01:10Z</time>
      </trkpt>
      <trkpt lat="41.67908" lon="9.2099">
        <ele>873.5</ele>
        <time>2022-05-01T13:01:11Z</time>
      </trkpt>
      <trkpt lat="41.67902" lon="9.20987">
        <ele>875.42</ele>
        <time>2022-05-01T13:01:19Z</time>
      </trkpt>
      <trkpt lat="41.67884" lon="9.20985">
        <ele>878.78</ele>
        <time>2022-05-01T13:01:38Z</time>
      </trkpt>
      <trkpt lat="41.67871" lon="9.20985">
        <ele>881.19</ele>
        <time>2022-05-01T13:01:53Z</time>
      </trkpt>
      <trkpt lat="41.67859" lon="9.20978">
        <ele>883.11</ele>
        <time>2022-05-01T13:02:09Z</time>
      </trkpt>
      <trkpt lat="41.67845" lon="9.2097">
        <ele>885.51</ele>
        <time>2022-05-01T13:02:25Z</time>
      </trkpt>
      <trkpt lat="41.67835" lon="9.20961">
        <ele>887.91</ele>
        <time>2022-05-01T13:02:42Z</time>
      </trkpt>
      <trkpt lat="41.67818" lon="9.20953">
        <ele>890.32</ele>
        <time>2022-05-01T13:03:01Z</time>
      </trkpt>
      <trkpt lat="41.67803" lon="9.2095">
        <ele>893.2</ele>
        <time>2022-05-01T13:03:19Z</time>
      </trkpt>
      <trkpt lat="41.67791" lon="9.20949">
        <ele>895.61</ele>
        <time>2022-05-01T13:03:37Z</time>
      </trkpt>
      <trkpt lat="41.67777" lon="9.20948">
        <ele>897.53</ele>
        <time>2022-05-01T13:03:52Z</time>
      </trkpt>
      <trkpt lat="41.67762" lon="9.20949">
        <ele>899.93</ele>
        <time>2022-05-01T13:04:07Z</time>
      </trkpt>
      <trkpt lat="41.67748" lon="9.20948">
        <ele>902.33</ele>
        <time>2022-05-01T13:04:25Z</time>
      </trkpt>
      <trkpt lat="41.67732" lon="9.20947">
        <ele>905.22</ele>
        <time>2022-05-01T13:04:44Z</time>
      </trkpt>
      <trkpt lat="41.67715" lon="9.20942">
        <ele>907.14</ele>
        <time>2022-05-01T13:05:01Z</time>
      </trkpt>
      <trkpt lat="41.677" lon="9.2094">
        <ele>908.58</ele>
        <time>2022-05-01T13:05:19Z</time>
      </trkpt>
      <trkpt lat="41.6768" lon="9.20941">
        <ele>910.03</ele>
        <time>2022-05-01T13:05:37Z</time>
      </trkpt>
      <trkpt lat="41.67667" lon="9.20932">
        <ele>912.91</ele>
        <time>2022-05-01T13:05:54Z</time>
      </trkpt>
      <trkpt lat="41.67647" lon="9.20923">
        <ele>915.79</ele>
        <time>2022-05-01T13:06:13Z</time>
      </trkpt>
      <trkpt lat="41.67634" lon="9.20916">
        <ele>918.68</ele>
        <time>2022-05-01T13:06:31Z</time>
      </trkpt>
      <trkpt lat="41.67626" lon="9.20905">
        <ele>921.08</ele>
        <time>2022-05-01T13:06:48Z</time>
      </trkpt>
      <trkpt lat="41.67621" lon="9.20893">
        <ele>923.48</ele>
        <time>2022-05-01T13:07:08Z</time>
      </trkpt>
      <trkpt lat="41.67615" lon="9.20881">
        <ele>925.89</ele>
        <time>2022-05-01T13:07:24Z</time>
      </trkpt>
      <trkpt lat="41.67604" lon="9.2087">
        <ele>928.29</ele>
        <time>2022-05-01T13:07:40Z</time>
      </trkpt>
      <trkpt lat="41.67596" lon="9.20864">
        <ele>930.69</ele>
        <time>2022-05-01T13:07:54Z</time>
      </trkpt>
      <trkpt lat="41.67584" lon="9.20857">
        <ele>932.62</ele>
        <time>2022-05-01T13:08:09Z</time>
      </trkpt>
      <trkpt lat="41.67566" lon="9.20853">
        <ele>935.98</ele>
        <time>2022-05-01T13:08:28Z</time>
      </trkpt>
      <trkpt lat="41.67551" lon="9.20841">
        <ele>938.38</ele>
        <time>2022-05-01T13:08:45Z</time>
      </trkpt>
      <trkpt lat="41.67545" lon="9.20829">
        <ele>938.38</ele>
        <time>2022-05-01T13:08:56Z</time>
      </trkpt>
      <trkpt lat="41.67541" lon="9.20813">
        <ele>939.83</ele>
        <time>2022-05-01T13:09:13Z</time>
      </trkpt>
      <trkpt lat="41.67541" lon="9.20794">
        <ele>939.83</ele>
        <time>2022-05-01T13:09:30Z</time>
      </trkpt>
      <trkpt lat="41.67541" lon="9.20794">
        <ele>939.35</ele>
        <time>2022-05-01T13:09:36Z</time>
      </trkpt>
      <trkpt lat="41.67542" lon="9.20789">
        <ele>940.31</ele>
        <time>2022-05-01T13:09:56Z</time>
      </trkpt>
      <trkpt lat="41.67539" lon="9.20788">
        <ele>940.79</ele>
        <time>2022-05-01T13:10:18Z</time>
      </trkpt>
      <trkpt lat="41.6753" lon="9.20781">
        <ele>939.83</ele>
        <time>2022-05-01T13:10:36Z</time>
      </trkpt>
      <trkpt lat="41.6753" lon="9.20776">
        <ele>941.75</ele>
        <time>2022-05-01T13:10:45Z</time>
      </trkpt>
      <trkpt lat="41.67524" lon="9.20756">
        <ele>944.63</ele>
        <time>2022-05-01T13:11:04Z</time>
      </trkpt>
      <trkpt lat="41.67511" lon="9.20739">
        <ele>947.04</ele>
        <time>2022-05-01T13:11:22Z</time>
      </trkpt>
      <trkpt lat="41.67505" lon="9.20734">
        <ele>948.96</ele>
        <time>2022-05-01T13:11:30Z</time>
      </trkpt>
      <trkpt lat="41.67497" lon="9.20727">
        <ele>948.96</ele>
        <time>2022-05-01T13:11:45Z</time>
      </trkpt>
      <trkpt lat="41.67488" lon="9.20718">
        <ele>950.88</ele>
        <time>2022-05-01T13:11:56Z</time>
      </trkpt>
      <trkpt lat="41.67484" lon="9.20708">
        <ele>951.36</ele>
        <time>2022-05-01T13:12:10Z</time>
      </trkpt>
      <trkpt lat="41.67483" lon="9.20711">
        <ele>951.84</ele>
        <time>2022-05-01T13:12:26Z</time>
      </trkpt>
      <trkpt lat="41.67486" lon="9.20716">
        <ele>951.36</ele>
        <time>2022-05-01T13:12:39Z</time>
      </trkpt>
      <trkpt lat="41.67483" lon="9.20725">
        <ele>948</ele>
        <time>2022-05-01T13:12:55Z</time>
      </trkpt>
      <trkpt lat="41.67471" lon="9.20734">
        <ele>946.07</ele>
        <time>2022-05-01T13:13:07Z</time>
      </trkpt>
      <trkpt lat="41.67466" lon="9.20736">
        <ele>945.59</ele>
        <time>2022-05-01T13:13:12Z</time>
      </trkpt>
      <trkpt lat="41.67446" lon="9.2074">
        <ele>942.71</ele>
        <time>2022-05-01T13:13:28Z</time>
      </trkpt>
      <trkpt lat="41.67429" lon="9.20737">
        <ele>941.75</ele>
        <time>2022-05-01T13:13:43Z</time>
      </trkpt>
      <trkpt lat="41.67417" lon="9.20736">
        <ele>940.79</ele>
        <time>2022-05-01T13:13:58Z</time>
      </trkpt>
      <trkpt lat="41.67403" lon="9.20737">
        <ele>942.23</ele>
        <time>2022-05-01T13:14:11Z</time>
      </trkpt>
      <trkpt lat="41.67387" lon="9.20742">
        <ele>943.19</ele>
        <time>2022-05-01T13:14:27Z</time>
      </trkpt>
      <trkpt lat="41.67384" lon="9.20752">
        <ele>943.67</ele>
        <time>2022-05-01T13:14:47Z</time>
      </trkpt>
      <trkpt lat="41.67377" lon="9.20751">
        <ele>941.75</ele>
        <time>2022-05-01T13:15:12Z</time>
      </trkpt>
      <trkpt lat="41.67359" lon="9.20749">
        <ele>941.75</ele>
        <time>2022-05-01T13:15:25Z</time>
      </trkpt>
      <trkpt lat="41.67345" lon="9.20757">
        <ele>942.23</ele>
        <time>2022-05-01T13:15:37Z</time>
      </trkpt>
      <trkpt lat="41.67328" lon="9.20777">
        <ele>942.71</ele>
        <time>2022-05-01T13:15:54Z</time>
      </trkpt>
      <trkpt lat="41.67324" lon="9.2079">
        <ele>946.07</ele>
        <time>2022-05-01T13:16:06Z</time>
      </trkpt>
      <trkpt lat="41.67312" lon="9.20806">
        <ele>947.04</ele>
        <time>2022-05-01T13:16:22Z</time>
      </trkpt>
      <trkpt lat="41.67303" lon="9.20814">
        <ele>950.88</ele>
        <time>2022-05-01T13:16:31Z</time>
      </trkpt>
      <trkpt lat="41.67302" lon="9.20815">
        <ele>947.52</ele>
        <time>2022-05-01T13:16:32Z</time>
      </trkpt>
      <trkpt lat="41.67292" lon="9.20811">
        <ele>949.44</ele>
        <time>2022-05-01T13:16:43Z</time>
      </trkpt>
      <trkpt lat="41.67274" lon="9.20813">
        <ele>948.96</ele>
        <time>2022-05-01T13:16:58Z</time>
      </trkpt>
      <trkpt lat="41.67271" lon="9.20814">
        <ele>950.88</ele>
        <time>2022-05-01T13:17:00Z</time>
      </trkpt>
      <trkpt lat="41.67254" lon="9.20812">
        <ele>951.84</ele>
        <time>2022-05-01T13:17:15Z</time>
      </trkpt>
      <trkpt lat="41.67251" lon="9.2081">
        <ele>952.32</ele>
        <time>2022-05-01T13:17:19Z</time>
      </trkpt>
      <trkpt lat="41.67228" lon="9.20807">
        <ele>953.28</ele>
        <time>2022-05-01T13:17:35Z</time>
      </trkpt>
      <trkpt lat="41.67203" lon="9.20818">
        <ele>953.28</ele>
        <time>2022-05-01T13:17:52Z</time>
      </trkpt>
      <trkpt lat="41.67184" lon="9.20823">
        <ele>953.28</ele>
        <time>2022-05-01T13:18:07Z</time>
      </trkpt>
      <trkpt lat="41.67165" lon="9.20822">
        <ele>953.28</ele>
        <time>2022-05-01T13:18:25Z</time>
      </trkpt>
      <trkpt lat="41.6716" lon="9.20822">
        <ele>952.32</ele>
        <time>2022-05-01T13:18:28Z</time>
      </trkpt>
      <trkpt lat="41.67145" lon="9.20825">
        <ele>952.8</ele>
        <time>2022-05-01T13:18:40Z</time>
      </trkpt>
      <trkpt lat="41.67136" lon="9.20825">
        <ele>953.28</ele>
        <time>2022-05-01T13:18:47Z</time>
      </trkpt>
      <trkpt lat="41.67111" lon="9.20814">
        <ele>952.8</ele>
        <time>2022-05-01T13:19:07Z</time>
      </trkpt>
      <trkpt lat="41.67088" lon="9.20791">
        <ele>951.84</ele>
        <time>2022-05-01T13:19:28Z</time>
      </trkpt>
      <trkpt lat="41.67076" lon="9.20779">
        <ele>951.36</ele>
        <time>2022-05-01T13:19:39Z</time>
      </trkpt>
      <trkpt lat="41.67056" lon="9.20755">
        <ele>951.84</ele>
        <time>2022-05-01T13:20:01Z</time>
      </trkpt>
      <trkpt lat="41.67042" lon="9.20722">
        <ele>951.84</ele>
        <time>2022-05-01T13:20:21Z</time>
      </trkpt>
      <trkpt lat="41.6704" lon="9.20707">
        <ele>951.84</ele>
        <time>2022-05-01T13:20:32Z</time>
      </trkpt>
      <trkpt lat="41.67029" lon="9.20687">
        <ele>951.36</ele>
        <time>2022-05-01T13:20:49Z</time>
      </trkpt>
      <trkpt lat="41.6701" lon="9.20674">
        <ele>952.32</ele>
        <time>2022-05-01T13:21:06Z</time>
      </trkpt>
      <trkpt lat="41.66983" lon="9.20662">
        <ele>952.32</ele>
        <time>2022-05-01T13:21:24Z</time>
      </trkpt>
      <trkpt lat="41.66958" lon="9.20656">
        <ele>953.77</ele>
        <time>2022-05-01T13:21:44Z</time>
      </trkpt>
      <trkpt lat="41.66938" lon="9.20657">
        <ele>954.73</ele>
        <time>2022-05-01T13:22:00Z</time>
      </trkpt>
      <trkpt lat="41.66921" lon="9.2067">
        <ele>956.17</ele>
        <time>2022-05-01T13:22:17Z</time>
      </trkpt>
      <trkpt lat="41.66904" lon="9.20683">
        <ele>957.61</ele>
        <time>2022-05-01T13:22:33Z</time>
      </trkpt>
      <trkpt lat="41.66893" lon="9.2068">
        <ele>958.57</ele>
        <time>2022-05-01T13:22:46Z</time>
      </trkpt>
      <trkpt lat="41.66893" lon="9.2068">
        <ele>961.94</ele>
        <time>2022-05-01T13:22:59Z</time>
      </trkpt>
      <trkpt lat="41.66893" lon="9.2068">
        <ele>957.13</ele>
        <time>2022-05-01T13:23:00Z</time>
      </trkpt>
      <trkpt lat="41.66893" lon="9.20681">
        <ele>959.05</ele>
        <time>2022-05-01T13:23:03Z</time>
      </trkpt>
      <trkpt lat="41.66892" lon="9.20678">
        <ele>958.57</ele>
        <time>2022-05-01T13:23:09Z</time>
      </trkpt>
      <trkpt lat="41.66884" lon="9.20671">
        <ele>958.57</ele>
        <time>2022-05-01T13:23:20Z</time>
      </trkpt>
      <trkpt lat="41.66882" lon="9.20669">
        <ele>958.09</ele>
        <time>2022-05-01T13:23:36Z</time>
      </trkpt>
      <trkpt lat="41.66879" lon="9.20666">
        <ele>958.09</ele>
        <time>2022-05-01T13:23:41Z</time>
      </trkpt>
      <trkpt lat="41.66875" lon="9.20661">
        <ele>958.09</ele>
        <time>2022-05-01T13:23:45Z</time>
      </trkpt>
      <trkpt lat="41.66873" lon="9.20649">
        <ele>958.09</ele>
        <time>2022-05-01T13:23:58Z</time>
      </trkpt>
      <trkpt lat="41.66872" lon="9.20652">
        <ele>958.09</ele>
        <time>2022-05-01T13:24:21Z</time>
      </trkpt>
      <trkpt lat="41.66875" lon="9.20645">
        <ele>958.09</ele>
        <time>2022-05-01T13:24:46Z</time>
      </trkpt>
      <trkpt lat="41.66878" lon="9.20648">
        <ele>957.61</ele>
        <time>2022-05-01T13:25:13Z</time>
      </trkpt>
      <trkpt lat="41.66877" lon="9.20649">
        <ele>958.09</ele>
        <time>2022-05-01T13:25:35Z</time>
      </trkpt>
      <trkpt lat="41.66876" lon="9.20654">
        <ele>957.61</ele>
        <time>2022-05-01T13:25:55Z</time>
      </trkpt>
      <trkpt lat="41.66885" lon="9.20672">
        <ele>957.61</ele>
        <time>2022-05-01T13:26:10Z</time>
      </trkpt>
      <trkpt lat="41.66883" lon="9.2068">
        <ele>958.09</ele>
        <time>2022-05-01T13:26:15Z</time>
      </trkpt>
      <trkpt lat="41.66871" lon="9.20708">
        <ele>957.13</ele>
        <time>2022-05-01T13:26:33Z</time>
      </trkpt>
      <trkpt lat="41.66862" lon="9.20725">
        <ele>957.61</ele>
        <time>2022-05-01T13:26:51Z</time>
      </trkpt>
      <trkpt lat="41.66858" lon="9.2074">
        <ele>957.61</ele>
        <time>2022-05-01T13:27:07Z</time>
      </trkpt>
      <trkpt lat="41.66845" lon="9.20771">
        <ele>958.09</ele>
        <time>2022-05-01T13:27:26Z</time>
      </trkpt>
      <trkpt lat="41.66832" lon="9.20799">
        <ele>957.61</ele>
        <time>2022-05-01T13:27:44Z</time>
      </trkpt>
      <trkpt lat="41.66826" lon="9.20808">
        <ele>958.09</ele>
        <time>2022-05-01T13:27:58Z</time>
      </trkpt>
      <trkpt lat="41.66821" lon="9.20822">
        <ele>958.09</ele>
        <time>2022-05-01T13:28:18Z</time>
      </trkpt>
      <trkpt lat="41.66814" lon="9.20848">
        <ele>957.61</ele>
        <time>2022-05-01T13:28:32Z</time>
      </trkpt>
      <trkpt lat="41.6681" lon="9.20868">
        <ele>958.09</ele>
        <time>2022-05-01T13:28:47Z</time>
      </trkpt>
      <trkpt lat="41.66806" lon="9.20886">
        <ele>957.61</ele>
        <time>2022-05-01T13:29:01Z</time>
      </trkpt>
      <trkpt lat="41.66801" lon="9.209">
        <ele>958.09</ele>
        <time>2022-05-01T13:29:17Z</time>
      </trkpt>
      <trkpt lat="41.66797" lon="9.20907">
        <ele>957.61</ele>
        <time>2022-05-01T13:29:23Z</time>
      </trkpt>
      <trkpt lat="41.66791" lon="9.20921">
        <ele>957.61</ele>
        <time>2022-05-01T13:29:30Z</time>
      </trkpt>
      <trkpt lat="41.66778" lon="9.20934">
        <ele>958.09</ele>
        <time>2022-05-01T13:29:45Z</time>
      </trkpt>
      <trkpt lat="41.66766" lon="9.20928">
        <ele>958.09</ele>
        <time>2022-05-01T13:29:59Z</time>
      </trkpt>
      <trkpt lat="41.66747" lon="9.20931">
        <ele>959.53</ele>
        <time>2022-05-01T13:30:17Z</time>
      </trkpt>
      <trkpt lat="41.66741" lon="9.2093">
        <ele>959.05</ele>
        <time>2022-05-01T13:30:22Z</time>
      </trkpt>
      <trkpt lat="41.6673" lon="9.20917">
        <ele>958.57</ele>
        <time>2022-05-01T13:30:38Z</time>
      </trkpt>
      <trkpt lat="41.66719" lon="9.20904">
        <ele>959.53</ele>
        <time>2022-05-01T13:30:53Z</time>
      </trkpt>
      <trkpt lat="41.66707" lon="9.20885">
        <ele>959.53</ele>
        <time>2022-05-01T13:31:08Z</time>
      </trkpt>
      <trkpt lat="41.66695" lon="9.20869">
        <ele>959.53</ele>
        <time>2022-05-01T13:31:23Z</time>
      </trkpt>
      <trkpt lat="41.66688" lon="9.20858">
        <ele>960.01</ele>
        <time>2022-05-01T13:31:33Z</time>
      </trkpt>
      <trkpt lat="41.66683" lon="9.20848">
        <ele>960.01</ele>
        <time>2022-05-01T13:31:39Z</time>
      </trkpt>
      <trkpt lat="41.66681" lon="9.20844">
        <ele>960.01</ele>
        <time>2022-05-01T13:31:42Z</time>
      </trkpt>
      <trkpt lat="41.66664" lon="9.20828">
        <ele>960.49</ele>
        <time>2022-05-01T13:31:57Z</time>
      </trkpt>
      <trkpt lat="41.66647" lon="9.20813">
        <ele>960.98</ele>
        <time>2022-05-01T13:32:13Z</time>
      </trkpt>
      <trkpt lat="41.66629" lon="9.20797">
        <ele>960.49</ele>
        <time>2022-05-01T13:32:31Z</time>
      </trkpt>
      <trkpt lat="41.66611" lon="9.20784">
        <ele>960.98</ele>
        <time>2022-05-01T13:32:45Z</time>
      </trkpt>
      <trkpt lat="41.66596" lon="9.20772">
        <ele>960.49</ele>
        <time>2022-05-01T13:33:01Z</time>
      </trkpt>
      <trkpt lat="41.66582" lon="9.2076">
        <ele>960.98</ele>
        <time>2022-05-01T13:33:15Z</time>
      </trkpt>
      <trkpt lat="41.66567" lon="9.20748">
        <ele>960.98</ele>
        <time>2022-05-01T13:33:30Z</time>
      </trkpt>
      <trkpt lat="41.66553" lon="9.20734">
        <ele>960.98</ele>
        <time>2022-05-01T13:33:44Z</time>
      </trkpt>
      <trkpt lat="41.66552" lon="9.20733">
        <ele>960.98</ele>
        <time>2022-05-01T13:33:45Z</time>
      </trkpt>
      <trkpt lat="41.66538" lon="9.20719">
        <ele>960.49</ele>
        <time>2022-05-01T13:34:00Z</time>
      </trkpt>
      <trkpt lat="41.6653" lon="9.20709">
        <ele>960.49</ele>
        <time>2022-05-01T13:34:08Z</time>
      </trkpt>
      <trkpt lat="41.66526" lon="9.20699">
        <ele>960.98</ele>
        <time>2022-05-01T13:34:15Z</time>
      </trkpt>
      <trkpt lat="41.66519" lon="9.20679">
        <ele>960.49</ele>
        <time>2022-05-01T13:34:27Z</time>
      </trkpt>
      <trkpt lat="41.66516" lon="9.20669">
        <ele>961.46</ele>
        <time>2022-05-01T13:34:34Z</time>
      </trkpt>
      <trkpt lat="41.66515" lon="9.20662">
        <ele>960.98</ele>
        <time>2022-05-01T13:34:40Z</time>
      </trkpt>
      <trkpt lat="41.66509" lon="9.20635">
        <ele>960.98</ele>
        <time>2022-05-01T13:34:57Z</time>
      </trkpt>
      <trkpt lat="41.66506" lon="9.20626">
        <ele>960.98</ele>
        <time>2022-05-01T13:35:11Z</time>
      </trkpt>
      <trkpt lat="41.66501" lon="9.20609">
        <ele>960.98</ele>
        <time>2022-05-01T13:35:27Z</time>
      </trkpt>
      <trkpt lat="41.66502" lon="9.20606">
        <ele>960.98</ele>
        <time>2022-05-01T13:35:29Z</time>
      </trkpt>
      <trkpt lat="41.66508" lon="9.20588">
        <ele>960.98</ele>
        <time>2022-05-01T13:35:44Z</time>
      </trkpt>
      <trkpt lat="41.66513" lon="9.20565">
        <ele>960.98</ele>
        <time>2022-05-01T13:36:01Z</time>
      </trkpt>
      <trkpt lat="41.66519" lon="9.20551">
        <ele>960.98</ele>
        <time>2022-05-01T13:36:14Z</time>
      </trkpt>
      <trkpt lat="41.66521" lon="9.2051">
        <ele>960.98</ele>
        <time>2022-05-01T13:36:33Z</time>
      </trkpt>
      <trkpt lat="41.66529" lon="9.2048">
        <ele>960.98</ele>
        <time>2022-05-01T13:36:50Z</time>
      </trkpt>
      <trkpt lat="41.66536" lon="9.20464">
        <ele>961.94</ele>
        <time>2022-05-01T13:37:03Z</time>
      </trkpt>
      <trkpt lat="41.66541" lon="9.20458">
        <ele>961.46</ele>
        <time>2022-05-01T13:37:16Z</time>
      </trkpt>
      <trkpt lat="41.66544" lon="9.20433">
        <ele>961.46</ele>
        <time>2022-05-01T13:37:31Z</time>
      </trkpt>
      <trkpt lat="41.66546" lon="9.20405">
        <ele>961.46</ele>
        <time>2022-05-01T13:37:47Z</time>
      </trkpt>
      <trkpt lat="41.6655" lon="9.20377">
        <ele>961.94</ele>
        <time>2022-05-01T13:38:04Z</time>
      </trkpt>
      <trkpt lat="41.66549" lon="9.20347">
        <ele>962.42</ele>
        <time>2022-05-01T13:38:21Z</time>
      </trkpt>
      <trkpt lat="41.66549" lon="9.2032">
        <ele>962.9</ele>
        <time>2022-05-01T13:38:38Z</time>
      </trkpt>
      <trkpt lat="41.66553" lon="9.203">
        <ele>962.9</ele>
        <time>2022-05-01T13:38:56Z</time>
      </trkpt>
      <trkpt lat="41.66553" lon="9.20297">
        <ele>963.38</ele>
        <time>2022-05-01T13:38:58Z</time>
      </trkpt>
      <trkpt lat="41.66548" lon="9.20262">
        <ele>963.38</ele>
        <time>2022-05-01T13:39:16Z</time>
      </trkpt>
      <trkpt lat="41.66545" lon="9.20232">
        <ele>964.34</ele>
        <time>2022-05-01T13:39:35Z</time>
      </trkpt>
      <trkpt lat="41.6654" lon="9.20209">
        <ele>964.34</ele>
        <time>2022-05-01T13:39:48Z</time>
      </trkpt>
      <trkpt lat="41.66533" lon="9.20176">
        <ele>965.3</ele>
        <time>2022-05-01T13:40:06Z</time>
      </trkpt>
      <trkpt lat="41.66525" lon="9.20148">
        <ele>965.3</ele>
        <time>2022-05-01T13:40:24Z</time>
      </trkpt>
      <trkpt lat="41.66514" lon="9.20119">
        <ele>965.3</ele>
        <time>2022-05-01T13:40:45Z</time>
      </trkpt>
      <trkpt lat="41.66503" lon="9.2009">
        <ele>965.3</ele>
        <time>2022-05-01T13:41:02Z</time>
      </trkpt>
      <trkpt lat="41.66504" lon="9.20088">
        <ele>965.3</ele>
        <time>2022-05-01T13:41:09Z</time>
      </trkpt>
      <trkpt lat="41.66491" lon="9.20062">
        <ele>964.82</ele>
        <time>2022-05-01T13:41:28Z</time>
      </trkpt>
      <trkpt lat="41.66475" lon="9.20034">
        <ele>965.3</ele>
        <time>2022-05-01T13:41:48Z</time>
      </trkpt>
      <trkpt lat="41.66463" lon="9.20014">
        <ele>964.82</ele>
        <time>2022-05-01T13:42:04Z</time>
      </trkpt>
      <trkpt lat="41.66452" lon="9.19996">
        <ele>965.3</ele>
        <time>2022-05-01T13:42:18Z</time>
      </trkpt>
      <trkpt lat="41.66435" lon="9.19977">
        <ele>964.82</ele>
        <time>2022-05-01T13:42:36Z</time>
      </trkpt>
      <trkpt lat="41.66416" lon="9.19956">
        <ele>963.86</ele>
        <time>2022-05-01T13:42:54Z</time>
      </trkpt>
      <trkpt lat="41.66399" lon="9.19936">
        <ele>963.86</ele>
        <time>2022-05-01T13:43:11Z</time>
      </trkpt>
      <trkpt lat="41.66384" lon="9.19919">
        <ele>963.38</ele>
        <time>2022-05-01T13:43:27Z</time>
      </trkpt>
      <trkpt lat="41.6637" lon="9.1991">
        <ele>963.38</ele>
        <time>2022-05-01T13:43:40Z</time>
      </trkpt>
      <trkpt lat="41.66356" lon="9.19899">
        <ele>962.42</ele>
        <time>2022-05-01T13:43:55Z</time>
      </trkpt>
      <trkpt lat="41.6634" lon="9.1989">
        <ele>961.94</ele>
        <time>2022-05-01T13:44:11Z</time>
      </trkpt>
      <trkpt lat="41.66313" lon="9.19881">
        <ele>961.94</ele>
        <time>2022-05-01T13:44:29Z</time>
      </trkpt>
      <trkpt lat="41.66295" lon="9.19873">
        <ele>961.94</ele>
        <time>2022-05-01T13:44:45Z</time>
      </trkpt>
      <trkpt lat="41.66268" lon="9.19871">
        <ele>961.46</ele>
        <time>2022-05-01T13:45:03Z</time>
      </trkpt>
      <trkpt lat="41.66266" lon="9.19872">
        <ele>961.46</ele>
        <time>2022-05-01T13:45:04Z</time>
      </trkpt>
      <trkpt lat="41.66245" lon="9.19873">
        <ele>961.94</ele>
        <time>2022-05-01T13:45:21Z</time>
      </trkpt>
      <trkpt lat="41.66239" lon="9.19874">
        <ele>962.9</ele>
        <time>2022-05-01T13:45:26Z</time>
      </trkpt>
      <trkpt lat="41.66219" lon="9.19874">
        <ele>960.98</ele>
        <time>2022-05-01T13:45:43Z</time>
      </trkpt>
      <trkpt lat="41.66196" lon="9.19874">
        <ele>960.49</ele>
        <time>2022-05-01T13:45:59Z</time>
      </trkpt>
      <trkpt lat="41.66167" lon="9.19872">
        <ele>960.01</ele>
        <time>2022-05-01T13:46:18Z</time>
      </trkpt>
      <trkpt lat="41.66148" lon="9.19869">
        <ele>960.49</ele>
        <time>2022-05-01T13:46:34Z</time>
      </trkpt>
      <trkpt lat="41.66132" lon="9.19861">
        <ele>959.53</ele>
        <time>2022-05-01T13:46:49Z</time>
      </trkpt>
      <trkpt lat="41.66112" lon="9.1985">
        <ele>959.53</ele>
        <time>2022-05-01T13:47:05Z</time>
      </trkpt>
      <trkpt lat="41.66093" lon="9.19834">
        <ele>959.53</ele>
        <time>2022-05-01T13:47:23Z</time>
      </trkpt>
      <trkpt lat="41.66079" lon="9.19825">
        <ele>959.53</ele>
        <time>2022-05-01T13:47:39Z</time>
      </trkpt>
      <trkpt lat="41.66066" lon="9.19811">
        <ele>959.53</ele>
        <time>2022-05-01T13:47:53Z</time>
      </trkpt>
      <trkpt lat="41.66056" lon="9.19806">
        <ele>959.05</ele>
        <time>2022-05-01T13:48:01Z</time>
      </trkpt>
      <trkpt lat="41.66038" lon="9.1979">
        <ele>960.01</ele>
        <time>2022-05-01T13:48:17Z</time>
      </trkpt>
      <trkpt lat="41.66025" lon="9.1977">
        <ele>959.53</ele>
        <time>2022-05-01T13:48:33Z</time>
      </trkpt>
      <trkpt lat="41.66013" lon="9.19746">
        <ele>959.53</ele>
        <time>2022-05-01T13:48:46Z</time>
      </trkpt>
      <trkpt lat="41.6601" lon="9.19742">
        <ele>959.53</ele>
        <time>2022-05-01T13:48:50Z</time>
      </trkpt>
      <trkpt lat="41.65998" lon="9.19725">
        <ele>959.53</ele>
        <time>2022-05-01T13:49:06Z</time>
      </trkpt>
      <trkpt lat="41.65986" lon="9.19704">
        <ele>959.53</ele>
        <time>2022-05-01T13:49:22Z</time>
      </trkpt>
      <trkpt lat="41.65974" lon="9.19682">
        <ele>959.05</ele>
        <time>2022-05-01T13:49:41Z</time>
      </trkpt>
      <trkpt lat="41.65958" lon="9.19645">
        <ele>960.01</ele>
        <time>2022-05-01T13:50:02Z</time>
      </trkpt>
      <trkpt lat="41.65946" lon="9.19616">
        <ele>960.49</ele>
        <time>2022-05-01T13:50:22Z</time>
      </trkpt>
      <trkpt lat="41.65945" lon="9.19608">
        <ele>959.53</ele>
        <time>2022-05-01T13:50:32Z</time>
      </trkpt>
      <trkpt lat="41.65943" lon="9.19596">
        <ele>960.01</ele>
        <time>2022-05-01T13:50:38Z</time>
      </trkpt>
      <trkpt lat="41.65943" lon="9.19594">
        <ele>959.53</ele>
        <time>2022-05-01T13:50:39Z</time>
      </trkpt>
      <trkpt lat="41.6594" lon="9.19588">
        <ele>960.01</ele>
        <time>2022-05-01T13:50:43Z</time>
      </trkpt>
      <trkpt lat="41.65939" lon="9.19587">
        <ele>958.57</ele>
        <time>2022-05-01T13:50:44Z</time>
      </trkpt>
      <trkpt lat="41.65939" lon="9.19586">
        <ele>960.01</ele>
        <time>2022-05-01T13:50:45Z</time>
      </trkpt>
      <trkpt lat="41.65938" lon="9.19585">
        <ele>960.98</ele>
        <time>2022-05-01T13:50:46Z</time>
      </trkpt>
      <trkpt lat="41.65925" lon="9.19571">
        <ele>960.49</ele>
        <time>2022-05-01T13:50:59Z</time>
      </trkpt>
      <trkpt lat="41.65916" lon="9.19549">
        <ele>960.01</ele>
        <time>2022-05-01T13:51:14Z</time>
      </trkpt>
      <trkpt lat="41.65909" lon="9.1952">
        <ele>959.53</ele>
        <time>2022-05-01T13:51:29Z</time>
      </trkpt>
      <trkpt lat="41.65906" lon="9.19492">
        <ele>960.01</ele>
        <time>2022-05-01T13:51:46Z</time>
      </trkpt>
      <trkpt lat="41.65907" lon="9.19462">
        <ele>960.49</ele>
        <time>2022-05-01T13:52:04Z</time>
      </trkpt>
      <trkpt lat="41.65909" lon="9.19428">
        <ele>960.98</ele>
        <time>2022-05-01T13:52:20Z</time>
      </trkpt>
      <trkpt lat="41.65912" lon="9.19416">
        <ele>960.98</ele>
        <time>2022-05-01T13:52:25Z</time>
      </trkpt>
      <trkpt lat="41.65915" lon="9.19392">
        <ele>960.49</ele>
        <time>2022-05-01T13:52:39Z</time>
      </trkpt>
      <trkpt lat="41.65918" lon="9.19367">
        <ele>960.98</ele>
        <time>2022-05-01T13:52:55Z</time>
      </trkpt>
      <trkpt lat="41.65915" lon="9.19332">
        <ele>960.98</ele>
        <time>2022-05-01T13:53:14Z</time>
      </trkpt>
      <trkpt lat="41.65914" lon="9.19293">
        <ele>961.46</ele>
        <time>2022-05-01T13:53:34Z</time>
      </trkpt>
      <trkpt lat="41.6591" lon="9.19258">
        <ele>961.46</ele>
        <time>2022-05-01T13:53:53Z</time>
      </trkpt>
      <trkpt lat="41.65907" lon="9.19236">
        <ele>962.9</ele>
        <time>2022-05-01T13:54:04Z</time>
      </trkpt>
      <trkpt lat="41.65907" lon="9.19234">
        <ele>961.46</ele>
        <time>2022-05-01T13:54:05Z</time>
      </trkpt>
      <trkpt lat="41.65908" lon="9.19231">
        <ele>960.01</ele>
        <time>2022-05-01T13:54:08Z</time>
      </trkpt>
      <trkpt lat="41.65908" lon="9.1923">
        <ele>961.94</ele>
        <time>2022-05-01T13:54:10Z</time>
      </trkpt>
      <trkpt lat="41.65909" lon="9.19233">
        <ele>961.46</ele>
        <time>2022-05-01T13:54:19Z</time>
      </trkpt>
      <trkpt lat="41.65908" lon="9.19224">
        <ele>961.94</ele>
        <time>2022-05-01T13:54:32Z</time>
      </trkpt>
      <trkpt lat="41.65908" lon="9.19222">
        <ele>961.94</ele>
        <time>2022-05-01T13:54:35Z</time>
      </trkpt>
      <trkpt lat="41.65908" lon="9.19203">
        <ele>961.46</ele>
        <time>2022-05-01T13:54:45Z</time>
      </trkpt>
      <trkpt lat="41.65908" lon="9.1918">
        <ele>961.46</ele>
        <time>2022-05-01T13:54:59Z</time>
      </trkpt>
      <trkpt lat="41.65904" lon="9.19145">
        <ele>961.46</ele>
        <time>2022-05-01T13:55:16Z</time>
      </trkpt>
      <trkpt lat="41.65899" lon="9.1912">
        <ele>962.42</ele>
        <time>2022-05-01T13:55:33Z</time>
      </trkpt>
      <trkpt lat="41.65889" lon="9.19097">
        <ele>961.94</ele>
        <time>2022-05-01T13:55:52Z</time>
      </trkpt>
      <trkpt lat="41.65869" lon="9.19066">
        <ele>962.42</ele>
        <time>2022-05-01T13:56:11Z</time>
      </trkpt>
      <trkpt lat="41.6586" lon="9.19046">
        <ele>961.94</ele>
        <time>2022-05-01T13:56:26Z</time>
      </trkpt>
      <trkpt lat="41.65845" lon="9.19019">
        <ele>961.94</ele>
        <time>2022-05-01T13:56:43Z</time>
      </trkpt>
      <trkpt lat="41.65835" lon="9.19003">
        <ele>961.46</ele>
        <time>2022-05-01T13:56:55Z</time>
      </trkpt>
      <trkpt lat="41.65826" lon="9.18995">
        <ele>960.49</ele>
        <time>2022-05-01T13:57:03Z</time>
      </trkpt>
      <trkpt lat="41.65826" lon="9.18996">
        <ele>960.49</ele>
        <time>2022-05-01T13:57:04Z</time>
      </trkpt>
      <trkpt lat="41.65825" lon="9.18996">
        <ele>960.98</ele>
        <time>2022-05-01T13:57:05Z</time>
      </trkpt>
      <trkpt lat="41.6581" lon="9.18992">
        <ele>960.49</ele>
        <time>2022-05-01T13:57:17Z</time>
      </trkpt>
      <trkpt lat="41.65809" lon="9.18992">
        <ele>961.46</ele>
        <time>2022-05-01T13:57:18Z</time>
      </trkpt>
      <trkpt lat="41.65806" lon="9.1899">
        <ele>958.57</ele>
        <time>2022-05-01T13:57:21Z</time>
      </trkpt>
      <trkpt lat="41.65806" lon="9.18988">
        <ele>960.98</ele>
        <time>2022-05-01T13:57:24Z</time>
      </trkpt>
      <trkpt lat="41.65804" lon="9.18988">
        <ele>960.49</ele>
        <time>2022-05-01T13:57:27Z</time>
      </trkpt>
      <trkpt lat="41.65802" lon="9.18989">
        <ele>960.49</ele>
        <time>2022-05-01T13:57:28Z</time>
      </trkpt>
      <trkpt lat="41.65782" lon="9.18989">
        <ele>959.05</ele>
        <time>2022-05-01T13:57:44Z</time>
      </trkpt>
      <trkpt lat="41.65769" lon="9.1899">
        <ele>958.09</ele>
        <time>2022-05-01T13:57:57Z</time>
      </trkpt>
      <trkpt lat="41.65749" lon="9.18996">
        <ele>957.13</ele>
        <time>2022-05-01T13:58:14Z</time>
      </trkpt>
      <trkpt lat="41.65737" lon="9.19">
        <ele>955.69</ele>
        <time>2022-05-01T13:58:25Z</time>
      </trkpt>
      <trkpt lat="41.65736" lon="9.19001">
        <ele>955.21</ele>
        <time>2022-05-01T13:58:26Z</time>
      </trkpt>
      <trkpt lat="41.65725" lon="9.19016">
        <ele>956.17</ele>
        <time>2022-05-01T13:58:38Z</time>
      </trkpt>
      <trkpt lat="41.65721" lon="9.19026">
        <ele>957.13</ele>
        <time>2022-05-01T13:58:46Z</time>
      </trkpt>
      <trkpt lat="41.65719" lon="9.19031">
        <ele>957.61</ele>
        <time>2022-05-01T13:58:50Z</time>
      </trkpt>
      <trkpt lat="41.65713" lon="9.19037">
        <ele>956.65</ele>
        <time>2022-05-01T13:58:57Z</time>
      </trkpt>
      <trkpt lat="41.65711" lon="9.19037">
        <ele>957.13</ele>
        <time>2022-05-01T13:59:00Z</time>
      </trkpt>
      <trkpt lat="41.65696" lon="9.19041">
        <ele>954.73</ele>
        <time>2022-05-01T13:59:16Z</time>
      </trkpt>
      <trkpt lat="41.65693" lon="9.19041">
        <ele>954.25</ele>
        <time>2022-05-01T13:59:19Z</time>
      </trkpt>
      <trkpt lat="41.65679" lon="9.19043">
        <ele>953.77</ele>
        <time>2022-05-01T13:59:33Z</time>
      </trkpt>
      <trkpt lat="41.65651" lon="9.19039">
        <ele>952.8</ele>
        <time>2022-05-01T13:59:52Z</time>
      </trkpt>
      <trkpt lat="41.65634" lon="9.19047">
        <ele>953.77</ele>
        <time>2022-05-01T14:00:08Z</time>
      </trkpt>
      <trkpt lat="41.65633" lon="9.19047">
        <ele>952.8</ele>
        <time>2022-05-01T14:00:09Z</time>
      </trkpt>
      <trkpt lat="41.65617" lon="9.19054">
        <ele>954.25</ele>
        <time>2022-05-01T14:00:23Z</time>
      </trkpt>
      <trkpt lat="41.65608" lon="9.19068">
        <ele>955.69</ele>
        <time>2022-05-01T14:00:40Z</time>
      </trkpt>
      <trkpt lat="41.65596" lon="9.19088">
        <ele>957.61</ele>
        <time>2022-05-01T14:00:57Z</time>
      </trkpt>
      <trkpt lat="41.65581" lon="9.191">
        <ele>957.61</ele>
        <time>2022-05-01T14:01:14Z</time>
      </trkpt>
      <trkpt lat="41.65567" lon="9.19113">
        <ele>958.09</ele>
        <time>2022-05-01T14:01:30Z</time>
      </trkpt>
      <trkpt lat="41.65553" lon="9.19124">
        <ele>958.09</ele>
        <time>2022-05-01T14:01:43Z</time>
      </trkpt>
      <trkpt lat="41.65538" lon="9.19138">
        <ele>957.61</ele>
        <time>2022-05-01T14:01:59Z</time>
      </trkpt>
      <trkpt lat="41.65525" lon="9.19153">
        <ele>956.65</ele>
        <time>2022-05-01T14:02:12Z</time>
      </trkpt>
      <trkpt lat="41.65512" lon="9.19165">
        <ele>956.65</ele>
        <time>2022-05-01T14:02:26Z</time>
      </trkpt>
      <trkpt lat="41.65507" lon="9.19168">
        <ele>957.13</ele>
        <time>2022-05-01T14:02:30Z</time>
      </trkpt>
      <trkpt lat="41.65488" lon="9.19178">
        <ele>956.65</ele>
        <time>2022-05-01T14:02:44Z</time>
      </trkpt>
      <trkpt lat="41.65475" lon="9.19179">
        <ele>956.65</ele>
        <time>2022-05-01T14:02:56Z</time>
      </trkpt>
      <trkpt lat="41.6546" lon="9.19186">
        <ele>957.13</ele>
        <time>2022-05-01T14:03:07Z</time>
      </trkpt>
      <trkpt lat="41.65453" lon="9.19179">
        <ele>955.69</ele>
        <time>2022-05-01T14:03:20Z</time>
      </trkpt>
      <trkpt lat="41.65451" lon="9.19178">
        <ele>955.69</ele>
        <time>2022-05-01T14:03:22Z</time>
      </trkpt>
      <trkpt lat="41.6545" lon="9.19178">
        <ele>956.17</ele>
        <time>2022-05-01T14:03:23Z</time>
      </trkpt>
      <trkpt lat="41.65435" lon="9.19176">
        <ele>954.25</ele>
        <time>2022-05-01T14:03:37Z</time>
      </trkpt>
      <trkpt lat="41.65434" lon="9.19175">
        <ele>954.25</ele>
        <time>2022-05-01T14:03:38Z</time>
      </trkpt>
      <trkpt lat="41.65433" lon="9.19174">
        <ele>954.25</ele>
        <time>2022-05-01T14:03:39Z</time>
      </trkpt>
      <trkpt lat="41.65431" lon="9.19173">
        <ele>955.21</ele>
        <time>2022-05-01T14:03:40Z</time>
      </trkpt>
      <trkpt lat="41.6543" lon="9.19173">
        <ele>955.21</ele>
        <time>2022-05-01T14:03:41Z</time>
      </trkpt>
      <trkpt lat="41.65416" lon="9.1917">
        <ele>952.8</ele>
        <time>2022-05-01T14:03:54Z</time>
      </trkpt>
      <trkpt lat="41.65415" lon="9.1917">
        <ele>951.84</ele>
        <time>2022-05-01T14:03:56Z</time>
      </trkpt>
      <trkpt lat="41.654" lon="9.19173">
        <ele>950.88</ele>
        <time>2022-05-01T14:04:09Z</time>
      </trkpt>
      <trkpt lat="41.65398" lon="9.19173">
        <ele>950.4</ele>
        <time>2022-05-01T14:04:10Z</time>
      </trkpt>
      <trkpt lat="41.65389" lon="9.19179">
        <ele>949.92</ele>
        <time>2022-05-01T14:04:14Z</time>
      </trkpt>
      <trkpt lat="41.65378" lon="9.19184">
        <ele>948.48</ele>
        <time>2022-05-01T14:04:25Z</time>
      </trkpt>
      <trkpt lat="41.65375" lon="9.1919">
        <ele>948</ele>
        <time>2022-05-01T14:04:30Z</time>
      </trkpt>
      <trkpt lat="41.65374" lon="9.19199">
        <ele>943.67</ele>
        <time>2022-05-01T14:04:36Z</time>
      </trkpt>
      <trkpt lat="41.65374" lon="9.192">
        <ele>949.44</ele>
        <time>2022-05-01T14:04:37Z</time>
      </trkpt>
      <trkpt lat="41.65374" lon="9.19202">
        <ele>944.63</ele>
        <time>2022-05-01T14:04:38Z</time>
      </trkpt>
      <trkpt lat="41.65374" lon="9.19204">
        <ele>948.96</ele>
        <time>2022-05-01T14:04:39Z</time>
      </trkpt>
      <trkpt lat="41.65373" lon="9.19212">
        <ele>944.15</ele>
        <time>2022-05-01T14:04:44Z</time>
      </trkpt>
      <trkpt lat="41.65373" lon="9.19214">
        <ele>947.52</ele>
        <time>2022-05-01T14:04:45Z</time>
      </trkpt>
      <trkpt lat="41.65367" lon="9.19228">
        <ele>944.15</ele>
        <time>2022-05-01T14:04:54Z</time>
      </trkpt>
      <trkpt lat="41.65364" lon="9.19236">
        <ele>944.63</ele>
        <time>2022-05-01T14:05:06Z</time>
      </trkpt>
      <trkpt lat="41.65364" lon="9.19266">
        <ele>943.19</ele>
        <time>2022-05-01T14:05:23Z</time>
      </trkpt>
      <trkpt lat="41.65363" lon="9.19271">
        <ele>942.23</ele>
        <time>2022-05-01T14:05:27Z</time>
      </trkpt>
      <trkpt lat="41.65364" lon="9.19295">
        <ele>941.75</ele>
        <time>2022-05-01T14:05:39Z</time>
      </trkpt>
      <trkpt lat="41.65365" lon="9.19298">
        <ele>941.27</ele>
        <time>2022-05-01T14:05:40Z</time>
      </trkpt>
      <trkpt lat="41.65365" lon="9.193">
        <ele>941.27</ele>
        <time>2022-05-01T14:05:41Z</time>
      </trkpt>
      <trkpt lat="41.65365" lon="9.19302">
        <ele>941.27</ele>
        <time>2022-05-01T14:05:42Z</time>
      </trkpt>
      <trkpt lat="41.65366" lon="9.19324">
        <ele>940.79</ele>
        <time>2022-05-01T14:05:55Z</time>
      </trkpt>
      <trkpt lat="41.65368" lon="9.19335">
        <ele>939.83</ele>
        <time>2022-05-01T14:06:02Z</time>
      </trkpt>
      <trkpt lat="41.65371" lon="9.19347">
        <ele>938.86</ele>
        <time>2022-05-01T14:06:10Z</time>
      </trkpt>
      <trkpt lat="41.65371" lon="9.19349">
        <ele>938.38</ele>
        <time>2022-05-01T14:06:11Z</time>
      </trkpt>
      <trkpt lat="41.65372" lon="9.19364">
        <ele>936.46</ele>
        <time>2022-05-01T14:06:18Z</time>
      </trkpt>
      <trkpt lat="41.65372" lon="9.19366">
        <ele>936.46</ele>
        <time>2022-05-01T14:06:19Z</time>
      </trkpt>
      <trkpt lat="41.65372" lon="9.19367">
        <ele>936.46</ele>
        <time>2022-05-01T14:06:20Z</time>
      </trkpt>
      <trkpt lat="41.65368" lon="9.19381">
        <ele>933.58</ele>
        <time>2022-05-01T14:06:34Z</time>
      </trkpt>
      <trkpt lat="41.65367" lon="9.19384">
        <ele>933.1</ele>
        <time>2022-05-01T14:06:37Z</time>
      </trkpt>
      <trkpt lat="41.6537" lon="9.19396">
        <ele>932.14</ele>
        <time>2022-05-01T14:06:43Z</time>
      </trkpt>
      <trkpt lat="41.6537" lon="9.19398">
        <ele>932.14</ele>
        <time>2022-05-01T14:06:44Z</time>
      </trkpt>
      <trkpt lat="41.65362" lon="9.19415">
        <ele>929.25</ele>
        <time>2022-05-01T14:06:59Z</time>
      </trkpt>
      <trkpt lat="41.65358" lon="9.19416">
        <ele>927.33</ele>
        <time>2022-05-01T14:07:04Z</time>
      </trkpt>
      <trkpt lat="41.65356" lon="9.19416">
        <ele>927.33</ele>
        <time>2022-05-01T14:07:05Z</time>
      </trkpt>
      <trkpt lat="41.65355" lon="9.19416">
        <ele>927.33</ele>
        <time>2022-05-01T14:07:06Z</time>
      </trkpt>
      <trkpt lat="41.65352" lon="9.19418">
        <ele>926.37</ele>
        <time>2022-05-01T14:07:08Z</time>
      </trkpt>
      <trkpt lat="41.65351" lon="9.19419">
        <ele>925.89</ele>
        <time>2022-05-01T14:07:09Z</time>
      </trkpt>
      <trkpt lat="41.6535" lon="9.19421">
        <ele>925.89</ele>
        <time>2022-05-01T14:07:10Z</time>
      </trkpt>
      <trkpt lat="41.65337" lon="9.19444">
        <ele>923.96</ele>
        <time>2022-05-01T14:07:24Z</time>
      </trkpt>
      <trkpt lat="41.65325" lon="9.19454">
        <ele>921.08</ele>
        <time>2022-05-01T14:07:36Z</time>
      </trkpt>
      <trkpt lat="41.65319" lon="9.19457">
        <ele>920.6</ele>
        <time>2022-05-01T14:07:42Z</time>
      </trkpt>
      <trkpt lat="41.65316" lon="9.19456">
        <ele>920.6</ele>
        <time>2022-05-01T14:07:43Z</time>
      </trkpt>
      <trkpt lat="41.65314" lon="9.19455">
        <ele>920.6</ele>
        <time>2022-05-01T14:07:44Z</time>
      </trkpt>
      <trkpt lat="41.653" lon="9.19454">
        <ele>918.68</ele>
        <time>2022-05-01T14:07:53Z</time>
      </trkpt>
      <trkpt lat="41.65289" lon="9.19452">
        <ele>916.75</ele>
        <time>2022-05-01T14:08:04Z</time>
      </trkpt>
      <trkpt lat="41.65276" lon="9.19451">
        <ele>914.35</ele>
        <time>2022-05-01T14:08:16Z</time>
      </trkpt>
      <trkpt lat="41.65272" lon="9.19451">
        <ele>912.91</ele>
        <time>2022-05-01T14:08:21Z</time>
      </trkpt>
      <trkpt lat="41.6527" lon="9.19451">
        <ele>912.43</ele>
        <time>2022-05-01T14:08:22Z</time>
      </trkpt>
      <trkpt lat="41.65268" lon="9.19451">
        <ele>912.43</ele>
        <time>2022-05-01T14:08:23Z</time>
      </trkpt>
      <trkpt lat="41.65263" lon="9.19452">
        <ele>910.99</ele>
        <time>2022-05-01T14:08:27Z</time>
      </trkpt>
      <trkpt lat="41.65254" lon="9.19444">
        <ele>911.47</ele>
        <time>2022-05-01T14:08:39Z</time>
      </trkpt>
      <trkpt lat="41.65251" lon="9.19441">
        <ele>911.95</ele>
        <time>2022-05-01T14:08:52Z</time>
      </trkpt>
      <trkpt lat="41.65253" lon="9.19444">
        <ele>911.95</ele>
        <time>2022-05-01T14:08:55Z</time>
      </trkpt>
      <trkpt lat="41.65253" lon="9.19445">
        <ele>911.95</ele>
        <time>2022-05-01T14:08:56Z</time>
      </trkpt>
      <trkpt lat="41.65258" lon="9.19458">
        <ele>911.95</ele>
        <time>2022-05-01T14:09:07Z</time>
      </trkpt>
      <trkpt lat="41.65258" lon="9.1946">
        <ele>911.47</ele>
        <time>2022-05-01T14:09:08Z</time>
      </trkpt>
      <trkpt lat="41.65258" lon="9.19462">
        <ele>911.47</ele>
        <time>2022-05-01T14:09:09Z</time>
      </trkpt>
      <trkpt lat="41.65259" lon="9.19466">
        <ele>911.47</ele>
        <time>2022-05-01T14:09:11Z</time>
      </trkpt>
      <trkpt lat="41.65264" lon="9.19491">
        <ele>908.58</ele>
        <time>2022-05-01T14:09:27Z</time>
      </trkpt>
      <trkpt lat="41.65265" lon="9.19493">
        <ele>909.06</ele>
        <time>2022-05-01T14:09:30Z</time>
      </trkpt>
      <trkpt lat="41.65266" lon="9.19494">
        <ele>908.58</ele>
        <time>2022-05-01T14:09:31Z</time>
      </trkpt>
      <trkpt lat="41.65266" lon="9.19495">
        <ele>908.1</ele>
        <time>2022-05-01T14:09:32Z</time>
      </trkpt>
      <trkpt lat="41.65267" lon="9.19497">
        <ele>908.1</ele>
        <time>2022-05-01T14:09:33Z</time>
      </trkpt>
      <trkpt lat="41.65268" lon="9.19498">
        <ele>908.1</ele>
        <time>2022-05-01T14:09:34Z</time>
      </trkpt>
      <trkpt lat="41.65269" lon="9.19499">
        <ele>907.62</ele>
        <time>2022-05-01T14:09:35Z</time>
      </trkpt>
      <trkpt lat="41.65271" lon="9.195">
        <ele>907.14</ele>
        <time>2022-05-01T14:09:36Z</time>
      </trkpt>
      <trkpt lat="41.65272" lon="9.19501">
        <ele>907.14</ele>
        <time>2022-05-01T14:09:37Z</time>
      </trkpt>
      <trkpt lat="41.65273" lon="9.19502">
        <ele>907.62</ele>
        <time>2022-05-01T14:09:38Z</time>
      </trkpt>
      <trkpt lat="41.65274" lon="9.19503">
        <ele>907.14</ele>
        <time>2022-05-01T14:09:39Z</time>
      </trkpt>
      <trkpt lat="41.65281" lon="9.19512">
        <ele>906.18</ele>
        <time>2022-05-01T14:09:50Z</time>
      </trkpt>
      <trkpt lat="41.65287" lon="9.1952">
        <ele>906.18</ele>
        <time>2022-05-01T14:09:58Z</time>
      </trkpt>
      <trkpt lat="41.65287" lon="9.19522">
        <ele>906.18</ele>
        <time>2022-05-01T14:09:59Z</time>
      </trkpt>
      <trkpt lat="41.65288" lon="9.19524">
        <ele>904.74</ele>
        <time>2022-05-01T14:10:00Z</time>
      </trkpt>
      <trkpt lat="41.65289" lon="9.19525">
        <ele>904.74</ele>
        <time>2022-05-01T14:10:01Z</time>
      </trkpt>
      <trkpt lat="41.65298" lon="9.19536">
        <ele>904.26</ele>
        <time>2022-05-01T14:10:15Z</time>
      </trkpt>
      <trkpt lat="41.65299" lon="9.19535">
        <ele>904.74</ele>
        <time>2022-05-01T14:10:28Z</time>
      </trkpt>
      <trkpt lat="41.65301" lon="9.19542">
        <ele>904.26</ele>
        <time>2022-05-01T14:10:54Z</time>
      </trkpt>
      <trkpt lat="41.65301" lon="9.19543">
        <ele>903.78</ele>
        <time>2022-05-01T14:10:55Z</time>
      </trkpt>
      <trkpt lat="41.65313" lon="9.1956">
        <ele>902.33</ele>
        <time>2022-05-01T14:11:11Z</time>
      </trkpt>
      <trkpt lat="41.65316" lon="9.19568">
        <ele>899.45</ele>
        <time>2022-05-01T14:11:25Z</time>
      </trkpt>
      <trkpt lat="41.6532" lon="9.19578">
        <ele>899.45</ele>
        <time>2022-05-01T14:11:32Z</time>
      </trkpt>
      <trkpt lat="41.6533" lon="9.19595">
        <ele>899.45</ele>
        <time>2022-05-01T14:11:48Z</time>
      </trkpt>
      <trkpt lat="41.65321" lon="9.19598">
        <ele>897.05</ele>
        <time>2022-05-01T14:12:02Z</time>
      </trkpt>
      <trkpt lat="41.65313" lon="9.19603">
        <ele>895.61</ele>
        <time>2022-05-01T14:12:15Z</time>
      </trkpt>
      <trkpt lat="41.65312" lon="9.19617">
        <ele>893.68</ele>
        <time>2022-05-01T14:12:28Z</time>
      </trkpt>
      <trkpt lat="41.65309" lon="9.1962">
        <ele>892.72</ele>
        <time>2022-05-01T14:12:31Z</time>
      </trkpt>
      <trkpt lat="41.65297" lon="9.19617">
        <ele>891.76</ele>
        <time>2022-05-01T14:12:42Z</time>
      </trkpt>
      <trkpt lat="41.65285" lon="9.19608">
        <ele>889.84</ele>
        <time>2022-05-01T14:12:56Z</time>
      </trkpt>
      <trkpt lat="41.6528" lon="9.19605">
        <ele>889.84</ele>
        <time>2022-05-01T14:13:08Z</time>
      </trkpt>
      <trkpt lat="41.65268" lon="9.19593">
        <ele>888.4</ele>
        <time>2022-05-01T14:13:20Z</time>
      </trkpt>
      <trkpt lat="41.65261" lon="9.19589">
        <ele>887.43</ele>
        <time>2022-05-01T14:13:27Z</time>
      </trkpt>
      <trkpt lat="41.65244" lon="9.19574">
        <ele>885.03</ele>
        <time>2022-05-01T14:13:44Z</time>
      </trkpt>
      <trkpt lat="41.65231" lon="9.19561">
        <ele>883.59</ele>
        <time>2022-05-01T14:13:59Z</time>
      </trkpt>
      <trkpt lat="41.65213" lon="9.19544">
        <ele>880.22</ele>
        <time>2022-05-01T14:14:17Z</time>
      </trkpt>
      <trkpt lat="41.65199" lon="9.1953">
        <ele>877.34</ele>
        <time>2022-05-01T14:14:32Z</time>
      </trkpt>
      <trkpt lat="41.65194" lon="9.19524">
        <ele>876.86</ele>
        <time>2022-05-01T14:14:38Z</time>
      </trkpt>
      <trkpt lat="41.65187" lon="9.19513">
        <ele>876.38</ele>
        <time>2022-05-01T14:14:52Z</time>
      </trkpt>
      <trkpt lat="41.65173" lon="9.19496">
        <ele>874.94</ele>
        <time>2022-05-01T14:15:08Z</time>
      </trkpt>
      <trkpt lat="41.65166" lon="9.19487">
        <ele>874.46</ele>
        <time>2022-05-01T14:15:22Z</time>
      </trkpt>
      <trkpt lat="41.65165" lon="9.19486">
        <ele>874.46</ele>
        <time>2022-05-01T14:15:23Z</time>
      </trkpt>
      <trkpt lat="41.65157" lon="9.19467">
        <ele>873.98</ele>
        <time>2022-05-01T14:15:38Z</time>
      </trkpt>
      <trkpt lat="41.65154" lon="9.19451">
        <ele>873.5</ele>
        <time>2022-05-01T14:15:48Z</time>
      </trkpt>
      <trkpt lat="41.65159" lon="9.19437">
        <ele>874.94</ele>
        <time>2022-05-01T14:16:00Z</time>
      </trkpt>
      <trkpt lat="41.65159" lon="9.19428">
        <ele>876.86</ele>
        <time>2022-05-01T14:16:09Z</time>
      </trkpt>
      <trkpt lat="41.65152" lon="9.19411">
        <ele>877.82</ele>
        <time>2022-05-01T14:16:24Z</time>
      </trkpt>
      <trkpt lat="41.65145" lon="9.19398">
        <ele>878.3</ele>
        <time>2022-05-01T14:16:36Z</time>
      </trkpt>
      <trkpt lat="41.65138" lon="9.19385">
        <ele>879.26</ele>
        <time>2022-05-01T14:16:47Z</time>
      </trkpt>
      <trkpt lat="41.65135" lon="9.19372">
        <ele>879.74</ele>
        <time>2022-05-01T14:16:57Z</time>
      </trkpt>
      <trkpt lat="41.65133" lon="9.19362">
        <ele>880.71</ele>
        <time>2022-05-01T14:17:04Z</time>
      </trkpt>
      <trkpt lat="41.6513" lon="9.19346">
        <ele>881.19</ele>
        <time>2022-05-01T14:17:17Z</time>
      </trkpt>
      <trkpt lat="41.65127" lon="9.19334">
        <ele>882.63</ele>
        <time>2022-05-01T14:17:23Z</time>
      </trkpt>
      <trkpt lat="41.65122" lon="9.19318">
        <ele>883.59</ele>
        <time>2022-05-01T14:17:36Z</time>
      </trkpt>
      <trkpt lat="41.65123" lon="9.19318">
        <ele>883.59</ele>
        <time>2022-05-01T14:17:52Z</time>
      </trkpt>
    </trkseg>
  </trk>
</gpx>